[[{"header":{"parameterUnit":"m.s-1","parameterCategory":1,"la1":31.0,"la2":29.5877,"lo1":-88.7671,"lo2":-86.6584,"dx":0.0162,"dy":0.0185,"nx":115,"ny":88,"refTime":"2023-02-12T18:00:00:Z","depth":0,"parameterNumber":2,"parameterNumberName":"U-component_of_WINDS"},"data":[0.0,0.0,0.0,0.0,0.0,0.0,0.0,0.0,0.0,0.0,0.0,0.0,0.0,0.0,0.0,0.0,0.0,0.0,0.0,0.0,0.0,0.0,0.0,0.0,0.0,0.0,0.0,0.0,0.0,0.0,0.0,0.0,0.0,0.0,0.0,0.0,0.0,0.0,0.0,0.0,0.0,0.0,0.0,0.0,0.0,0.0,0.0,0.0,0.0,0.0,0.0,0.0,0.0,0.0,0.0,0.0,0.0,0.0,0.0,0.0,0.0,0.0,0.0,0.0,0.0,0.0,0.0,0.0,0.0,0.0,0.0,0.0,0.0,0.0,0.0,0.0,0.0,0.0,0.0,0.0,0.0,0.0,0.0,0.0,0.0,0.0,0.0,0.0,0.0,0.0,0.0,0.0,0.0,0.0,0.0,0.0,0.0,0.0,0.0,0.0,0.0,0.0,0.0,0.0,0.0,0.0,0.0,0.0,0.0,0.0,0.0,0.0,0.0,0.0,0.0,0.0,0.0,0.0,0.0,0.0,0.0,0.0,0.0,0.0,0.0,0.0,0.0,0.0,0.0,0.0,0.0,0.0,0.0,0.0,0.0,0.0,0.0,0.0,0.0,0.0,0.0,0.0,0.0,0.0,0.0,0.0,0.0,0.0,0.0,0.0,0.0,0.0,0.0,0.0,0.0,0.0,0.0,0.0,0.0,0.0,0.0,0.0,0.0,0.0,0.0,0.0,0.0,0.0,0.0,0.0,0.0,0.0,0.0,0.0,0.0,0.0,0.0,0.0,0.0,0.0,0.0,0.0,0.0,0.0,0.0,0.0,0.0,0.0,0.0,0.0,0.0,0.0,0.0,0.0,0.0,0.0,0.0,0.0,0.0,0.0,0.0,0.0,0.0,0.0,0.0,0.0,0.0,0.0,0.0,0.0,0.0,0.0,0.0,0.0,0.0,0.0,0.0,0.0,0.0,0.0,0.0,0.0,0.0,0.0,0.0,0.0,0.0,0.0,0.0,0.0,0.0,0.0,0.0,0.0,0.0,0.0,0.0,0.0,0.0,0.0,0.0,0.0,0.0,0.0,0.0,0.0,0.0,0.0,0.0,0.0,0.0,0.0,0.0,0.0,0.0,0.0,0.0,0.0,0.0,0.0,0.0,0.0,0.0,0.0,0.0,0.0,0.0,0.0,0.0,0.0,0.0,0.0,0.0,0.0,0.0,0.0,0.0,0.0,0.0,0.0,0.0,0.0,0.0,0.0,0.0,0.0,0.0,0.0,0.0,0.0,0.0,0.0,0.0,0.0,0.0,0.0,0.0,0.0,0.0,0.0,0.0,0.0,0.0,0.0,0.0,0.0,0.0,0.0,0.0,0.0,0.0,0.0,0.0,0.0,0.0,0.0,0.0,0.0,0.0,0.0,0.0,0.0,0.0,0.0,0.0,0.0,0.0,0.0,0.0,0.0,0.0,0.0,0.0,0.0,0.0,0.0,0.0,0.0,0.0,0.0,0.0,0.0,0.0,0.0,0.0,0.0,0.0,0.0,0.0,0.0,0.0,0.0,0.0,0.0,0.0,0.0,0.0,0.0,0.0,0.0,0.0,0.0,0.0,0.0,0.0,0.0,0.0,0.0,0.0,0.0,0.0,0.0,0.0,0.0,0.0,0.0,0.0,0.0,0.0,0.0,0.0,0.0,0.0,0.0,0.0,0.0,0.0,0.0,0.0,0.0,0.0,0.0,0.0,0.0,0.0,0.0,0.0,0.0,0.0,0.0,0.0,0.0,0.0,0.0,0.0,0.0,0.0,0.0,0.0,0.0,0.0,0.0,0.0,0.0,0.0,0.0,0.0,0.0,0.0,0.0,0.0,0.0,0.0,0.0,0.0,0.0,0.0,0.0,0.0,0.0,0.0,0.0,0.0,0.0,0.0,0.0,0.0,0.0,0.0,0.0,0.0,0.0,0.0,0.0,0.0,0.0,0.0,0.0,0.0,0.0,0.0,0.0,0.0,0.0,0.0,0.0,0.0,0.0,0.0,0.0,0.0,0.0,0.0,0.0,0.0,0.0,0.0,0.0,0.0,0.0,0.0,0.0,0.0,0.0,0.0,0.0,0.0,0.0,0.0,0.0,0.0,0.0,0.0,0.0,0.0,0.0,0.0,0.0,0.0,0.0,0.0,0.0,0.0,0.0,0.0,0.0,0.0,0.0,0.0,0.0,0.0,0.0,0.0,0.0,0.0,0.0,0.0,0.0,0.0,0.0,0.0,0.0,0.0,0.0,0.0,0.0,0.0,0.0,0.0,0.0,0.0,0.0,0.0,0.0,0.0,0.0,0.0,0.0,0.0,0.0,0.0,0.0,0.0,0.0,0.0,0.0,0.0,0.0,0.0,0.0,0.0,0.0,0.0,0.0,0.0,0.0,0.0,0.0,0.0,0.0,0.0,0.0,0.0,0.0,0.0,0.0,0.0,0.0,0.0,0.0,0.0,0.0,0.0,0.0,0.0,0.0,0.0,0.0,0.0,0.0,0.0,0.0,0.0,0.0,0.0,0.0,0.0,0.0,0.0,0.0,0.0,0.0,0.0,0.0,0.0,0.0,0.0,0.0,0.0,0.0,0.0,0.0,0.0,0.0,0.0,0.0,0.0,0.0,0.0,0.0,0.0,0.0,0.0,0.0,0.0,0.0,0.0,0.0,0.0,0.0,0.0,0.0,0.0,0.0,0.0,0.0,0.0,0.0,0.0,0.0,0.0,0.0,0.0,0.0,0.0,0.0,0.0,0.0,0.0,0.0,0.0,0.0,0.0,0.0,0.0,0.0,0.0,0.0,0.0,0.0,0.0,0.0,0.0,0.0,0.0,0.0,0.0,0.0,0.0,0.0,0.0,0.0,0.0,0.0,0.0,0.0,0.0,0.0,0.0,0.0,0.0,0.0,0.0,0.0,0.0,0.0,0.0,0.0,0.0,0.0,0.0,0.0,0.0,0.0,0.0,0.0,0.0,0.0,0.0,0.0,0.0,0.0,0.0,0.0,0.0,0.0,0.0,0.0,0.0,0.0,0.0,0.0,0.0,0.0,0.0,0.0,0.0,0.0,0.0,0.0,0.0,0.0,0.0,0.0,0.0,0.0,0.0,0.0,0.0,0.0,0.0,0.0,0.0,0.0,0.0,0.0,0.0,0.0,0.0,0.0,0.0,0.0,0.0,0.0,0.0,0.0,0.0,0.0,0.0,0.0,0.0,0.0,0.0,0.0,0.0,0.0,0.0,0.0,0.0,0.0,0.0,0.0,0.0,0.0,0.0,0.0,0.0,0.0,0.0,0.0,0.0,0.0,0.0,0.0,0.0,0.0,0.0,0.0,0.0,0.0,0.0,0.0,0.0,0.0,0.0,0.0,0.0,0.0,0.0,0.0,0.0,0.0,0.0,0.0,0.0,0.0,0.0,0.0,0.0,0.0,0.0,0.0,0.0,0.0,0.0,0.0,0.0,0.0,0.0,0.0,0.0,0.0,0.0,0.0,0.0,0.0,0.0,0.0,0.0,0.0,0.0,0.0,0.0,0.0,0.0,0.0,0.0,0.0,0.0,0.0,0.0,0.0,0.0,0.0,0.0,0.0,0.0,0.0,0.0,0.0,0.0,0.0,0.0,0.0,0.0,0.0,0.0,0.0,0.0,0.0,0.0,0.0,0.0,0.0,0.0,0.0,0.0,0.0,0.0,0.0,0.0,0.0,0.0,0.0,0.0,0.0,0.0,0.0,0.0,0.0,0.0,0.0,0.0,0.0,0.0,0.0,0.0,0.0,0.0,0.0,0.0,0.0,0.0,0.0,0.0,0.0,0.0,0.0,0.0,0.0,0.0,0.0,0.0,0.0,0.0,0.0,0.0,0.0,0.0,0.0,0.0,0.0,0.0,0.0,0.0,0.0,0.0,0.0,0.0,0.0,0.0,0.0,0.0,0.0,0.0,0.0,0.0,0.0,0.0,0.0,0.0,0.0,0.0,0.0,0.0,0.0,0.0,0.0,0.0,0.0,0.0,0.0,0.0,0.0,0.0,0.0,0.0,0.0,0.0,0.0,0.0,0.0,0.0,0.0,0.0,0.0,0.0,0.0,0.0,0.0,0.0,0.0,0.0,0.0,0.0,0.0,0.0,0.0,0.0,0.0,0.0,0.0,0.0,0.0,0.0,0.0,0.0,0.0,0.0,0.0,0.0,0.0,0.0,0.0,0.0,0.0,0.0,0.0,0.0,0.0,0.0,0.0,0.0,0.0,0.0,0.0,-4.7962,0.0,0.0,0.0,0.0,0.0,0.0,0.0,0.0,0.0,0.0,0.0,0.0,0.0,0.0,0.0,0.0,0.0,0.0,0.0,0.0,0.0,0.0,0.0,0.0,0.0,0.0,0.0,0.0,0.0,0.0,0.0,0.0,0.0,0.0,0.0,0.0,0.0,0.0,0.0,0.0,0.0,0.0,0.0,0.0,0.0,0.0,0.0,0.0,0.0,0.0,0.0,0.0,0.0,0.0,0.0,0.0,0.0,0.0,0.0,0.0,0.0,0.0,0.0,0.0,0.0,0.0,0.0,0.0,0.0,0.0,0.0,0.0,0.0,0.0,0.0,0.0,0.0,0.0,0.0,0.0,0.0,0.0,0.0,0.0,0.0,0.0,0.0,0.0,0.0,0.0,0.0,0.0,0.0,0.0,0.0,0.0,0.0,0.0,0.0,0.0,0.0,0.0,0.0,0.0,0.0,0.0,0.0,0.0,0.0,0.0,-4.9018,-4.8984,-4.8277,-4.7733,-4.7293,0.0,0.0,0.0,0.0,0.0,0.0,0.0,0.0,0.0,0.0,0.0,0.0,0.0,0.0,0.0,0.0,0.0,0.0,0.0,0.0,0.0,0.0,0.0,0.0,0.0,0.0,0.0,0.0,0.0,0.0,0.0,0.0,0.0,0.0,0.0,0.0,0.0,0.0,0.0,0.0,0.0,0.0,0.0,0.0,0.0,0.0,0.0,0.0,0.0,0.0,0.0,0.0,0.0,0.0,0.0,0.0,0.0,0.0,0.0,0.0,0.0,0.0,0.0,0.0,0.0,0.0,0.0,0.0,0.0,0.0,0.0,0.0,0.0,0.0,0.0,0.0,0.0,0.0,0.0,0.0,0.0,0.0,0.0,0.0,0.0,0.0,0.0,0.0,0.0,0.0,0.0,0.0,0.0,0.0,0.0,0.0,0.0,0.0,0.0,0.0,0.0,0.0,0.0,0.0,0.0,0.0,0.0,0.0,0.0,0.0,0.0,0.0,-4.8206,-4.7496,-4.6549,0.0,0.0,0.0,0.0,0.0,0.0,0.0,0.0,0.0,0.0,0.0,0.0,0.0,0.0,0.0,0.0,0.0,0.0,0.0,0.0,0.0,0.0,0.0,0.0,0.0,0.0,0.0,0.0,0.0,0.0,0.0,0.0,0.0,0.0,0.0,0.0,0.0,0.0,0.0,0.0,0.0,0.0,0.0,0.0,0.0,0.0,0.0,0.0,0.0,0.0,0.0,0.0,0.0,0.0,0.0,0.0,0.0,0.0,0.0,0.0,0.0,0.0,0.0,0.0,0.0,0.0,0.0,0.0,0.0,0.0,0.0,0.0,0.0,0.0,0.0,0.0,0.0,0.0,0.0,0.0,0.0,0.0,0.0,0.0,0.0,0.0,0.0,0.0,0.0,0.0,0.0,0.0,0.0,0.0,0.0,0.0,0.0,0.0,0.0,0.0,0.0,0.0,0.0,0.0,0.0,0.0,0.0,0.0,0.0,0.0,-4.868,-4.8037,-4.7906,0.0,-4.5872,0.0,0.0,0.0,0.0,0.0,0.0,0.0,0.0,0.0,0.0,0.0,0.0,0.0,0.0,0.0,0.0,0.0,0.0,0.0,0.0,0.0,0.0,0.0,0.0,0.0,0.0,0.0,0.0,0.0,0.0,0.0,0.0,0.0,0.0,0.0,0.0,0.0,0.0,0.0,0.0,0.0,0.0,0.0,0.0,0.0,0.0,0.0,0.0,0.0,0.0,0.0,0.0,0.0,0.0,0.0,0.0,0.0,0.0,0.0,0.0,0.0,0.0,0.0,0.0,0.0,0.0,0.0,0.0,0.0,0.0,0.0,0.0,0.0,0.0,0.0,0.0,0.0,0.0,0.0,0.0,0.0,0.0,0.0,0.0,0.0,0.0,0.0,0.0,0.0,0.0,0.0,0.0,0.0,0.0,0.0,0.0,0.0,0.0,0.0,0.0,0.0,0.0,0.0,0.0,0.0,0.0,0.0,0.0,0.0,0.0,-4.8176,-4.7906,-4.7462,-4.6752,0.0,0.0,0.0,0.0,0.0,0.0,0.0,0.0,0.0,0.0,0.0,0.0,0.0,0.0,0.0,0.0,0.0,0.0,0.0,0.0,0.0,0.0,0.0,0.0,0.0,0.0,0.0,0.0,0.0,0.0,0.0,0.0,0.0,0.0,0.0,0.0,0.0,0.0,0.0,0.0,0.0,0.0,0.0,0.0,0.0,0.0,0.0,0.0,0.0,0.0,0.0,0.0,0.0,0.0,0.0,0.0,0.0,0.0,0.0,0.0,0.0,0.0,0.0,0.0,0.0,0.0,0.0,0.0,0.0,0.0,0.0,0.0,0.0,0.0,0.0,0.0,0.0,0.0,0.0,0.0,0.0,0.0,0.0,0.0,0.0,0.0,0.0,0.0,0.0,0.0,0.0,0.0,0.0,0.0,0.0,0.0,0.0,0.0,0.0,0.0,0.0,0.0,0.0,0.0,0.0,0.0,0.0,0.0,0.0,0.0,-4.8206,-4.8206,-4.8142,-4.7293,-4.6549,-4.6007,0.0,0.0,0.0,0.0,0.0,0.0,0.0,0.0,0.0,0.0,0.0,0.0,0.0,0.0,0.0,0.0,0.0,0.0,0.0,0.0,0.0,0.0,0.0,0.0,0.0,0.0,0.0,0.0,0.0,0.0,0.0,0.0,0.0,0.0,0.0,0.0,0.0,0.0,0.0,0.0,0.0,0.0,0.0,0.0,0.0,0.0,0.0,0.0,0.0,0.0,0.0,0.0,0.0,0.0,0.0,0.0,0.0,0.0,0.0,0.0,0.0,0.0,0.0,0.0,0.0,0.0,0.0,0.0,0.0,0.0,0.0,0.0,0.0,0.0,0.0,0.0,0.0,0.0,0.0,0.0,0.0,0.0,0.0,0.0,0.0,0.0,0.0,0.0,0.0,0.0,0.0,0.0,0.0,0.0,0.0,0.0,0.0,0.0,0.0,0.0,0.0,0.0,0.0,0.0,0.0,0.0,0.0,0.0,-4.8951,-4.8951,-4.8951,-4.8917,-4.753,-4.6786,0.0,0.0,0.0,0.0,0.0,0.0,0.0,0.0,0.0,0.0,0.0,0.0,0.0,0.0,0.0,0.0,0.0,0.0,0.0,0.0,0.0,0.0,0.0,0.0,0.0,0.0,0.0,0.0,0.0,0.0,0.0,0.0,0.0,0.0,0.0,0.0,0.0,0.0,0.0,0.0,0.0,0.0,0.0,0.0,0.0,0.0,0.0,0.0,0.0,0.0,0.0,0.0,0.0,0.0,0.0,0.0,0.0,0.0,0.0,0.0,0.0,0.0,0.0,0.0,0.0,0.0,0.0,0.0,0.0,0.0,0.0,0.0,0.0,0.0,0.0,0.0,0.0,0.0,0.0,0.0,0.0,0.0,0.0,0.0,0.0,0.0,0.0,0.0,0.0,0.0,0.0,0.0,0.0,0.0,0.0,0.0,0.0,0.0,0.0,0.0,0.0,0.0,0.0,0.0,0.0,0.0,0.0,0.0,0.0,-4.8308,-4.8308,-4.8545,-4.8951,-4.8037,-4.7466,0.0,0.0,0.0,0.0,0.0,0.0,0.0,0.0,0.0,0.0,0.0,0.0,0.0,0.0,0.0,0.0,0.0,0.0,0.0,0.0,0.0,0.0,0.0,0.0,0.0,0.0,0.0,0.0,0.0,0.0,0.0,0.0,0.0,0.0,0.0,0.0,0.0,0.0,0.0,0.0,0.0,0.0,0.0,0.0,0.0,0.0,0.0,0.0,0.0,0.0,0.0,0.0,0.0,0.0,0.0,0.0,0.0,0.0,0.0,0.0,0.0,0.0,0.0,0.0,0.0,0.0,0.0,0.0,0.0,0.0,0.0,0.0,0.0,0.0,0.0,0.0,0.0,0.0,0.0,0.0,0.0,0.0,0.0,0.0,0.0,0.0,0.0,0.0,0.0,0.0,0.0,0.0,0.0,0.0,0.0,0.0,0.0,0.0,0.0,0.0,0.0,0.0,0.0,0.0,0.0,0.0,0.0,0.0,0.0,-4.8244,0.0,-4.8511,-4.8951,-4.8545,-4.8139,0.0,0.0,0.0,0.0,0.0,0.0,0.0,0.0,0.0,0.0,0.0,0.0,0.0,0.0,0.0,0.0,0.0,0.0,0.0,0.0,0.0,0.0,0.0,0.0,0.0,0.0,0.0,0.0,0.0,0.0,0.0,0.0,0.0,0.0,0.0,0.0,0.0,0.0,0.0,0.0,0.0,0.0,0.0,0.0,0.0,0.0,0.0,0.0,0.0,0.0,0.0,0.0,0.0,0.0,0.0,0.0,0.0,0.0,0.0,0.0,0.0,0.0,0.0,0.0,0.0,0.0,0.0,0.0,0.0,0.0,0.0,0.0,0.0,0.0,0.0,0.0,0.0,0.0,0.0,0.0,0.0,0.0,0.0,0.0,0.0,0.0,0.0,0.0,0.0,0.0,0.0,0.0,0.0,0.0,0.0,0.0,0.0,0.0,0.0,0.0,0.0,0.0,0.0,0.0,0.0,0.0,0.0,0.0,-4.8984,-4.8984,-4.8984,-4.8984,-4.9018,-4.8984,-4.868,0.0,0.0,0.0,0.0,0.0,0.0,0.0,0.0,0.0,0.0,0.0,0.0,0.0,0.0,0.0,0.0,0.0,0.0,0.0,0.0,0.0,0.0,0.0,0.0,0.0,0.0,0.0,0.0,0.0,0.0,0.0,0.0,0.0,0.0,0.0,0.0,0.0,0.0,0.0,0.0,0.0,0.0,0.0,0.0,0.0,0.0,0.0,0.0,0.0,0.0,0.0,0.0,0.0,0.0,0.0,0.0,0.0,0.0,0.0,0.0,0.0,0.0,0.0,0.0,0.0,0.0,0.0,0.0,0.0,0.0,0.0,0.0,0.0,0.0,0.0,0.0,0.0,0.0,0.0,0.0,0.0,0.0,0.0,0.0,0.0,0.0,0.0,0.0,0.0,0.0,0.0,0.0,0.0,0.0,0.0,0.0,0.0,0.0,0.0,0.0,0.0,0.0,0.0,0.0,0.0,0.0,0.0,0.0,0.0,-4.9018,-4.9018,-4.9255,-4.9729,-4.9255,-4.912,0.0,0.0,0.0,0.0,0.0,0.0,0.0,0.0,0.0,0.0,0.0,0.0,0.0,0.0,0.0,0.0,0.0,0.0,0.0,0.0,0.0,0.0,0.0,0.0,0.0,0.0,0.0,0.0,0.0,0.0,0.0,0.0,0.0,0.0,0.0,0.0,0.0,0.0,0.0,0.0,0.0,0.0,0.0,0.0,0.0,0.0,0.0,0.0,0.0,0.0,0.0,0.0,0.0,0.0,0.0,0.0,0.0,0.0,0.0,0.0,0.0,0.0,0.0,0.0,0.0,0.0,0.0,0.0,0.0,0.0,0.0,0.0,0.0,0.0,0.0,0.0,0.0,0.0,0.0,0.0,0.0,0.0,0.0,0.0,0.0,0.0,0.0,0.0,0.0,0.0,0.0,0.0,0.0,0.0,0.0,0.0,0.0,0.0,0.0,0.0,0.0,0.0,0.0,0.0,0.0,0.0,0.0,0.0,0.0,-5.0236,-4.9965,-5.0033,-5.0507,-5.0067,-4.9763,-4.9661,0.0,0.0,0.0,0.0,0.0,0.0,0.0,0.0,0.0,0.0,0.0,0.0,0.0,0.0,0.0,0.0,0.0,0.0,0.0,0.0,0.0,0.0,0.0,0.0,0.0,0.0,0.0,0.0,0.0,0.0,0.0,0.0,0.0,0.0,0.0,0.0,0.0,0.0,0.0,0.0,0.0,0.0,0.0,0.0,0.0,0.0,0.0,0.0,0.0,0.0,0.0,0.0,0.0,0.0,0.0,0.0,0.0,0.0,0.0,0.0,0.0,0.0,0.0,0.0,0.0,0.0,0.0,0.0,0.0,0.0,0.0,0.0,0.0,0.0,0.0,0.0,0.0,0.0,0.0,0.0,0.0,0.0,0.0,0.0,0.0,0.0,0.0,0.0,0.0,0.0,0.0,0.0,0.0,0.0,0.0,0.0,0.0,0.0,0.0,0.0,0.0,0.0,0.0,0.0,0.0,0.0,0.0,0.0,-5.2536,-5.1894,-5.1557,-5.1522,-5.1352,-5.0608,0.0,0.0,0.0,0.0,0.0,0.0,0.0,0.0,0.0,0.0,0.0,0.0,0.0,0.0,0.0,0.0,0.0,0.0,0.0,0.0,0.0,0.0,0.0,0.0,0.0,0.0,0.0,0.0,0.0,0.0,0.0,0.0,0.0,0.0,0.0,0.0,0.0,0.0,0.0,0.0,0.0,0.0,0.0,0.0,0.0,0.0,0.0,0.0,0.0,0.0,0.0,0.0,0.0,0.0,0.0,0.0,0.0,0.0,0.0,0.0,0.0,0.0,0.0,0.0,0.0,0.0,0.0,0.0,0.0,0.0,0.0,0.0,0.0,0.0,0.0,0.0,0.0,0.0,0.0,0.0,0.0,0.0,0.0,0.0,0.0,0.0,0.0,0.0,0.0,0.0,0.0,0.0,0.0,0.0,0.0,0.0,0.0,0.0,0.0,0.0,0.0,0.0,0.0,0.0,0.0,0.0,0.0,0.0,0.0,-5.3991,-5.5378,-5.5649,-5.4532,-5.2909,-5.1826,0.0,0.0,0.0,0.0,0.0,0.0,0.0,0.0,0.0,0.0,0.0,0.0,0.0,0.0,0.0,0.0,0.0,0.0,0.0,0.0,0.0,0.0,0.0,0.0,0.0,0.0,0.0,0.0,0.0,0.0,0.0,0.0,0.0,0.0,0.0,0.0,0.0,0.0,0.0,0.0,0.0,0.0,0.0,0.0,0.0,0.0,0.0,0.0,0.0,0.0,0.0,0.0,0.0,0.0,0.0,0.0,0.0,0.0,0.0,0.0,0.0,0.0,0.0,0.0,0.0,0.0,0.0,0.0,0.0,0.0,0.0,0.0,0.0,0.0,0.0,0.0,0.0,0.0,0.0,0.0,0.0,0.0,0.0,0.0,0.0,0.0,0.0,0.0,0.0,0.0,0.0,0.0,0.0,0.0,0.0,0.0,0.0,0.0,0.0,0.0,0.0,0.0,0.0,0.0,0.0,0.0,0.0,0.0,-5.416,-5.5074,-5.7848,-5.893,-5.8084,-5.5243,-5.3281,0.0,0.0,0.0,0.0,0.0,0.0,0.0,0.0,0.0,0.0,0.0,0.0,0.0,0.0,0.0,0.0,0.0,0.0,0.0,0.0,0.0,0.0,0.0,0.0,0.0,0.0,0.0,0.0,0.0,0.0,0.0,0.0,0.0,0.0,0.0,0.0,0.0,0.0,0.0,0.0,0.0,0.0,0.0,0.0,0.0,0.0,0.0,0.0,0.0,0.0,0.0,0.0,0.0,0.0,0.0,0.0,0.0,0.0,0.0,0.0,0.0,0.0,0.0,0.0,0.0,0.0,0.0,0.0,0.0,0.0,0.0,0.0,0.0,0.0,0.0,0.0,0.0,0.0,0.0,0.0,0.0,0.0,0.0,0.0,0.0,0.0,0.0,0.0,0.0,0.0,0.0,0.0,0.0,0.0,0.0,0.0,0.0,0.0,0.0,0.0,0.0,0.0,0.0,0.0,0.0,0.0,0.0,0.0,-5.5749,-5.5987,-5.9539,-6.14,-6.126,-5.7676,-5.4735,0.0,0.0,0.0,0.0,0.0,0.0,0.0,0.0,0.0,0.0,0.0,0.0,0.0,0.0,0.0,0.0,0.0,0.0,0.0,0.0,0.0,0.0,0.0,0.0,0.0,0.0,0.0,0.0,0.0,0.0,0.0,0.0,0.0,0.0,0.0,0.0,0.0,0.0,0.0,0.0,0.0,0.0,0.0,0.0,0.0,0.0,0.0,0.0,0.0,0.0,0.0,0.0,0.0,0.0,0.0,0.0,0.0,0.0,0.0,0.0,0.0,0.0,0.0,0.0,0.0,0.0,0.0,0.0,0.0,0.0,0.0,0.0,0.0,0.0,0.0,0.0,0.0,0.0,0.0,0.0,0.0,0.0,0.0,0.0,0.0,0.0,0.0,0.0,0.0,0.0,0.0,0.0,0.0,0.0,0.0,0.0,0.0,0.0,0.0,0.0,0.0,0.0,0.0,0.0,0.0,0.0,0.0,0.0,-5.6292,-5.7442,-6.052,-6.2066,-6.184,-5.7839,-5.5209,0.0,0.0,0.0,0.0,0.0,0.0,0.0,0.0,0.0,0.0,0.0,0.0,0.0,0.0,0.0,0.0,0.0,0.0,0.0,0.0,0.0,0.0,0.0,0.0,0.0,0.0,0.0,0.0,0.0,0.0,0.0,0.0,0.0,0.0,0.0,0.0,0.0,0.0,0.0,0.0,0.0,0.0,0.0,0.0,0.0,0.0,0.0,0.0,-4.5211,0.0,0.0,0.0,0.0,0.0,0.0,0.0,0.0,0.0,0.0,0.0,0.0,0.0,0.0,0.0,0.0,0.0,0.0,0.0,0.0,0.0,0.0,0.0,0.0,0.0,0.0,0.0,0.0,0.0,0.0,0.0,0.0,0.0,0.0,0.0,0.0,0.0,0.0,0.0,0.0,0.0,0.0,0.0,0.0,0.0,0.0,0.0,0.0,0.0,0.0,0.0,0.0,0.0,0.0,0.0,0.0,0.0,0.0,0.0,-5.6284,-5.7769,-6.0593,-6.1991,-6.1776,-5.8354,-5.5938,0.0,0.0,0.0,0.0,0.0,0.0,0.0,0.0,0.0,0.0,0.0,0.0,0.0,0.0,0.0,0.0,0.0,0.0,0.0,0.0,0.0,0.0,0.0,0.0,0.0,0.0,0.0,0.0,0.0,0.0,0.0,0.0,0.0,0.0,0.0,0.0,0.0,0.0,0.0,0.0,0.0,0.0,0.0,0.0,0.0,0.0,0.0,0.0,0.0,0.0,0.0,0.0,0.0,0.0,0.0,0.0,0.0,0.0,0.0,0.0,0.0,0.0,0.0,0.0,0.0,0.0,0.0,0.0,0.0,0.0,0.0,0.0,0.0,0.0,0.0,0.0,0.0,0.0,0.0,0.0,0.0,0.0,0.0,0.0,0.0,0.0,0.0,0.0,0.0,0.0,0.0,0.0,0.0,0.0,0.0,0.0,0.0,0.0,0.0,0.0,0.0,0.0,0.0,0.0,0.0,0.0,0.0,-5.4223,-5.6337,-5.8085,-6.0549,-6.1769,-6.1635,-5.912,-5.6947,-5.5241,0.0,0.0,0.0,0.0,0.0,0.0,0.0,0.0,0.0,0.0,0.0,0.0,0.0,0.0,0.0,0.0,0.0,0.0,0.0,0.0,0.0,0.0,0.0,0.0,0.0,0.0,0.0,0.0,0.0,0.0,0.0,0.0,0.0,0.0,0.0,0.0,0.0,0.0,-4.8783,-4.8067,0.0,0.0,0.0,0.0,0.0,0.0,0.0,0.0,-4.4618,0.0,0.0,0.0,0.0,0.0,0.0,0.0,0.0,0.0,0.0,0.0,0.0,0.0,0.0,0.0,0.0,0.0,0.0,0.0,0.0,0.0,0.0,0.0,0.0,0.0,0.0,0.0,0.0,0.0,0.0,0.0,0.0,0.0,0.0,0.0,0.0,0.0,0.0,0.0,0.0,0.0,0.0,0.0,0.0,0.0,0.0,0.0,0.0,0.0,0.0,0.0,0.0,0.0,0.0,0.0,0.0,-5.3752,-5.5324,-5.7394,-6.0041,-6.1743,-6.2264,-6.1499,-6.0398,-5.8447,-5.5601,0.0,0.0,0.0,0.0,0.0,0.0,0.0,0.0,0.0,0.0,0.0,0.0,0.0,0.0,0.0,0.0,0.0,0.0,0.0,0.0,0.0,0.0,0.0,0.0,0.0,0.0,0.0,0.0,0.0,0.0,0.0,0.0,0.0,0.0,0.0,0.0,0.0,0.0,0.0,-4.6716,-4.5987,0.0,0.0,0.0,0.0,0.0,0.0,0.0,0.0,-4.5424,0.0,0.0,0.0,0.0,0.0,0.0,0.0,0.0,0.0,0.0,0.0,0.0,0.0,0.0,0.0,0.0,0.0,0.0,0.0,0.0,0.0,0.0,0.0,0.0,0.0,0.0,0.0,0.0,0.0,0.0,0.0,0.0,0.0,0.0,0.0,0.0,0.0,0.0,0.0,0.0,0.0,0.0,0.0,0.0,0.0,0.0,0.0,0.0,0.0,0.0,0.0,0.0,0.0,0.0,0.0,-5.4759,-5.6014,-5.7835,-6.0378,-6.1424,-6.17,-6.1252,-5.979,-5.7957,0.0,0.0,0.0,0.0,0.0,0.0,0.0,0.0,0.0,0.0,0.0,0.0,0.0,0.0,0.0,0.0,0.0,0.0,0.0,0.0,0.0,0.0,0.0,0.0,0.0,0.0,0.0,0.0,0.0,0.0,0.0,0.0,0.0,0.0,0.0,0.0,0.0,0.0,0.0,0.0,-4.7374,-4.6937,-4.714,0.0,0.0,0.0,0.0,0.0,0.0,-4.5723,-4.5514,0.0,0.0,0.0,0.0,0.0,0.0,0.0,0.0,0.0,0.0,0.0,0.0,0.0,0.0,0.0,0.0,0.0,0.0,0.0,0.0,0.0,0.0,0.0,0.0,0.0,0.0,0.0,0.0,0.0,0.0,0.0,0.0,0.0,0.0,0.0,0.0,0.0,0.0,0.0,0.0,0.0,0.0,0.0,0.0,0.0,0.0,0.0,0.0,0.0,0.0,0.0,0.0,0.0,0.0,0.0,-5.5425,-5.6596,-5.8241,-6.037,-6.1003,-6.1251,-6.1086,-5.9098,-5.7342,0.0,0.0,0.0,0.0,0.0,0.0,0.0,0.0,0.0,0.0,0.0,0.0,0.0,0.0,0.0,0.0,0.0,0.0,0.0,0.0,0.0,0.0,0.0,0.0,0.0,0.0,0.0,0.0,0.0,0.0,0.0,0.0,0.0,0.0,0.0,0.0,0.0,0.0,0.0,0.0,0.0,-4.8098,-4.8133,-4.7061,0.0,0.0,0.0,0.0,-4.5975,-4.6232,0.0,0.0,0.0,0.0,0.0,0.0,0.0,0.0,0.0,0.0,0.0,0.0,0.0,0.0,0.0,0.0,0.0,0.0,0.0,0.0,0.0,0.0,0.0,0.0,0.0,0.0,0.0,0.0,0.0,0.0,0.0,0.0,0.0,0.0,0.0,0.0,0.0,0.0,0.0,0.0,0.0,0.0,0.0,0.0,0.0,0.0,0.0,0.0,0.0,0.0,0.0,0.0,0.0,0.0,0.0,0.0,-5.5792,-5.7066,-5.8774,-6.0929,-6.1724,-6.1748,-6.1119,-5.9595,-5.8071,0.0,0.0,0.0,0.0,0.0,0.0,0.0,0.0,0.0,0.0,0.0,0.0,0.0,0.0,0.0,0.0,0.0,0.0,0.0,0.0,0.0,0.0,0.0,0.0,0.0,0.0,0.0,0.0,0.0,0.0,0.0,0.0,0.0,0.0,0.0,0.0,0.0,0.0,0.0,0.0,0.0,-4.8049,-4.8494,-4.7865,-4.7117,0.0,0.0,-4.8862,-4.8071,-4.9404,0.0,0.0,0.0,0.0,0.0,0.0,0.0,0.0,0.0,0.0,0.0,0.0,0.0,0.0,0.0,0.0,0.0,0.0,0.0,0.0,0.0,0.0,0.0,0.0,0.0,0.0,0.0,0.0,0.0,0.0,0.0,0.0,0.0,0.0,0.0,0.0,0.0,0.0,0.0,0.0,0.0,0.0,0.0,0.0,0.0,0.0,0.0,0.0,0.0,0.0,0.0,0.0,0.0,0.0,0.0,-5.4428,-5.6483,-5.7791,-5.9297,-6.1053,-6.1417,-6.1417,-6.1119,-5.8866,-5.7342,0.0,0.0,0.0,0.0,0.0,0.0,0.0,0.0,0.0,0.0,0.0,0.0,0.0,0.0,0.0,0.0,0.0,0.0,0.0,0.0,0.0,0.0,0.0,0.0,0.0,0.0,0.0,0.0,0.0,0.0,0.0,0.0,0.0,0.0,0.0,0.0,0.0,0.0,0.0,0.0,0.0,0.0,-4.8487,-4.8159,0.0,0.0,0.0,-4.8609,-4.7818,0.0,0.0,0.0,0.0,0.0,0.0,0.0,0.0,0.0,0.0,0.0,0.0,0.0,0.0,0.0,0.0,0.0,0.0,0.0,0.0,0.0,0.0,0.0,0.0,0.0,0.0,0.0,0.0,0.0,0.0,0.0,0.0,0.0,0.0,0.0,0.0,0.0,0.0,0.0,0.0,0.0,0.0,0.0,0.0,0.0,0.0,0.0,0.0,0.0,0.0,0.0,0.0,0.0,0.0,0.0,0.0,0.0,-5.664,-5.815,-5.9628,-6.1053,-6.1119,-6.1119,-6.1053,-5.8403,0.0,0.0,0.0,0.0,0.0,0.0,0.0,0.0,0.0,0.0,0.0,0.0,0.0,0.0,0.0,0.0,0.0,0.0,0.0,0.0,0.0,0.0,0.0,0.0,0.0,0.0,0.0,-4.9194,0.0,0.0,0.0,0.0,0.0,0.0,0.0,0.0,0.0,0.0,0.0,0.0,0.0,0.0,-5.0056,-4.8925,-4.8925,-4.9075,0.0,0.0,-4.8835,-4.8356,-4.9942,-5.0451,0.0,0.0,0.0,0.0,0.0,0.0,0.0,0.0,0.0,0.0,0.0,0.0,0.0,0.0,0.0,0.0,0.0,0.0,0.0,0.0,0.0,0.0,0.0,0.0,0.0,0.0,0.0,0.0,0.0,0.0,0.0,0.0,0.0,0.0,0.0,0.0,0.0,0.0,0.0,0.0,0.0,0.0,0.0,0.0,0.0,0.0,0.0,0.0,0.0,0.0,0.0,0.0,0.0,0.0,-5.5044,-5.5719,-5.7806,-5.9628,-6.1053,-6.1119,-6.1119,-6.1086,-5.8899,-5.7409,0.0,0.0,0.0,0.0,0.0,0.0,0.0,0.0,0.0,0.0,0.0,0.0,0.0,0.0,0.0,0.0,0.0,0.0,0.0,0.0,0.0,0.0,0.0,0.0,0.0,0.0,0.0,0.0,0.0,0.0,0.0,0.0,0.0,0.0,0.0,0.0,0.0,0.0,0.0,0.0,0.0,-5.0472,-5.0122,-5.0584,-5.1229,0.0,-5.1439,-5.099,-5.0913,-5.2606,-5.2845,-4.9689,0.0,0.0,0.0,0.0,0.0,0.0,0.0,0.0,0.0,0.0,0.0,0.0,0.0,0.0,0.0,0.0,0.0,0.0,0.0,0.0,0.0,0.0,0.0,0.0,0.0,0.0,0.0,0.0,0.0,0.0,0.0,0.0,0.0,0.0,0.0,0.0,0.0,0.0,0.0,0.0,0.0,0.0,0.0,0.0,0.0,0.0,0.0,0.0,0.0,0.0,0.0,0.0,0.0,-5.4501,-5.5582,-5.7773,-5.9628,-6.102,-6.1119,-6.1119,-6.1119,-5.8966,-5.7442,0.0,0.0,0.0,0.0,0.0,0.0,0.0,0.0,0.0,0.0,0.0,0.0,0.0,0.0,0.0,0.0,0.0,0.0,0.0,0.0,0.0,0.0,0.0,0.0,0.0,0.0,0.0,0.0,-5.2478,-5.2644,-5.2572,0.0,0.0,0.0,0.0,0.0,0.0,0.0,0.0,0.0,0.0,-5.1134,-5.1607,-5.1391,0.0,0.0,-5.1003,-5.0554,-5.0584,-5.1588,-5.1648,-4.9583,-4.9134,0.0,0.0,0.0,0.0,0.0,0.0,0.0,0.0,0.0,0.0,0.0,0.0,0.0,0.0,0.0,0.0,0.0,0.0,0.0,0.0,0.0,0.0,0.0,0.0,0.0,0.0,0.0,0.0,0.0,0.0,0.0,0.0,0.0,0.0,0.0,0.0,0.0,0.0,0.0,0.0,0.0,0.0,0.0,0.0,0.0,0.0,0.0,0.0,0.0,0.0,0.0,0.0,-5.3981,-5.5166,-5.7343,-5.9152,-6.06,-6.0633,-6.0633,-6.06,-5.8766,-5.7343,0.0,0.0,0.0,0.0,0.0,0.0,0.0,0.0,0.0,0.0,0.0,0.0,0.0,0.0,0.0,0.0,0.0,0.0,0.0,0.0,0.0,0.0,0.0,0.0,0.0,0.0,0.0,0.0,-5.3301,-5.34,-5.34,0.0,0.0,0.0,0.0,0.0,0.0,0.0,0.0,0.0,0.0,-5.1162,-5.1789,-5.1317,-5.0943,-5.1152,-5.0511,-5.0002,-5.0166,-5.0584,-5.0541,-4.9479,0.0,0.0,0.0,0.0,0.0,0.0,0.0,0.0,0.0,0.0,0.0,0.0,0.0,0.0,0.0,0.0,0.0,0.0,0.0,0.0,0.0,0.0,0.0,0.0,0.0,0.0,0.0,-5.2589,0.0,0.0,-5.2868,0.0,0.0,0.0,0.0,0.0,0.0,0.0,0.0,0.0,0.0,0.0,0.0,0.0,0.0,0.0,0.0,0.0,0.0,0.0,0.0,0.0,0.0,-5.3616,-5.4164,-5.6349,-5.8172,-5.9598,-5.9631,-5.9663,-5.9598,-5.8237,-5.7135,-5.6307,0.0,0.0,0.0,0.0,0.0,0.0,0.0,0.0,0.0,0.0,0.0,0.0,0.0,0.0,0.0,0.0,0.0,0.0,0.0,0.0,0.0,0.0,0.0,0.0,0.0,0.0,-5.2542,-5.3003,-5.34,0.0,0.0,0.0,0.0,0.0,0.0,0.0,0.0,0.0,-5.0632,-5.0455,-5.0196,-5.0318,-5.0272,-5.0511,-5.1139,-5.0122,-4.9494,-5.0076,-5.0196,-5.0032,0.0,0.0,0.0,0.0,0.0,0.0,0.0,0.0,0.0,0.0,0.0,0.0,0.0,0.0,0.0,0.0,0.0,0.0,0.0,0.0,0.0,0.0,0.0,0.0,0.0,0.0,0.0,-5.3285,-5.3108,0.0,0.0,0.0,0.0,0.0,0.0,0.0,0.0,0.0,0.0,0.0,-5.4092,-5.4125,0.0,0.0,0.0,0.0,0.0,0.0,0.0,0.0,0.0,0.0,0.0,0.0,-5.3519,-5.5056,-5.6629,-5.8087,-5.9555,-5.8934,-5.8619,-5.8587,-5.83,-5.7191,-5.5166,0.0,0.0,0.0,0.0,0.0,0.0,0.0,0.0,0.0,0.0,0.0,0.0,0.0,0.0,0.0,0.0,0.0,0.0,0.0,0.0,0.0,0.0,0.0,0.0,0.0,-5.3334,0.0,0.0,0.0,0.0,0.0,0.0,0.0,0.0,0.0,0.0,-5.034,-4.9854,-5.0579,-5.0056,-4.996,-5.0983,-5.0623,-5.0435,0.0,0.0,0.0,0.0,0.0,0.0,0.0,0.0,0.0,0.0,0.0,0.0,0.0,0.0,-4.9494,-4.8207,-4.8297,-4.8596,-4.864,0.0,0.0,0.0,0.0,0.0,0.0,0.0,0.0,0.0,0.0,0.0,0.0,0.0,0.0,-5.3775,-5.3434,-5.3665,0.0,0.0,0.0,0.0,0.0,0.0,0.0,0.0,-5.4593,-5.4924,-5.4887,-5.5156,-5.5156,-5.4821,-5.4125,-5.3169,0.0,0.0,0.0,0.0,0.0,0.0,0.0,0.0,-5.3519,-5.5056,-5.6629,-5.8087,-5.9478,-5.8934,-5.8619,-5.8587,-5.8268,-5.6935,-5.4437,-5.3865,-5.3175,0.0,0.0,0.0,0.0,0.0,0.0,0.0,0.0,0.0,0.0,0.0,0.0,0.0,0.0,0.0,0.0,0.0,0.0,0.0,0.0,0.0,0.0,0.0,-5.3463,0.0,0.0,0.0,0.0,0.0,0.0,0.0,0.0,0.0,-5.183,-5.0907,-5.0516,-5.0994,-5.0222,-4.9809,-5.0344,0.0,0.0,0.0,0.0,0.0,0.0,0.0,-4.8237,-4.8027,-4.8356,-4.9015,-5.0092,-5.081,-5.1229,-5.1229,0.0,0.0,-4.9583,-4.9643,-4.9942,-4.9942,-4.9583,-4.9583,-5.0375,-5.0242,-5.0182,0.0,0.0,0.0,0.0,-5.3434,0.0,0.0,0.0,-5.4593,-5.4229,0.0,-5.4262,0.0,0.0,0.0,0.0,-5.35,-5.4162,0.0,0.0,-5.6713,-5.7044,-5.5814,-5.6415,-5.6349,-5.5686,-5.492,-5.4229,-5.3533,-5.287,0.0,0.0,0.0,0.0,0.0,0.0,-5.3616,-5.4268,-5.6298,-5.8044,-5.9446,-5.9455,-5.9411,-5.939,-5.8023,-5.6263,-5.4157,-5.4136,-5.4268,-5.4244,-5.2902,0.0,0.0,0.0,0.0,0.0,0.0,0.0,0.0,0.0,0.0,0.0,0.0,0.0,0.0,0.0,0.0,0.0,0.0,0.0,0.0,-5.34,0.0,0.0,0.0,0.0,0.0,0.0,0.0,0.0,0.0,-5.2509,-5.3284,-5.2448,-5.1859,-5.1736,0.0,0.0,0.0,0.0,-4.8805,-4.7608,-4.7399,-4.7429,-4.7489,-4.7997,-4.8596,-4.9269,0.0,0.0,-5.2097,-5.1738,-5.1439,-5.1379,-5.1977,-5.2097,-5.1498,-5.1319,-5.1289,-5.1289,-5.1289,-5.1319,-5.1319,-5.1468,-5.1468,-5.6614,0.0,0.0,0.0,0.0,-5.4721,-5.5421,-5.6051,-5.6051,-5.5951,-5.5719,-5.5421,0.0,0.0,0.0,0.0,0.0,0.0,-5.509,-5.6084,-5.6713,-5.7342,-5.7939,-5.7641,-5.7376,-5.7144,-5.6415,-5.5951,-5.5752,-5.5554,-5.403,-5.1315,0.0,0.0,0.0,0.0,-5.3754,-5.5824,-5.623,-5.6785,-5.7719,-5.6916,-5.6567,-5.6824,-5.5902,-5.5207,-5.481,-5.3726,-5.3439,-5.4228,-5.3285,0.0,0.0,0.0,0.0,0.0,0.0,0.0,0.0,0.0,0.0,0.0,0.0,0.0,0.0,0.0,0.0,0.0,0.0,0.0,-5.34,-5.34,-5.3301,0.0,0.0,0.0,0.0,0.0,0.0,0.0,0.0,0.0,-5.4121,-5.2391,-5.0673,0.0,0.0,-4.8706,-4.7695,-4.8147,-4.8596,-4.8686,-4.873,0.0,-4.9972,-4.9883,-4.9912,-5.0541,-5.1768,-5.2695,-5.2875,-5.3533,-5.4042,-5.4042,-5.4221,-5.4251,-5.4042,-5.3264,-5.2665,-5.2636,-5.2995,-5.3324,-5.3384,-5.3713,-5.4042,-5.8833,-5.7243,-5.5918,-5.5554,-5.5852,-5.6282,-5.6879,-5.7541,-5.7574,-5.7243,-5.668,-5.6547,-5.5587,-5.4063,-5.4026,0.0,0.0,0.0,-5.6017,-5.7144,-5.774,-5.8336,-5.8866,-5.8734,-5.8502,-5.8237,-5.7773,-5.7409,-5.7111,-5.6547,-5.5189,-5.3036,0.0,-5.1612,-5.2771,-5.3367,-5.4527,-5.6211,-5.6815,-5.7431,-5.8183,-5.7769,-5.7167,-5.6378,-5.6328,-5.597,-5.5198,-5.3895,-5.3487,-5.4127,-5.3385,-5.2817,0.0,0.0,0.0,0.0,0.0,0.0,0.0,0.0,0.0,0.0,0.0,-5.3235,-5.2837,0.0,0.0,0.0,-5.3599,-5.3496,-5.3831,-5.3334,0.0,0.0,0.0,0.0,0.0,0.0,0.0,-5.2605,-5.3732,-5.4378,-5.401,-5.2734,-5.1344,-5.0316,-4.9935,-4.9384,-4.8249,0.0,-4.9105,-4.9299,-4.9299,-4.9569,-5.0301,-5.0331,-5.0584,-5.1828,-5.2636,-5.3414,-5.3922,-5.467,-5.5179,-5.5209,-5.5209,-5.5209,-5.5209,-5.4521,-5.3982,-5.3982,-5.4311,-5.4581,-5.461,-5.491,-5.5209,-6.0688,-5.9926,-5.7906,-5.7376,-5.7873,-5.7939,-5.8336,-5.8966,-5.8966,-5.8204,-5.7011,-5.7608,-5.6382,-5.3864,-5.3864,0.0,-5.588,-5.6547,-5.7276,-5.8005,-5.9396,-5.9694,-5.9098,-5.9694,-5.9661,-5.8999,-5.8933,-5.8535,-5.774,-5.6448,-5.5714,-5.5582,-5.5582,-5.4854,-5.3596,-5.4754,-5.5483,-5.5681,-5.7661,-5.9036,-5.9853,-6.0397,-5.9582,-5.7227,-5.7952,-5.7266,-5.5058,-5.419,-5.3805,-5.3891,-5.3249,-5.2881,-5.2932,0.0,0.0,0.0,0.0,0.0,0.0,0.0,0.0,0.0,0.0,0.0,0.0,0.0,0.0,-5.4051,-5.3761,0.0,-5.449,-5.3367,0.0,0.0,0.0,-5.3629,-5.439,-5.4527,-5.4527,-5.4527,0.0,0.0,-5.3571,-5.3415,-5.3326,-5.3184,-5.2211,-5.1049,-4.9703,-4.9854,-5.0078,-4.9749,-4.9539,-4.9509,-5.005,-5.0333,-5.1199,-5.2755,-5.3174,-5.3593,-5.461,-5.4999,-5.5089,-5.5059,-5.5149,-5.5209,-5.5209,-5.5119,-5.5179,-5.5119,-5.5149,-5.5179,-5.5149,-5.5179,-5.5209,-6.102,-6.0788,-6.0258,-5.9529,-5.8701,-5.9231,-5.9595,-5.9728,-5.9728,-5.9529,-5.9198,-5.88,-5.8237,-5.7608,-5.7608,-5.7773,-5.8104,-5.8303,-5.8767,-5.9496,-5.986,-6.0191,-6.0556,-6.0191,-5.9926,-5.9694,-5.9164,-5.8502,-5.7806,-5.7442,-5.6713,-5.5648,-5.5582,-5.5118,-5.4295,-5.4026,-5.4759,-5.6415,-5.6766,-5.743,-5.848,-5.7516,-5.6461,-5.5374,-5.4344,-5.3285,-5.223,-5.2002,-5.22,-5.2918,-5.2732,-5.2824,-5.3134,-5.2495,0.0,0.0,0.0,0.0,0.0,0.0,0.0,0.0,0.0,-5.1247,-5.0134,0.0,-5.2026,0.0,-5.3004,-5.4523,-5.5251,-5.4523,0.0,0.0,-5.34,-5.3135,-5.4324,-5.4527,-5.4527,-5.4527,-5.4986,-5.5279,-5.5089,-5.5018,-5.4972,-5.4721,-5.2439,-5.0888,-5.1245,-5.0662,-5.0698,-5.1741,-5.1286,-5.1178,-5.217,-5.248,-5.2576,-5.3084,-5.3174,-5.3294,-5.3672,-5.4102,-5.4431,-5.4461,-5.488,-5.5149,-5.5209,-5.5209,-5.5209,-5.5209,-5.5209,-5.5209,-5.5209,-5.5209,-5.5209,-6.1384,-6.1119,-6.1119,-6.0622,-5.9926,-6.0324,-6.049,-6.049,-6.049,-6.0324,-5.996,-5.9231,-5.8899,-5.8899,-5.8899,-5.8899,-5.8933,-5.9231,-5.9628,-5.9993,-6.0324,-6.0721,-6.1086,-6.0688,-6.049,-6.049,-6.0059,-5.9496,-5.88,-5.8436,-5.7873,-5.7077,-5.6746,-5.6382,-5.5951,-5.4556,-5.4527,-5.5719,-5.6533,-5.7576,-5.8672,-5.7994,-5.6765,-5.4982,-5.4455,-5.3396,-5.1716,-5.1611,-5.1654,-5.1783,-5.1783,-5.1526,-5.1059,-5.0779,-4.9955,0.0,0.0,0.0,0.0,0.0,0.0,0.0,0.0,0.0,0.0,0.0,-5.2197,-5.1634,-5.3379,-5.4655,-5.5052,-5.446,-5.4295,-5.492,-5.4295,-5.4262,-5.5355,-5.5487,-5.5487,-5.5487,-5.5852,-5.6117,-5.6084,-5.5704,-5.5601,-5.5843,-5.3691,-5.2246,-5.2702,-5.2287,-5.214,-5.271,-5.227,-5.194,-5.2519,-5.2416,-5.2426,-5.2665,-5.2725,-5.2845,-5.3114,-5.3473,-5.3832,-5.4162,-5.4521,-5.488,-5.5119,-5.5209,-5.5209,-5.5209,-5.5209,-5.5209,-5.5209,-5.5209,-5.5209,-6.1682,-6.1119,-6.1119,-6.1119,-6.1119,-6.1119,-6.1119,-6.1119,-6.1119,-6.0755,-6.0125,-5.9463,-5.9164,-5.9164,-5.9198,-5.9164,-5.9231,-5.986,-6.0158,-6.0191,-6.0821,-6.1119,-6.1119,-6.1119,-6.1119,-6.1119,-6.1119,-6.0721,-5.9993,-5.9363,-5.8933,-5.8734,-5.8138,-5.774,-5.7574,-5.5752,-5.4792,-5.4825,-5.6879,-5.8469,-5.948,-5.9365,-5.791,-5.5186,-5.562,-5.4671,-5.2004,-5.1901,-5.1485,-5.056,-5.0583,-5.0134,-4.8984,-4.9013,-4.8825,0.0,-4.7709,0.0,0.0,0.0,0.0,0.0,0.0,0.0,0.0,-5.2015,-5.2419,-5.3284,-5.4055,-5.4593,-5.4792,-5.4195,-5.4361,-5.5549,-5.5714,-5.6017,-5.6614,-5.668,-5.668,-5.668,-5.668,-5.668,-5.6647,-5.5948,-5.5829,-5.6375,-5.5361,-5.4358,-5.4327,-5.3913,-5.3396,-5.2931,-5.274,-5.223,-5.1539,-5.1259,-5.1468,-5.1947,-5.2067,-5.2276,-5.2755,-5.3084,-5.3384,-5.3922,-5.4251,-5.4581,-5.5089,-5.5209,-5.5209,-5.5209,-5.5209,-5.5209,-5.5209,-5.5209,-5.5209,-6.1218,-6.1119,-6.1119,-6.1119,-6.1119,-6.1119,-6.1119,-6.1119,-6.1119,-6.1053,-6.0887,-6.0755,-6.0688,-6.0688,-6.0688,-6.0688,-6.0688,-6.0821,-6.0887,-6.092,-6.1053,-6.1119,-6.1119,-6.1119,-6.1119,-6.1119,-6.1119,-6.0721,-5.9993,-5.986,-5.9198,-5.8038,-5.7873,-5.7475,-5.6912,0.0,0.0,0.0,-5.7873,-5.8819,-5.8954,-5.662,-5.5109,-5.4422,-5.2756,0.0,-5.0102,-5.0605,-5.0344,-4.9068,-4.9449,0.0,0.0,0.0,0.0,0.0,0.0,0.0,0.0,0.0,0.0,0.0,-5.1778,-5.152,-5.0373,-5.0292,-5.1089,-5.3032,-5.4015,-5.499,-5.615,-5.6183,-5.6183,-5.6448,-5.6481,-5.6547,-5.668,-5.668,-5.668,-5.668,-5.668,-5.668,-5.668,-5.6525,-5.6453,-5.6641,-5.6375,-5.6218,-5.6172,-5.4359,-5.3459,-5.4369,-5.3533,-5.2321,-5.1339,-5.1289,-5.1379,-5.1379,-5.1409,-5.1528,-5.1738,-5.2576,-5.3174,-5.3443,-5.4251,-5.4999,-5.5179,-5.5209,-5.5209,-5.5209,-5.5209,-5.5209,-5.5209,-5.5209,-5.5329,-6.1119,-6.1119,-6.1119,-6.1119,0.0,-6.1119,-6.1119,-6.1119,-6.1119,-6.1119,-6.1119,-6.1119,-6.1119,-6.1119,-6.1119,-6.1119,-6.1119,-6.1119,-6.1119,-6.1119,-6.1119,-6.1119,-6.1119,-6.1119,-6.1119,-6.1119,-6.1119,-6.092,-6.0556,-6.0191,-5.9794,-5.9429,-5.9065,-5.8866,-5.8866,-5.8866,-5.8502,-5.7773,-5.8502,-5.9231,-5.9852,-5.81,-5.6547,-5.5426,-5.4276,0.0,0.0,0.0,0.0,0.0,0.0,0.0,0.0,-5.1359,0.0,-5.1556,-5.1556,-5.1684,-5.2004,-5.2349,-5.2901,-5.3772,-5.3732,-5.3279,-5.2203,-5.2793,-5.3662,-5.4835,-5.5358,-5.5885,-5.6581,-5.668,-5.668,-5.668,-5.668,-5.668,-5.668,-5.668,-5.668,-5.668,-5.668,-5.668,-5.668,-5.668,-5.668,-5.668,-5.668,-5.6846,-5.7033,-5.5742,-5.4915,-5.5101,-5.4047,-5.2933,-5.2335,-5.2187,-5.2157,-5.2187,-5.2187,-5.2187,-5.2187,-5.2725,-5.3294,-5.3623,-5.4281,-5.479,-5.5119,-5.5209,-5.5209,-5.5209,-5.5209,-5.5209,-5.5209,-5.5209,-5.5269,-6.1119,-6.1119,-6.1119,-6.1119,-6.1119,-6.1119,-6.1119,-6.1119,-6.1119,0.0,0.0,-6.1119,-6.1119,-6.1086,-6.0986,-6.0986,-6.1086,-6.0986,-6.0986,-6.1119,-6.1119,-6.1119,-6.1119,-6.1119,-6.1119,-6.1119,-6.1119,-6.1119,-6.1086,-6.049,-6.049,-6.102,-6.049,-6.049,-6.1086,-6.1119,-6.0523,-5.933,-5.9032,-5.9496,-6.0655,-5.986,-5.8411,-5.6417,-5.6297,-5.5013,-5.2351,-5.2963,-5.2967,-5.2091,-5.215,-5.2049,-5.1645,-5.1518,-5.1588,-5.1918,-5.1891,-5.2709,-5.4529,-5.4665,-5.5236,-5.6614,-5.5988,-5.5227,-5.4503,-5.5644,-5.6453,-5.6453,-5.6603,-5.668,-5.668,-5.668,-5.668,-5.668,-5.668,-5.668,-5.668,-5.668,-5.668,-5.668,-5.668,-5.668,-5.668,-5.6846,-5.6879,-5.6912,-5.7111,-5.7243,-5.774,-5.7232,-5.6271,-5.543,-5.4456,-5.3714,-5.3494,-5.3181,-5.3223,-5.3054,-5.3084,-5.3174,-5.3174,-5.3294,-5.3593,-5.4072,-5.4281,-5.464,-5.5059,-5.5209,-5.5209,-5.5209,-5.5209,-5.5209,-5.5209,-5.5209,-5.5239,-6.1119,-6.1119,-6.1119,-6.1119,-6.1119,-6.1119,-6.1119,-6.1119,-6.1119,-6.1119,-6.1119,-6.1119,-6.1119,-6.1086,-6.0456,-6.049,-6.1053,-6.0456,-6.049,-6.1086,-6.1119,-6.1119,-6.1119,-6.1119,-6.1119,-6.1119,-6.1119,-6.1119,-6.1086,-6.102,-6.102,-6.1086,-6.0986,-6.102,-6.1119,-6.1119,-6.102,-6.0788,-5.9529,-5.8999,-5.9164,-5.7873,-5.6707,-5.5798,-5.518,-5.4025,-5.2356,-5.3066,-5.2774,-5.1447,-5.1929,-5.2807,-5.3922,-5.3421,-5.3563,-5.46,-5.4697,-5.4875,-5.515,-5.5182,-5.56,-5.6569,-5.6603,-5.5843,-5.4272,-5.4938,-5.5515,-5.5515,-5.6257,-5.668,-5.668,-5.668,-5.668,-5.668,-5.668,-5.668,-5.6713,-5.6746,-5.6746,-5.6812,-5.668,-5.6746,-5.6879,-5.7309,-5.7641,-5.774,-5.8104,-5.8601,-5.8587,-5.7953,-5.7064,-5.6169,-5.5173,-5.4591,-5.4479,-5.3754,-5.344,-5.3174,-5.3313,-5.3324,-5.3354,-5.3743,-5.4102,-5.4221,-5.464,-5.4999,-5.5209,-5.5209,-5.5209,-5.5209,-5.5209,-5.5209,-5.5209,-5.5209,-5.5359,-6.1119,-6.1119,-6.1119,-6.1119,-6.1119,-6.1119,-6.1119,-6.1119,-6.1119,-6.1119,-6.1119,-6.1119,-6.1119,-6.1086,-6.0755,-6.0788,-6.1086,-6.0357,-6.039,-6.1053,-6.0688,-6.0721,-6.1086,-6.1119,-6.1119,-6.1119,-6.1119,-6.1119,-6.1119,-6.1119,-6.1119,-6.1119,-6.1119,-6.1119,-6.1119,-6.1119,-6.1119,-6.1086,-6.0423,-6.0092,-6.0092,-5.9429,-5.8767,-5.8005,-5.7276,-5.6393,-5.5324,-5.5198,-5.4873,-5.4207,-5.4503,-5.498,-5.5648,-5.538,-5.545,-5.6034,-5.6027,-5.6067,-5.6027,-5.6067,-5.6257,-5.6641,-5.668,-5.6375,-5.5547,-5.5829,-5.61,-5.6067,-5.6453,-5.668,-5.668,-5.668,-5.668,-5.668,-5.668,-5.6846,-5.721,-5.7276,-5.7442,-5.7806,-5.7873,-5.7906,-5.7906,-5.8204,-5.8403,-5.8436,-5.9032,-5.9463,-5.9529,-5.9498,-5.8945,-5.7698,-5.7032,-5.6472,-5.5828,-5.5411,-5.4861,-5.44,-5.4281,-5.4251,-5.4281,-5.4581,-5.47,-5.473,-5.4999,-5.5149,-5.5209,-5.5209,-5.5209,-5.5209,-5.5209,-5.5209,-5.5209,-5.5209,-5.5418,-6.1119,-6.1119,-6.1119,-6.1119,-6.1119,-6.1119,-6.1119,-6.1119,-6.1119,-6.1119,-6.1119,-6.1119,-6.1119,-6.1086,-6.0953,-6.0953,-6.0986,-6.0357,-6.039,-6.0986,-6.0523,-6.0556,-6.1053,-6.1119,-6.1119,-6.1119,-6.1119,-6.1119,-6.1119,-6.1119,-6.1119,-6.1119,-6.1251,-6.1351,-6.1318,-6.1351,-6.1351,-6.1351,-6.1185,-6.1119,-6.1119,-6.1119,-6.0755,-6.0026,-5.9429,-5.8734,-5.7839,-5.7243,-5.6846,-5.6713,-5.668,-5.668,-5.668,-5.668,-5.668,-5.668,-5.668,-5.668,-5.668,-5.668,-5.668,-5.668,-5.668,-5.668,-5.668,-5.6846,-5.6846,-5.6713,-5.668,-5.668,-5.6713,-5.6879,-5.6945,-5.6945,-5.7111,-5.7475,-5.7939,-5.8038,-5.8237,-5.88,-5.8899,-5.8866,-5.8933,-5.9065,-5.9231,-5.9496,-5.9893,-6.0225,-6.0324,-6.0788,-6.0421,-5.952,-5.8907,-5.8204,-5.7135,-5.6625,-5.6122,-5.5381,-5.5149,-5.5059,-5.5089,-5.5149,-5.5179,-5.5149,-5.5149,-5.5209,-5.5209,-5.5209,-5.5209,-5.5209,-5.5329,-5.5508,-5.5718,-5.5718,-5.5688,-6.1119,-6.1119,-6.1119,-6.1119,-6.1119,-6.1119,-6.1119,-6.1119,-6.1119,-6.1119,-6.1119,-6.1119,-6.1119,-6.102,-6.0423,-6.0523,-6.102,-6.0357,-6.039,-6.1053,-6.1053,-6.1053,-6.1119,-6.1119,-6.1119,-6.1119,-6.1119,-6.1152,-6.1119,-6.1152,-6.1119,-6.1185,-6.1748,-6.2089,-6.2089,-6.2122,-6.2122,-6.2089,-6.145,-6.1119,-6.1119,-6.1119,-6.0755,-6.0026,-5.996,-5.9231,-5.7972,-5.774,-5.7376,-5.6779,-5.6746,-5.6713,-5.6713,-5.6713,-5.6713,-5.6713,-5.6713,-5.668,-5.6713,-5.668,-5.6746,-5.668,-5.6779,-5.6779,-5.6779,-5.7342,-5.7409,-5.6945,-5.6746,-5.6812,-5.6746,-5.7309,-5.7674,-5.7707,-5.8204,-5.8734,-5.8767,-5.88,-5.8833,-5.8866,-5.9065,-5.8899,-5.9131,-5.9562,-6.0158,-6.0622,-6.0755,-6.0887,-6.0887,-6.0986,-6.1044,-6.0661,-6.0128,-5.9149,-5.8162,-5.7134,-5.6427,-5.5501,-5.5209,-5.5209,-5.5209,-5.5209,-5.5209,-5.5359,-5.5269,-5.5299,-5.5329,-5.5209,-5.5269,-5.5508,-5.5807,-5.6226,-5.6705,-5.6795,-5.6675,-6.1458,-6.1458,-6.1334,-6.121,-6.1119,-6.1119,-6.1119,-6.1119,-6.1119,-6.1119,-6.1119,-6.121,-6.121,-6.1086,-6.0788,-6.0821,-6.1053,-6.0324,-6.0423,-6.102,-6.0688,-6.0688,-6.1119,-6.155,-6.1516,-6.1185,-6.1516,-6.1516,-6.1251,-6.1516,-6.1748,-6.1815,-6.252,-6.2652,-6.2288,-6.2652,-6.2652,-6.2221,-6.2312,-6.2378,-6.2345,-6.1947,-6.1384,-6.0755,-6.0655,-6.0191,-5.9198,-5.8701,-5.8303,-5.8005,-5.8005,-5.8005,-5.7972,-5.8005,-5.8005,-5.8005,-5.8005,-5.8005,-5.8005,-5.8005,-5.8005,-5.8005,-5.8005,-5.8005,-5.8005,-5.827,-5.8303,-5.8071,-5.7972,-5.7972,-5.8005,-5.827,-5.8436,-5.8469,-5.8734,-5.9065,-5.9529,-5.9562,-5.9694,-6.0092,-6.0191,-6.0191,-6.0225,-6.0456,-6.0788,-6.1086,-6.1119,-6.1119,-6.1119,-6.1119,-6.1119,-6.1077,-6.0717,-6.013,-5.9145,-5.8162,-5.7165,-5.6232,-5.5551,-5.5259,-5.5289,-5.5209,-5.5299,-5.5688,-5.5748,-5.5927,-5.6346,-5.6286,-5.6316,-5.6346,-5.6376,-5.6795,-5.7064,-5.7094,-5.6944,-6.1709,-6.1669,-6.1547,-6.1517,-6.1592,-6.1551,-6.1551,-6.1551,-6.1551,-6.1451,-6.1293,-6.1424,-6.1417,-6.1252,-6.1252,-6.121,-6.1103,-6.0638,-6.0597,-6.102,-6.0556,-6.0589,-6.1152,-6.1616,-6.1616,-6.1251,-6.1616,-6.1583,-6.1251,-6.1815,-6.2122,-6.208,-6.305,-6.3249,-6.2652,-6.3249,-6.3348,-6.2917,-6.3183,-6.3315,-6.3249,-6.2984,-6.2345,-6.1483,-6.1218,-6.0755,-6.0026,-5.9496,-5.9098,-5.8899,-5.8899,-5.8899,-5.8899,-5.8899,-5.8899,-5.8899,-5.8899,-5.8899,-5.8899,-5.8899,-5.8899,-5.8899,-5.8899,-5.8899,-5.8933,-5.9098,-5.9198,-5.9198,-5.9396,-5.9396,-5.8933,-5.9065,-5.9198,-5.9198,-5.933,-5.9728,-6.0225,-6.0291,-6.049,-6.102,-6.0953,-6.1119,-6.1086,-6.1086,-6.1086,-6.1119,-6.1119,-6.1119,-6.1152,-6.1285,-6.1417,-6.1417,-6.155,-6.1103,-5.9892,-5.9024,-5.8148,-5.7461,-5.6666,-5.6093,-5.5983,-5.6022,-5.5748,-5.6376,-5.6406,-5.6466,-5.6735,-5.6944,-5.7214,-5.7334,-5.7363,-5.7453,-5.7782,-5.7663,-5.7693,-6.1709,-6.1743,-6.1669,-6.2137,-6.2706,-6.2706,-6.2673,-6.2639,-6.2673,-6.2304,-6.1695,-6.1702,-6.1702,-6.1736,-6.1803,-6.158,-6.1383,-6.1317,-6.1193,-6.1127,-6.1094,-6.1086,-6.1119,-6.1152,-6.1185,-6.1359,-6.1525,-6.1384,-6.1285,-6.1923,-6.1815,-6.1384,-6.3338,-6.4011,-6.3448,-6.4011,-6.4299,-6.4144,-6.3713,-6.3382,-6.3448,-6.3935,-6.358,-6.2321,-6.1483,-6.0854,-6.0158,-5.9993,-5.9661,-5.8966,-5.8999,-5.8966,-5.8933,-5.8966,-5.8999,-5.8966,-5.8966,-5.8966,-5.8999,-5.9032,-5.9032,-5.8966,-5.9098,-5.8966,-5.9131,-5.9628,-5.9926,-5.996,-6.049,-6.0357,-5.933,-5.9628,-5.9926,-5.9993,-6.0556,-6.0887,-6.102,-6.0953,-6.1053,-6.1119,-6.1119,-6.1152,-6.1152,-6.1119,-6.1218,-6.1251,-6.1185,-6.1251,-6.1417,-6.1781,-6.208,-6.2245,-6.2468,-6.2342,-6.0272,-5.9766,-5.9524,-5.9014,-5.8352,-5.7629,-5.782,-5.7851,-5.7389,-5.7034,-5.7064,-5.7094,-5.7094,-5.7274,-5.7603,-5.7812,-5.8022,-5.8201,-5.8441,-5.883,-5.88,-6.3444,-6.3362,-6.3396,-6.3448,-6.3559,-6.3551,-6.3291,-6.2855,-6.2822,-6.2379,-6.1877,-6.2374,-6.265,-6.2683,-6.3316,-6.2858,-6.1654,-6.1588,-6.1547,-6.1532,-6.1965,-6.2207,-6.2266,-6.3099,-6.3333,-6.3033,-6.3239,-6.3112,-6.261,-6.3282,-6.3471,-6.3438,-6.4399,-6.4697,-6.4233,-6.4697,-6.4829,-6.4465,-6.4498,-6.4664,-6.4564,-6.4498,-6.4144,-6.3647,-6.2917,-6.2146,-6.1417,-6.0953,-6.0589,-6.0324,-6.0291,-6.0324,-6.0324,-6.0324,-6.0324,-6.0324,-6.0324,-6.0324,-6.0291,-6.0324,-6.0324,-6.0324,-6.0324,-6.0258,-6.0324,-6.0556,-6.0721,-6.0755,-6.092,-6.0755,-6.0556,-6.0589,-6.0688,-6.0755,-6.0953,-6.1119,-6.1119,-6.1119,-6.1119,-6.1119,-6.1119,-6.1285,-6.1724,-6.1781,-6.198,-6.2411,-6.2477,-6.2444,-6.251,-6.2785,-6.2917,-6.2908,-6.3073,-6.302,-6.2332,-6.1369,-6.0896,-6.0628,-6.0091,-5.9166,-5.8919,-5.8773,-5.837,-5.8,-5.7933,-5.7978,-5.8068,-5.8141,-5.8381,-5.8441,-5.865,-5.868,-5.9039,-5.9099,-5.9099,-6.4498,-6.4375,-6.4375,-6.4461,-6.4505,-6.4304,-6.3993,-6.3698,-6.3221,-6.2851,-6.2724,-6.2879,-6.306,-6.3296,-6.3728,-6.3242,-6.2045,-6.234,-6.2393,-6.2144,-6.2814,-6.3182,-6.3316,-6.422,-6.4455,-6.4087,-6.4209,-6.3995,-6.3534,-6.4078,-6.4233,-6.4034,-6.4929,-6.5094,-6.4597,-6.5094,-6.516,-6.4895,-6.5194,-6.5392,-6.5359,-6.4962,-6.4697,-6.4597,-6.4045,-6.3216,-6.2255,-6.1682,-6.1318,-6.1152,-6.1119,-6.1119,-6.1119,-6.1119,-6.1119,-6.1119,-6.1086,-6.1119,-6.1119,-6.1119,-6.1086,-6.1119,-6.1119,-6.1119,-6.1119,-6.1119,-6.1119,-6.1119,-6.1119,-6.1152,-6.1417,-6.145,-6.1351,-6.1185,-6.1119,-6.1218,-6.1417,-6.1483,-6.1625,-6.1974,-6.2124,-6.2324,-6.2538,-6.2638,-6.2828,-6.3282,-6.3315,-6.3315,-6.3315,-6.3547,-6.368,-6.368,-6.3902,-6.4067,-6.3804,-6.3373,-6.2823,-6.2464,-6.1759,-6.082,-6.0272,-5.9991,-5.9498,-5.9066,-5.8897,-5.9001,-5.9021,-5.9093,-5.9099,-5.9099,-5.9039,-5.8949,-5.9099,-5.9099,-5.9099,-6.4681,-6.4715,-6.4647,-6.5121,-6.5519,-6.5046,-6.5087,-6.5147,-6.4133,-6.3856,-6.3958,-6.3159,-6.3187,-6.3389,-6.3396,-6.2685,-6.2876,-6.3795,-6.3698,-6.2896,-6.3667,-6.4036,-6.407,-6.4304,-6.4405,-6.4229,-6.3876,-6.3748,-6.3805,-6.4264,-6.4167,-6.3769,-6.4829,-6.5094,-6.4432,-6.5094,-6.5392,-6.5359,-6.5392,-6.5425,-6.5425,-6.5359,-6.5326,-6.5293,-6.4697,-6.3736,-6.2387,-6.2255,-6.1914,-6.1318,-6.1185,-6.1119,-6.1119,-6.1119,-6.1119,-6.1119,-6.1119,-6.1119,-6.1119,-6.1119,-6.1119,-6.1119,-6.1119,-6.1119,-6.1119,-6.1185,-6.1218,-6.1251,-6.1318,-6.1483,-6.2122,-6.2221,-6.2022,-6.1318,-6.1426,-6.1691,-6.2131,-6.2221,-6.2538,-6.3239,-6.3542,-6.3793,-6.3657,-6.353,-6.3544,-6.3547,-6.3537,-6.357,-6.367,-6.4067,-6.4332,-6.4465,-6.4664,-6.4862,-6.5127,-6.5281,-6.4851,-6.4387,-6.3505,-6.2658,-6.2444,-6.2108,-6.1014,-6.0445,-5.9486,-5.9508,-5.9057,-5.9099,-5.9099,-5.9099,-5.9099,-5.9099,-5.9099,-5.9099,-5.9099,-6.6136,-6.6136,-6.6136,-6.6237,-6.644,-6.6203,-6.573,-6.5019,-6.4918,-6.458,-6.4072,-6.441,-6.4816,-6.5053,-6.5256,-6.5121,-6.4749,-6.5512,-6.5065,-6.3768,-6.4578,-6.5151,-6.5218,-6.5657,-6.5842,-6.5673,-6.5459,-6.5254,-6.5114,-6.5094,-6.4929,-6.4929,-6.516,-6.5293,-6.5094,-6.5293,-6.5425,-6.5425,-6.5425,-6.5425,-6.5425,-6.5425,-6.5425,-6.5392,-6.5194,-6.463,-6.3736,-6.3249,-6.2842,-6.2577,-6.2113,-6.1616,-6.1218,-6.1119,-6.1119,-6.1119,-6.1119,-6.1119,-6.1119,-6.1119,-6.1152,-6.1119,-6.1119,-6.1119,-6.1185,-6.1583,-6.1815,-6.1914,-6.2278,-6.2742,-6.2917,-6.3112,-6.3022,-6.2855,-6.2822,-6.2907,-6.3257,-6.3442,-6.3466,-6.3548,-6.3657,-6.3815,-6.4075,-6.4165,-6.4331,-6.4608,-6.4708,-6.4708,-6.4763,-6.484,-6.5094,-6.516,-6.5392,-6.5425,-6.5425,-6.5425,-6.5227,-6.4995,-6.4449,-6.3976,-6.3933,-6.372,-6.2632,-6.1337,-6.039,-5.9713,-5.9261,-5.9099,-5.9099,-5.9099,-5.9099,-5.9099,-5.9099,-5.9099,-5.9099,-6.6812,-6.6812,-6.6812,-6.6812,-6.6779,-6.6542,-6.6068,-6.5425,-6.529,-6.5053,-6.4918,-6.5053,-6.5459,-6.5696,-6.5933,-6.573,-6.5392,-6.6068,-6.5662,-6.4647,-6.5493,-6.6068,-6.6136,-6.6542,-6.6728,-6.6592,-6.6345,-6.6172,-6.6076,-6.5824,-6.5658,-6.5658,-6.557,-6.5559,-6.5559,-6.547,-6.5425,-6.5425,-6.5425,-6.5425,-6.5425,-6.5425,-6.5425,-6.5425,-6.5425,-6.5194,-6.4763,-6.4299,-6.3835,-6.3272,-6.2619,-6.1848,-6.1185,-6.1119,-6.1119,-6.1119,-6.1119,-6.1161,-6.1202,-6.1476,-6.165,-6.1725,-6.2,-6.2157,-6.2182,-6.2505,-6.2704,-6.2719,-6.3027,-6.3501,-6.3776,-6.4014,-6.4243,-6.4671,-6.3967,-6.3824,-6.4076,-6.4656,-6.4747,-6.4643,-6.4653,-6.4767,-6.4893,-6.5026,-6.5149,-6.5504,-6.5647,-6.5692,-6.5614,-6.557,-6.5559,-6.5514,-6.547,-6.547,-6.5425,-6.5425,-6.5425,-6.5359,-6.5204,-6.4869,-6.4682,-6.4591,-6.3909,-6.1891,-6.0598,-5.9606,-5.9099,-5.9099,-5.9099,-5.9099,-5.9099,-5.9099,-5.9099,-5.9099,-5.9099,-6.6812,-6.6812,-6.6812,-6.6812,-6.6745,-6.617,-6.6136,-6.6373,-6.5459,-6.5527,-6.6102,-6.5459,-6.5256,-6.5527,-6.5425,-6.5155,-6.4918,-6.5595,-6.5933,-6.5865,-6.6373,-6.6711,-6.6711,-6.6779,-6.677,-6.6728,-6.6592,-6.6464,-6.6421,-6.6172,-6.6095,-6.6009,-6.5867,-6.5824,-6.578,-6.5559,-6.5514,-6.5481,-6.547,-6.547,-6.5569,-6.5425,-6.5492,-6.5525,-6.5459,-6.5392,-6.5293,-6.5194,-6.4664,-6.3471,-6.2851,-6.2221,-6.145,-6.1251,-6.1384,-6.1459,-6.1285,-6.1518,-6.1708,-6.2291,-6.2632,-6.2832,-6.3334,-6.3902,-6.3457,-6.3515,-6.3639,-6.3511,-6.3729,-6.4114,-6.47,-6.4963,-6.5444,-6.6009,-6.4948,-6.4324,-6.454,-6.5651,-6.5914,-6.5831,-6.6139,-6.6302,-6.5767,-6.5821,-6.5855,-6.5878,-6.5922,-6.5965,-6.5965,-6.5911,-6.5824,-6.5736,-6.5603,-6.5603,-6.5603,-6.5658,-6.5658,-6.5647,-6.5603,-6.5381,-6.4864,-6.4682,-6.4281,-6.2306,-6.0722,-5.9766,-5.9099,-5.9099,-5.9099,-5.9099,-5.9099,-5.9099,-5.9099,-5.9099,-5.9129,-6.6812,-6.6812,-6.6812,-6.6812,-6.6812,-6.6576,-6.6271,-6.6068,-6.6203,-6.6102,-6.6068,-6.6203,-6.6237,-6.6474,-6.6305,-6.6237,-6.6203,-6.6373,-6.6508,-6.6542,-6.6677,-6.6812,-6.6812,-6.6812,-6.6812,-6.677,-6.6635,-6.6507,-6.6464,-6.6259,-6.6139,-6.6095,-6.6052,-6.6042,-6.6009,-6.5988,-6.5922,-6.5878,-6.5813,-6.6024,-6.6345,-6.5813,-6.569,-6.6154,-6.5757,-6.5492,-6.5425,-6.5425,-6.5028,-6.42,-6.3935,-6.3471,-6.2752,-6.2652,-6.2662,-6.2789,-6.2898,-6.3015,-6.3258,-6.3467,-6.3609,-6.3651,-6.3994,-6.3986,-6.3944,-6.437,-6.4562,-6.4653,-6.5029,-6.5474,-6.5718,-6.5923,-6.6177,-6.6158,-6.5746,-6.5569,-6.5674,-6.6081,-6.6345,-6.6129,-6.6335,-6.6292,-6.6129,-6.6052,-6.6095,-6.6052,-6.6095,-6.6139,-6.6182,-6.6129,-6.6042,-6.5911,-6.5824,-6.578,-6.5824,-6.5878,-6.5922,-6.5922,-6.5824,-6.5603,-6.4819,-6.4096,-6.3356,-6.2108,-6.0928,-5.9895,-5.9392,-5.9153,-5.9099,-5.9261,-5.9219,-5.9249,-5.9159,-5.9129,-5.9129,-6.6812,-6.6812,-6.6812,-6.6812,-6.6812,-6.6812,-6.6542,-6.6305,-6.6576,-6.6576,-6.6339,-6.6576,-6.6812,-6.6812,-6.6812,-6.6812,-6.6812,-6.6812,-6.6812,-6.6812,-6.6812,-6.6812,-6.6812,-6.6812,-6.6812,-6.677,-6.6686,-6.6635,-6.6635,-6.6473,-6.643,-6.6397,-6.6302,-6.6436,-6.6728,-6.6608,-6.6732,-6.7,-6.6934,-6.7124,-6.7413,-6.699,-6.6945,-6.7167,-6.6834,-6.6568,-6.6235,-6.5902,-6.5359,-6.4706,-6.4507,-6.4208,-6.3501,-6.3444,-6.3487,-6.3615,-6.3615,-6.3709,-6.4103,-6.4388,-6.4631,-6.4782,-6.495,-6.511,-6.516,-6.542,-6.5621,-6.5526,-6.5981,-6.6192,-6.6302,-6.6473,-6.6507,-6.6345,-6.6421,-6.6378,-6.6042,-6.6345,-6.643,-6.6302,-6.6302,-6.6388,-6.6139,-6.6182,-6.6259,-6.6302,-6.6388,-6.643,-6.6397,-6.6345,-6.6259,-6.6129,-6.6042,-6.5999,-6.5999,-6.6009,-6.6109,-6.6109,-6.6078,-6.5825,-6.5198,-6.4132,-6.3404,-6.2632,-6.1286,-6.0263,-5.9933,-5.9643,-5.9499,-5.956,-5.9495,-5.9368,-5.9308,-5.9518,-5.9458,-6.6812,-6.6812,-6.6812,-6.6812,-6.6812,-6.6812,-6.6779,-6.6779,-6.6812,-6.6812,-6.6779,-6.6812,-6.6812,-6.6812,-6.6812,-6.6812,-6.6812,-6.6812,-6.6812,-6.6812,-6.6846,-6.688,-6.7049,-6.688,-6.6846,-6.6812,-6.6812,-6.677,-6.6838,-6.6838,-6.6939,-6.6956,-6.6862,-6.7156,-6.7584,-6.7554,-6.7791,-6.8204,-6.8204,-6.8294,-6.8417,-6.8238,-6.816,-6.8327,-6.816,-6.7692,-6.7123,-6.6554,-6.5841,-6.4934,-6.49,-6.459,-6.4024,-6.3924,-6.4,-6.4109,-6.4252,-6.4312,-6.458,-6.527,-6.5623,-6.5816,-6.6331,-6.6728,-6.6424,-6.6339,-6.633,-6.6134,-6.6388,-6.6507,-6.655,-6.6686,-6.6643,-6.6507,-6.6507,-6.6335,-6.6119,-6.6388,-6.6601,-6.6225,-6.6388,-6.6388,-6.6345,-6.6345,-6.6507,-6.6516,-6.6601,-6.6601,-6.6601,-6.6558,-6.6473,-6.6421,-6.6302,-6.6182,-6.6215,-6.6172,-6.6263,-6.6243,-6.6278,-6.6091,-6.582,-6.5003,-6.4211,-6.3276,-6.226,-6.1443,-6.0801,-6.0508,-6.038,-6.0066,-6.0082,-5.9847,-5.9638,-6.0027,-6.0176,-6.6812,-6.6812,-6.6812,-6.6812,-6.6812,-6.6812,-6.6812,-6.6812,-6.6812,-6.6812,-6.6812,-6.6812,-6.6812,-6.6812,-6.6812,-6.6812,-6.688,-6.6914,-6.6812,-6.6812,-6.6812,-6.7184,-6.7421,-6.7184,-6.688,-6.6914,-6.6846,-6.6846,-6.6981,-6.7455,-6.7658,-6.7683,-6.8123,-6.8586,-6.8721,-6.8668,-6.8702,-6.8904,-6.8806,-6.9054,-6.9312,-6.892,-6.8831,-6.9199,-6.8797,-6.8049,-6.7368,-6.7033,-6.6675,-6.6225,-6.5871,-6.5617,-6.5483,-6.544,-6.5493,-6.5578,-6.5765,-6.5926,-6.6213,-6.6289,-6.6492,-6.65,-6.6643,-6.677,-6.6728,-6.6728,-6.6686,-6.6643,-6.6686,-6.6686,-6.6686,-6.677,-6.672,-6.6592,-6.6635,-6.6635,-6.6421,-6.6507,-6.6507,-6.6507,-6.6592,-6.6728,-6.6643,-6.6643,-6.6728,-6.6728,-6.6804,-6.6804,-6.6838,-6.6897,-6.6981,-6.7098,-6.7064,-6.7012,-6.6959,-6.6949,-6.6876,-6.6811,-6.6746,-6.659,-6.6316,-6.5831,-6.5059,-6.427,-6.3417,-6.272,-6.2197,-6.1998,-6.1972,-6.1358,-6.0685,-6.0565,-6.0535,-6.0775,-6.0745,-6.6812,-6.6812,-6.6812,-6.6812,-6.6812,-6.6812,-6.6812,-6.6812,-6.6812,-6.6812,-6.6812,-6.6812,-6.6812,-6.6812,-6.6846,-6.6981,-6.7387,-6.7726,-6.7895,-6.7929,-6.7929,-6.8132,-6.8301,-6.8132,-6.7895,-6.7895,-6.7929,-6.7895,-6.803,-6.8199,-6.847,-6.847,-6.8944,-6.9248,-6.9586,-6.962,-6.9823,-7.0083,-7.0005,-7.0153,-7.031,-7.0097,-6.9873,-7.0142,-6.9637,-6.8863,-6.819,-6.7719,-6.7223,-6.6761,-6.6516,-6.6388,-6.6302,-6.6302,-6.6345,-6.6464,-6.6507,-6.6592,-6.6728,-6.6812,-6.6812,-6.6812,-6.6812,-6.6812,-6.6812,-6.6812,-6.6812,-6.6812,-6.677,-6.6812,-6.6812,-6.6812,-6.6762,-6.672,-6.6728,-6.6728,-6.6643,-6.6601,-6.6601,-6.6643,-6.6728,-6.677,-6.6812,-6.6914,-6.6872,-6.6905,-6.7379,-6.7455,-6.7658,-6.7717,-6.7987,-6.8036,-6.8021,-6.7944,-6.7849,-6.7786,-6.7701,-6.7625,-6.7468,-6.7355,-6.7135,-6.6549,-6.5862,-6.5393,-6.5077,-6.4377,-6.39,-6.3745,-6.3039,-6.1819,-6.113,-6.1224,-6.1343,-6.1429,-6.1224,-6.6812,-6.6812,-6.6812,-6.6812,-6.6812,-6.6812,-6.6812,-6.6812,-6.6812,-6.6914,-6.6948,-6.688,-6.688,-6.6981,-6.6846,-6.7218,-6.7895,-6.8605,-6.8842,-6.8842,-6.8842,-6.9011,-6.9147,-6.918,-6.9282,-6.9383,-6.9045,-6.8977,-6.8977,-6.9214,-6.9248,-6.9282,-6.9451,-6.9891,-7.0263,-7.0364,-7.0567,-7.0962,-7.0996,-7.1064,-7.1165,-7.1098,-7.1086,-7.0985,-7.0658,-6.9948,-6.9228,-6.8663,-6.7954,-6.7252,-6.7151,-6.6956,-6.6727,-6.655,-6.655,-6.655,-6.6592,-6.6677,-6.677,-6.6812,-6.6812,-6.6812,-6.6812,-6.6812,-6.6812,-6.6812,-6.6812,-6.6812,-6.6812,-6.6812,-6.6812,-6.6812,-6.6812,-6.677,-6.677,-6.6812,-6.6812,-6.6812,-6.677,-6.677,-6.6804,-6.6838,-6.7049,-6.7184,-6.7117,-6.7184,-6.7726,-6.8132,-6.8301,-6.8504,-6.8663,-6.8697,-6.8605,-6.8417,-6.8287,-6.8378,-6.8293,-6.8484,-6.8359,-6.8278,-6.8148,-6.8042,-6.7658,-6.7295,-6.6875,-6.6145,-6.5618,-6.5403,-6.4329,-6.2433,-6.2036,-6.2617,-6.2509,-6.2111,-6.1875,-6.6812,-6.6812,-6.6812,-6.6812,-6.6812,-6.6812,-6.6812,-6.6812,-6.6812,-6.7151,-6.7557,-6.7083,-6.7151,-6.7387,-6.7015,-6.7252,-6.803,-6.8808,-6.9248,-6.9248,-6.9316,-6.9519,-6.9958,-7.0026,-7.0297,-7.0466,-6.9925,-6.9316,-6.9417,-6.9688,-6.9992,-7.0128,-7.0534,-7.0939,-7.0973,-7.1109,-7.1075,-7.1244,-7.1312,-7.1312,-7.1312,-7.1312,-7.1312,-7.1312,-7.1075,-7.0635,-7.0128,-6.9823,-6.9451,-6.8808,-6.8741,-6.8292,-6.7708,-6.7133,-6.6829,-6.6728,-6.6728,-6.6728,-6.677,-6.6812,-6.6812,-6.6812,-6.6812,-6.6812,-6.6812,-6.6812,-6.6812,-6.6812,-6.6812,-6.6812,-6.6812,-6.6812,-6.6812,-6.6812,-6.6812,-6.6812,-6.6812,-6.6812,-6.688,-6.6948,-6.6948,-6.7049,-6.732,-6.7658,-6.7895,-6.8132,-6.8571,-6.8842,-6.8977,-6.9079,-6.9214,-6.9147,-6.9011,-6.8847,-6.8682,-6.8772,-6.8852,-6.9244,-6.9298,-6.9453,-6.9469,-6.9743,-6.9597,-6.8712,-6.8167,-6.765,-6.7264,-6.6964,-6.6147,-6.4666,-6.4405,-6.4212,-6.3948,-6.3629,-6.3083,-6.6812,-6.6812,-6.6812,-6.6812,-6.6812,-6.6812,-6.6812,-6.6812,-6.6812,-6.6981,-6.7151,-6.6981,-6.6981,-6.7184,-6.7015,-6.7421,-6.8504,-6.9316,-6.9857,-7.0128,-7.0297,-7.0398,-7.0737,-7.0737,-7.0939,-7.1075,-7.0567,-7.0195,-7.0297,-7.0601,-7.0737,-7.0838,-7.1176,-7.1312,-7.1312,-7.1278,-7.1312,-7.1312,-7.1312,-7.1312,-7.1312,-7.1312,-7.1312,-7.1312,-7.1278,-7.0906,-7.0331,-7.0195,-6.9823,-6.9214,-6.9079,-6.8876,-6.8436,-6.7827,-6.7184,-6.6914,-6.6812,-6.6812,-6.6812,-6.6812,-6.6812,-6.6812,-6.6812,-6.6812,-6.6812,-6.6812,-6.6812,-6.6812,-6.6812,-6.6812,-6.6812,-6.6812,-6.6812,-6.6812,-6.6812,-6.6812,-6.6812,-6.6812,-6.6981,-6.7218,-6.7455,-6.7624,-6.776,-6.8166,-6.8639,-6.9045,-6.9451,-6.9586,-6.9654,-6.9823,-6.9925,-6.9992,-6.9958,-6.9881,-6.968,-6.9591,-6.9581,-6.9883,-7.0083,-7.0239,-7.0281,-7.0309,-7.0056,-6.9483,-6.9088,-6.8818,-6.8193,-6.7598,-6.7183,-6.6794,-6.6101,-6.5504,-6.5436,-6.5142,-6.4488,-6.688,-6.7015,-6.688,-6.6812,-6.6812,-6.6812,-6.6812,-6.6812,-6.6812,-6.6948,-6.7015,-6.6914,-6.7015,-6.7286,-6.7624,-6.8233,-6.9383,-7.0094,-7.0703,-7.1041,-7.1176,-7.1278,-7.1278,-7.1312,-7.1278,-7.1244,-7.121,-7.1312,-7.1142,-7.1176,-7.1278,-7.1244,-7.1278,-7.1312,-7.1312,-7.1312,-7.1312,-7.1312,-7.1312,-7.1312,-7.1312,-7.1312,-7.1312,-7.1312,-7.1312,-7.1007,-7.0567,-7.05,-7.0263,-6.9857,-6.962,-6.9451,-6.9079,-6.8504,-6.776,-6.7015,-6.6846,-6.6812,-6.6812,-6.6812,-6.6812,-6.6812,-6.6812,-6.6812,-6.6812,-6.6812,-6.6812,-6.6812,-6.6812,-6.6812,-6.6812,-6.6812,-6.6812,-6.6812,-6.6812,-6.6812,-6.6812,-6.6914,-6.7184,-6.7489,-6.7895,-6.8335,-6.8673,-6.891,-6.9451,-6.9925,-7.0331,-7.0364,-7.0466,-7.0737,-7.0872,-7.1007,-7.1041,-7.1007,-7.085,-7.0659,-7.0625,-7.0603,-7.068,-7.0736,-7.0666,-7.0549,-7.0243,-7.0049,-6.9943,-6.9581,-6.8863,-6.8453,-6.8354,-6.8004,-6.7208,-6.6794,-6.669,-6.6164,-6.539,-6.7184,-6.7692,-6.7083,-6.6812,-6.6812,-6.6812,-6.6812,-6.6812,-6.6846,-6.7218,-6.7658,-6.7218,-6.7624,-6.8538,-6.9316,-6.9755,-7.0161,-7.0601,-7.1041,-7.1278,-7.1312,-7.1312,-7.1312,-7.1312,-7.1312,-7.1312,-7.1312,-7.1312,-7.1312,-7.1312,-7.1312,-7.1312,-7.1312,-7.1312,-7.1312,-7.1312,-7.1312,-7.1312,-7.1312,-7.1312,-7.1312,-7.1312,-7.1312,-7.1312,-7.1312,-7.1244,-7.1041,-7.1041,-7.0939,-7.0939,-7.0939,-7.0364,-6.9383,-6.9045,-6.8132,-6.7286,-6.6812,-6.6812,-6.6846,-6.6812,-6.6812,-6.6812,-6.6812,-6.6812,-6.6812,-6.6812,-6.6812,-6.6812,-6.6812,-6.6812,-6.6812,-6.6812,-6.6812,-6.6812,-6.6812,-6.6812,-6.6846,-6.7151,-6.7421,-6.8064,-6.8571,-6.9248,-6.9789,-6.9992,-7.0263,-7.0737,-7.1109,-7.1075,-7.1109,-7.1244,-7.1312,-7.1312,-7.1312,-7.1312,-7.1312,-7.1222,-7.1176,-7.1176,-7.1131,-7.1086,-7.0961,-7.0825,-7.0779,-7.062,-7.0469,-7.0236,-6.9684,-6.9445,-6.9574,-6.9204,-6.8453,-6.8154,-6.7921,-6.7208,-6.648,-6.803,-6.7827,-6.7117,-6.6812,-6.6812,-6.6812,-6.6812,-6.6914,-6.7252,-6.759,-6.7929,-6.8132,-6.8504,-6.9147,-6.9451,-6.9789,-7.0161,-7.0567,-7.0939,-7.1278,-7.1312,-7.1312,-7.1312,-7.1312,-7.1312,-7.1312,-7.1312,-7.1312,-7.1312,-7.1312,-7.1312,-7.1312,-7.1312,-7.1312,-7.1312,-7.1312,-7.1312,-7.1312,-7.1312,-7.1312,-7.1312,-7.1312,-7.1312,-7.1312,-7.1312,-7.1312,-7.1312,-7.1312,-7.1312,-7.1312,-7.1312,-7.1075,-7.0398,-6.9925,-6.918,-6.8301,-6.7658,-6.7286,-6.6914,-6.6846,-6.6812,-6.6812,-6.6812,-6.6812,-6.6812,-6.6812,-6.6812,-6.6812,-6.6812,-6.6812,-6.6812,-6.6812,-6.6812,-6.6812,-6.688,-6.6914,-6.7015,-6.7387,-6.7793,-6.8504,-6.9214,-6.9891,-7.0466,-7.0669,-7.0737,-7.0973,-7.121,-7.121,-7.121,-7.1278,-7.1312,-7.1312,-7.1312,-7.1312,-7.1312,-7.1267,-7.1267,-7.1267,-7.1267,-7.1222,-7.1176,-7.1098,-7.1007,-7.087,-7.0608,-7.0376,-7.019,-7.0143,-7.0049,-6.9907,-6.9717,-6.9301,-6.8879,-6.883,-6.7903,-6.9288,-6.871,-6.7777,-6.7387,-6.7387,-6.7387,-6.7421,-6.7455,-6.7726,-6.7996,-6.8368,-6.8977,-6.935,-6.9451,-6.9688,-7.0161,-7.05,-7.0466,-7.0804,-7.1142,-7.1312,-7.1312,-7.1312,-7.1312,-7.1312,-7.1312,-7.1312,-7.1312,-7.1312,-7.1312,-7.1312,-7.1312,-7.1312,-7.1312,-7.1312,-7.1312,-7.1312,-7.1312,-7.1312,-7.1312,-7.1312,-7.1312,-7.1312,-7.1312,-7.1312,-7.1312,-7.1312,-7.1312,-7.1312,-7.1312,-7.1312,-7.1142,-7.0737,-7.0297,-6.9722,-6.891,-6.8233,-6.7658,-6.7218,-6.7015,-6.6846,-6.6812,-6.6812,-6.6812,-6.6812,-6.6812,-6.6812,-6.6812,-6.6812,-6.6812,-6.6812,-6.6812,-6.6812,-6.6914,-6.7015,-6.7049,-6.7218,-6.7827,-6.847,-6.918,-6.9823,-7.0331,-7.0838,-7.1142,-7.1244,-7.1278,-7.1312,-7.1312,-7.1312,-7.1312,-7.1312,-7.1312,-7.1312,-7.1312,-7.1312,-7.1312,-7.1312,-7.1312,-7.1312,-7.1267,-7.1267,-7.1222,-7.1131,-7.0916,-7.0745,-7.0654,-7.0595,-7.0549,-7.0423,-7.0143,-6.9941,-6.9941,-6.9765,-6.9717,-6.9107,-7.1208,-7.1029,-6.9526,-6.891,-6.8842,-6.8944,-6.8876,-6.8673,-6.8166,-6.8436,-6.918,-6.9755,-7.0128,-7.0229,-7.0635,-7.0973,-7.1176,-7.1244,-7.1244,-7.1278,-7.1312,-7.1312,-7.1312,-7.1312,-7.1312,-7.1312,-7.1312,-7.1312,-7.1312,-7.1312,-7.1312,-7.1312,-7.1312,-7.1312,-7.1312,-7.1312,-7.1312,-7.1312,-7.1312,-7.1312,-7.1312,-7.1312,-7.1312,-7.1312,-7.1312,-7.1312,-7.1312,-7.1312,-7.1312,-7.1312,-7.1312,-7.1109,-7.0737,-7.05,-7.0026,-6.9316,-6.8707,-6.8199,-6.7861,-6.7218,-6.6846,-6.6812,-6.6812,-6.6812,-6.6812,-6.6812,-6.6812,-6.6812,-6.6812,-6.6812,-6.6812,-6.6812,-6.6846,-6.7117,-6.7387,-6.7658,-6.7963,-6.8605,-6.9248,-6.9857,-7.0364,-7.0804,-7.0973,-7.1244,-7.1312,-7.1312,-7.1312,-7.1312,-7.1312,-7.1312,-7.1312,-7.1312,-7.1312,-7.1312,-7.1312,-7.1312,-7.1312,-7.1312,-7.1312,-7.1312,-7.1267,-7.1222,-7.1176,-7.1131,-7.1007,-7.0961,-7.087,-7.0595,-7.041,-7.027,-7.0129,-7.0035,-6.9765,-6.9478,-6.8977,-7.2084,-7.1966,-7.0896,-6.9925,-6.9079,-6.8571,-6.8639,-6.9011,-6.8774,-6.935,-7.0432,-7.0737,-7.0872,-7.0973,-7.1075,-7.1312,-7.1312,-7.1312,-7.1312,-7.1312,-7.1312,-7.1312,-7.1312,-7.1312,-7.1312,-7.1312,-7.1312,-7.1312,-7.1312,-7.1312,-7.1312,-7.1312,-7.1312,-7.1312,-7.1312,-7.1312,-7.1312,-7.1312,-7.1312,-7.1312,-7.1312,-7.1312,-7.1312,-7.1312,-7.1312,-7.1312,-7.1312,-7.1312,-7.1312,-7.1312,-7.1312,-7.1075,-7.0872,-7.0804,-7.0466,-6.9857,-6.935,-6.9011,-6.8436,-6.7624,-6.6846,-6.6812,-6.6812,-6.6812,-6.6846,-6.6812,-6.6812,-6.6812,-6.6812,-6.6812,-6.6846,-6.6846,-6.6948,-6.7387,-6.7827,-6.8233,-6.8707,-6.935,-6.9755,-7.0297,-7.0703,-7.1109,-7.121,-7.1278,-7.1312,-7.1312,-7.1312,-7.1312,-7.1312,-7.1312,-7.1312,-7.1312,-7.1312,-7.1312,-7.1312,-7.1312,-7.1312,-7.1312,-7.1312,-7.1312,-7.1312,-7.1267,-7.1267,-7.1267,-7.1176,-7.0961,-7.0779,-7.0502,-7.0363,-7.0223,-7.0129,-7.0082,-6.9717,-6.9349,-6.8928,-7.2873,-7.2783,-7.1732,-7.0737,-6.9722,-6.891,-6.8876,-6.9316,-6.918,-6.9755,-7.1007,-7.1176,-7.1312,-7.1312,-7.1312,-7.1312,-7.1312,-7.1312,-7.1312,-7.1312,-7.1312,-7.1312,-7.1312,-7.1312,-7.1312,-7.1312,-7.1312,-7.1312,-7.1312,-7.1312,-7.1312,-7.1312,-7.1312,-7.1312,-7.1312,-7.1312,-7.1312,-7.1312,-7.1312,-7.1312,-7.1312,-7.1312,-7.1312,-7.1312,-7.1312,-7.1312,-7.1312,-7.1312,-7.1312,-7.1312,-7.1312,-7.1312,-7.1278,-7.1244,-7.1007,-7.0669,-7.0263,-6.9925,-6.9248,-6.8368,-6.7421,-6.7286,-6.7218,-6.7083,-6.688,-6.6846,-6.6812,-6.6812,-6.6812,-6.6914,-6.7049,-6.7252,-6.7624,-6.8132,-6.8707,-6.9147,-6.9519,-7.006,-7.0331,-7.0669,-7.1007,-7.1244,-7.1278,-7.1312,-7.1312,-7.1312,-7.1312,-7.1312,-7.1312,-7.1312,-7.1312,-7.1312,-7.1312,-7.1312,-7.1312,-7.1312,-7.1312,-7.1312,-7.1312,-7.1312,-7.1312,-7.1312,-7.1312,-7.1267,-7.1176,-7.0916,-7.0733,-7.0502,-7.0363,-7.0256,-7.0129,-7.0035,-6.9893,-6.9526,-6.9382,-7.3721,-7.3562,-7.1994,-7.1278,-7.1007,-7.0432,-7.0094,-7.0094,-6.9586,-6.9722,-7.05,-7.1041,-7.1312,-7.1312,-7.1312,-7.1312,-7.1312,-7.1312,-7.1312,-7.1312,-7.1312,-7.1312,-7.1312,-7.1312,-7.1312,-7.1312,-7.1312,-7.1312,-7.1312,-7.1312,-7.1312,-7.1312,-7.1312,-7.1312,-7.1312,-7.1312,-7.1312,-7.1312,-7.1312,-7.1312,-7.1312,-7.1312,-7.1312,-7.1312,-7.1312,-7.1312,-7.1312,-7.1312,-7.1312,-7.1312,-7.1312,-7.1312,-7.1312,-7.1312,-7.1244,-7.1176,-7.0567,-7.0263,-7.0094,-6.9417,-6.8741,-6.803,-6.7895,-6.7726,-6.7151,-6.6948,-6.7117,-6.7387,-6.7184,-6.7387,-6.7624,-6.7929,-6.8368,-6.891,-6.9485,-6.9891,-7.0263,-7.0567,-7.0838,-7.0939,-7.1109,-7.1312,-7.1312,-7.1312,-7.1312,-7.1312,-7.1312,-7.1312,-7.1312,-7.1312,-7.1312,-7.1312,-7.1312,-7.1312,-7.1312,-7.1312,-7.1312,-7.1312,-7.1312,-7.1312,-7.1312,-7.1312,-7.1267,-7.1267,-7.1098,-7.0916,-7.0733,-7.0515,-7.041,-7.0316,-7.0082,-6.9941,-6.9846,-6.9798,-6.9622,-7.3442,-7.2832,-7.1776,-7.1312,-7.121,-7.05,-7.0466,-7.0838,-7.0703,-7.0703,-7.0939,-7.1244,-7.1312,-7.1312,-7.1312,-7.1312,-7.1312,-7.1312,-7.1312,-7.1312,-7.1312,-7.1312,-7.1312,-7.1312,-7.1312,-7.1312,-7.1312,-7.1312,-7.1312,-7.1312,-7.1312,-7.1312,-7.1312,-7.1312,-7.1312,-7.1312,-7.1312,-7.1312,-7.1312,-7.1312,-7.1312,-7.1312,-7.1312,-7.1312,-7.1312,-7.1312,-7.1312,-7.1312,-7.1312,-7.1312,-7.1312,-7.1312,-7.1312,-7.1312,-7.1312,-7.1312,-7.0939,-7.0939,-7.0906,-7.0534,-6.9958,-6.9214,-6.8673,-6.8571,-6.8335,-6.8335,-6.8335,-6.8233,-6.8132,-6.8368,-6.8639,-6.8707,-6.9045,-6.962,-7.0128,-7.0432,-7.077,-7.1007,-7.121,-7.121,-7.1312,-7.1312,-7.1312,-7.1312,-7.1312,-7.1312,-7.1312,-7.1312,-7.1312,-7.1312,-7.1312,-7.1312,-7.1312,-7.1312,-7.1312,-7.1312,-7.1312,-7.1312,-7.1312,-7.1312,-7.1312,-7.1312,-7.1312,-7.1267,-7.1086,-7.087,-7.0779,-7.0608,-7.0515,-7.0376,-7.0383,-7.0262,-7.0201,-7.0087,-6.9941,-7.376,-7.2914,-7.2398,-7.2176,-7.1996,-7.1054,-7.0881,-7.1246,-7.1084,-7.1041,-7.1278,-7.1312,-7.1312,-7.1312,-7.1312,-7.1312,-7.1312,-7.1312,-7.1312,-7.1312,-7.1312,-7.1312,-7.1312,-7.1312,-7.1312,-7.1312,-7.1312,-7.1312,-7.1312,-7.1312,-7.1312,-7.1312,-7.1312,-7.1312,-7.1312,-7.1312,-7.1312,-7.1312,-7.1312,-7.1312,-7.1312,-7.1312,-7.1312,-7.1312,-7.1312,-7.1312,-7.1312,-7.1312,-7.1312,-7.1312,-7.1312,-7.1312,-7.1312,-7.1312,-7.1312,-7.1312,-7.1312,-7.1278,-7.1244,-7.1244,-7.0635,-7.0094,-6.9688,-6.935,-6.918,-6.891,-6.8944,-6.8977,-6.9147,-6.9316,-6.9417,-6.9451,-6.9755,-7.0331,-7.0635,-7.0973,-7.1041,-7.1278,-7.1312,-7.1312,-7.1312,-7.1312,-7.1312,-7.1312,-7.1312,-7.1312,-7.1312,-7.1312,-7.1312,-7.1312,-7.1312,-7.1312,-7.1312,-7.1312,-7.1312,-7.1312,-7.1312,-7.1312,-7.1312,-7.1312,-7.1312,-7.1312,-7.1312,-7.1267,-7.1052,-7.0916,-7.087,-7.0779,-7.08,-7.098,-7.1161,-7.0963,-7.0637,-7.0476,-7.0362,-7.4565,-7.3838,-7.3799,-7.3721,-7.3462,-7.2063,-7.1415,-7.1331,-7.0624,-7.0703,-7.1312,-7.1312,-7.1312,-7.1312,-7.1312,-7.1312,-7.1312,-7.1312,-7.1312,-7.1312,-7.1312,-7.1312,-7.1312,-7.1312,-7.1312,-7.1312,-7.1312,-7.1312,-7.1312,-7.1312,-7.1312,-7.1312,-7.1312,-7.1312,-7.1312,-7.1312,-7.1312,-7.1312,-7.1312,-7.1312,-7.1312,-7.1312,-7.1312,-7.1312,-7.1312,-7.1312,-7.1345,-7.1413,-7.1413,-7.1379,-7.1379,-7.1345,-7.1345,-7.13,-7.1345,-7.1447,-7.1515,-7.1582,-7.1481,-7.1515,-7.1312,-7.0872,-7.05,-6.9925,-6.962,-6.9586,-6.9654,-6.962,-6.9688,-6.9891,-7.0094,-7.0263,-7.0466,-7.0838,-7.1109,-7.1244,-7.1244,-7.1312,-7.1312,-7.1312,-7.1312,-7.1312,-7.1312,-7.1312,-7.1312,-7.1312,-7.1312,-7.1312,-7.1312,-7.1312,-7.1312,-7.1312,-7.1312,-7.1312,-7.1312,-7.1312,-7.1312,-7.1312,-7.1312,-7.1312,-7.1312,-7.1312,-7.1312,-7.1222,-7.1052,-7.1029,-7.1277,-7.131,-7.1277,-7.1491,-7.1963,-7.1678,-7.1339,-7.1003,-7.0876,-7.4602,-7.3799,-7.3799,-7.3799,-7.3646,-7.263,-7.1884,-7.1338,-7.1063,-7.1142,-7.1312,-7.1312,-7.1312,-7.1312,-7.1312,-7.1312,-7.1312,-7.1312,-7.1312,-7.1312,-7.1312,-7.1312,-7.1312,-7.1312,-7.1312,-7.1312,-7.1312,-7.1312,-7.1312,-7.1312,-7.1312,-7.1312,-7.1312,-7.1312,-7.1312,-7.1312,-7.1312,-7.1312,-7.1312,-7.1312,-7.1312,-7.1312,-7.1345,-7.1379,-7.1413,-7.1447,-7.1548,-7.1921,-7.1887,-7.1515,-7.1887,-7.1921,-7.1345,-7.1785,-7.2191,-7.28,-7.2834,-7.2699,-7.2225,-7.209,-7.1921,-7.1515,-7.1109,-7.1041,-7.0737,-7.0534,-7.05,-7.0398,-7.0331,-7.0567,-7.0703,-7.0838,-7.0939,-7.1109,-7.1312,-7.1312,-7.1312,-7.1312,-7.1312,-7.1312,-7.1312,-7.1312,-7.1312,-7.1312,-7.1312,-7.1312,-7.1312,-7.1312,-7.1312,-7.1312,-7.1312,-7.1312,-7.1312,-7.1312,-7.1312,-7.1312,-7.1312,-7.1312,-7.1312,-7.1312,-7.1312,-7.1312,-7.1312,-7.13,-7.1278,-7.1582,-7.1965,-7.1999,-7.1987,-7.2481,-7.2886,-7.2431,-7.2009,-7.174,-7.1699,-7.5191,-7.4452,-7.4827,-7.4569,-7.3881,-7.3362,-7.2448,-7.1457,-7.1312,-7.1312,-7.1312,-7.1312,-7.1312,-7.1312,-7.1312,-7.1312,-7.1312,-7.1312,-7.1312,-7.1312,-7.1312,-7.1312,-7.1312,-7.1312,-7.1312,-7.1312,-7.1312,-7.1312,-7.1312,-7.1312,-7.1312,-7.1312,-7.1312,-7.1312,-7.1312,-7.1312,-7.1312,-7.1312,-7.1312,-7.1312,-7.1345,-7.1379,-7.1447,-7.1718,-7.1751,-7.1853,-7.2124,-7.2665,-7.2496,-7.2225,-7.2732,-7.2665,-7.2225,-7.2665,-7.2902,-7.3341,-7.3341,-7.3172,-7.2902,-7.2834,-7.2394,-7.1988,-7.1718,-7.1515,-7.1345,-7.1075,-7.1109,-7.1109,-7.1176,-7.1278,-7.1278,-7.1312,-7.1278,-7.1312,-7.1312,-7.1312,-7.1312,-7.1312,-7.1312,-7.1312,-7.1312,-7.1312,-7.1312,-7.1312,-7.1312,-7.1312,-7.1312,-7.1312,-7.1312,-7.1312,-7.1312,-7.1312,-7.1312,-7.1312,-7.1312,-7.1312,-7.1312,-7.1312,-7.1312,-7.1312,-7.1312,-7.1345,-7.1379,-7.1481,-7.1616,-7.2022,-7.245,-7.2766,-7.2889,-7.335,-7.3756,-7.3561,-7.3184,-7.268,-7.2739,-7.6205,-7.5335,-7.6339,-7.5688,-7.4229,-7.4037,-7.2996,-7.1412,-7.1356,-7.1312,-7.1312,-7.1312,-7.1312,-7.1312,-7.1312,-7.1312,-7.1312,-7.1312,-7.1312,-7.1345,-7.1312,-7.1312,-7.1312,-7.1312,-7.1312,-7.1312,-7.1312,-7.1312,-7.1312,-7.1345,-7.1345,-7.1379,-7.1481,-7.1616,-7.1853,-7.1819,-7.1887,-7.1921,-7.1819,-7.1785,-7.1582,-7.1582,-7.1785,-7.236,-7.2563,-7.2732,-7.324,-7.351,-7.3544,-7.3477,-7.3544,-7.3544,-7.3544,-7.351,-7.3612,-7.3815,-7.3984,-7.3815,-7.368,-7.3578,-7.3138,-7.2766,-7.2462,-7.2124,-7.1853,-7.1413,-7.1312,-7.1312,-7.1312,-7.1312,-7.1312,-7.1312,-7.1312,-7.1312,-7.1312,-7.1312,-7.1312,-7.1312,-7.1312,-7.1312,-7.1312,-7.1312,-7.1312,-7.1312,-7.1312,-7.1312,-7.1312,-7.1312,-7.1447,-7.1447,-7.1379,-7.1345,-7.1345,-7.1345,-7.1312,-7.1312,-7.1312,-7.1312,-7.1379,-7.1312,-7.1312,-7.1379,-7.1447,-7.1887,-7.236,-7.2529,-7.2902,-7.3274,-7.3713,-7.4052,-7.4377,-7.4627,-7.435,-7.3743,-7.383,-7.6639,-7.6406,-7.6705,-7.5826,-7.4381,-7.4305,-7.3241,-7.1556,-7.1512,-7.1457,-7.1312,-7.1312,-7.1312,-7.1312,-7.1379,-7.1413,-7.1379,-7.1582,-7.1345,-7.1447,-7.1481,-7.165,-7.1413,-7.1582,-7.1447,-7.1312,-7.1312,-7.1481,-7.1548,-7.1548,-7.165,-7.209,-7.2157,-7.2293,-7.2732,-7.2732,-7.2732,-7.2665,-7.28,-7.2597,-7.2326,-7.2699,-7.3105,-7.324,-7.3308,-7.3341,-7.3747,-7.4086,-7.3883,-7.368,-7.4119,-7.4289,-7.4356,-7.4356,-7.4627,-7.5033,-7.4999,-7.4728,-7.4458,-7.4289,-7.395,-7.351,-7.3138,-7.2732,-7.2259,-7.165,-7.1345,-7.1345,-7.1312,-7.1312,-7.1312,-7.1312,-7.1345,-7.1345,-7.1379,-7.1379,-7.1379,-7.1379,-7.1379,-7.1345,-7.1345,-7.1379,-7.1379,-7.1413,-7.1312,-7.1312,-7.1312,-7.1379,-7.1718,-7.1785,-7.1548,-7.1481,-7.1379,-7.1379,-7.1447,-7.1616,-7.1785,-7.1684,-7.1684,-7.1548,-7.1413,-7.1785,-7.2225,-7.2766,-7.3206,-7.3375,-7.3646,-7.4119,-7.4492,-7.4762,-7.4931,-7.5134,-7.527,-7.4891,-7.5059,-7.6929,-7.6769,-7.6505,-7.5688,-7.4642,-7.4187,-7.3119,-7.1951,-7.1644,-7.1512,-7.1412,-7.1356,-7.1312,-7.1413,-7.1616,-7.1751,-7.1819,-7.2191,-7.236,-7.2326,-7.2157,-7.236,-7.2259,-7.2157,-7.236,-7.2293,-7.2293,-7.2326,-7.2157,-7.2326,-7.2631,-7.2834,-7.2935,-7.3105,-7.351,-7.351,-7.3544,-7.3443,-7.3815,-7.3713,-7.3274,-7.351,-7.3781,-7.3815,-7.4018,-7.4086,-7.4525,-7.4897,-7.4762,-7.4627,-7.4931,-7.5067,-7.51,-7.51,-7.527,-7.5506,-7.5574,-7.554,-7.5202,-7.4965,-7.4695,-7.4255,-7.395,-7.3612,-7.2496,-7.1921,-7.1582,-7.1548,-7.1345,-7.1312,-7.1312,-7.1312,-7.165,-7.1785,-7.1887,-7.1921,-7.1921,-7.1921,-7.1921,-7.1921,-7.1921,-7.1921,-7.2056,-7.2428,-7.2293,-7.1921,-7.1819,-7.1853,-7.2124,-7.2326,-7.2022,-7.1921,-7.1988,-7.2157,-7.2496,-7.2563,-7.2529,-7.236,-7.2124,-7.236,-7.2529,-7.2699,-7.3037,-7.3477,-7.3849,-7.4086,-7.4424,-7.4796,-7.51,-7.5303,-7.5473,-7.5608,-7.5676,-7.5676,-7.5594,-7.7118,-7.6801,-7.6236,-7.5477,-7.4681,-7.3881,-7.2949,-7.2081,-7.181,-7.1644,-7.1556,-7.1367,-7.1312,-7.1548,-7.2022,-7.2259,-7.2529,-7.2834,-7.3206,-7.3308,-7.3308,-7.3105,-7.3138,-7.3308,-7.3206,-7.3206,-7.3206,-7.324,-7.3206,-7.3206,-7.324,-7.3544,-7.3646,-7.368,-7.3713,-7.3781,-7.3984,-7.4187,-7.4458,-7.4695,-7.4458,-7.4153,-7.4356,-7.4593,-7.4796,-7.51,-7.5506,-7.5676,-7.5676,-7.5608,-7.5506,-7.554,-7.554,-7.5506,-7.5574,-7.5676,-7.5676,-7.5642,-7.5574,-7.554,-7.5236,-7.4931,-7.4762,-7.4119,-7.2969,-7.2462,-7.2157,-7.1887,-7.165,-7.1447,-7.1447,-7.1582,-7.1954,-7.236,-7.2462,-7.2529,-7.2529,-7.2529,-7.2529,-7.2529,-7.2529,-7.2529,-7.28,-7.3206,-7.3071,-7.2699,-7.2563,-7.2631,-7.2732,-7.2902,-7.2868,-7.2969,-7.3172,-7.3375,-7.3409,-7.3341,-7.3172,-7.3037,-7.2902,-7.3274,-7.3578,-7.3612,-7.3747,-7.4052,-7.439,-7.4695,-7.4931,-7.5236,-7.554,-7.5676,-7.5676,-7.5676,-7.5676,-7.5676,-7.5676,-7.7243,-7.715,-7.6436,-7.5688,-7.4901,-7.4072,-7.3189,-7.2296,-7.2029,-7.1776,-7.16,-7.1412,-7.1312,-7.1345,-7.209,-7.2394,-7.2529,-7.324,-7.3477,-7.3443,-7.3747,-7.3612,-7.3646,-7.3916,-7.3578,-7.3612,-7.3713,-7.3544,-7.3883,-7.3781,-7.3849,-7.4356,-7.439,-7.4661,-7.5168,-7.5134,-7.5033,-7.51,-7.5134,-7.5337,-7.5405,-7.527,-7.5371,-7.5473,-7.5506,-7.5574,-7.5676,-7.5676,-7.5676,-7.5676,-7.5676,-7.5676,-7.5676,-7.5676,-7.5676,-7.5676,-7.5676,-7.5676,-7.5676,-7.5676,-7.5405,-7.5371,-7.51,-7.4627,-7.3815,-7.3443,-7.3105,-7.2766,-7.2462,-7.2022,-7.1988,-7.2157,-7.2496,-7.3037,-7.3341,-7.3308,-7.3308,-7.3308,-7.3274,-7.3274,-7.3274,-7.3274,-7.3341,-7.3578,-7.3612,-7.3341,-7.3308,-7.3375,-7.3713,-7.3713,-7.368,-7.3883,-7.4153,-7.3883,-7.3612,-7.3747,-7.368,-7.3578,-7.3646,-7.4018,-7.4289,-7.4356,-7.4525,-7.4728,-7.5033,-7.5337,-7.5574,-7.554,-7.5574,-7.5676,-7.5676,-7.5676,-7.5676,-7.5676,-7.5676]},{"header":{"parameterUnit":"m.s-1","parameterCategory":1,"la1":31.0,"la2":29.5877,"lo1":-88.7671,"lo2":-86.6584,"dx":0.0162,"dy":0.0185,"nx":115,"ny":88,"refTime":"2023-02-12T18:00:00:Z","depth":0,"parameterNumber":3,"parameterNumberName":"V-component_of_WINDS"},"data":[0.0,0.0,0.0,0.0,0.0,0.0,0.0,0.0,0.0,0.0,0.0,0.0,0.0,0.0,0.0,0.0,0.0,0.0,0.0,0.0,0.0,0.0,0.0,0.0,0.0,0.0,0.0,0.0,0.0,0.0,0.0,0.0,0.0,0.0,0.0,0.0,0.0,0.0,0.0,0.0,0.0,0.0,0.0,0.0,0.0,0.0,0.0,0.0,0.0,0.0,0.0,0.0,0.0,0.0,0.0,0.0,0.0,0.0,0.0,0.0,0.0,0.0,0.0,0.0,0.0,0.0,0.0,0.0,0.0,0.0,0.0,0.0,0.0,0.0,0.0,0.0,0.0,0.0,0.0,0.0,0.0,0.0,0.0,0.0,0.0,0.0,0.0,0.0,0.0,0.0,0.0,0.0,0.0,0.0,0.0,0.0,0.0,0.0,0.0,0.0,0.0,0.0,0.0,0.0,0.0,0.0,0.0,0.0,0.0,0.0,0.0,0.0,0.0,0.0,0.0,0.0,0.0,0.0,0.0,0.0,0.0,0.0,0.0,0.0,0.0,0.0,0.0,0.0,0.0,0.0,0.0,0.0,0.0,0.0,0.0,0.0,0.0,0.0,0.0,0.0,0.0,0.0,0.0,0.0,0.0,0.0,0.0,0.0,0.0,0.0,0.0,0.0,0.0,0.0,0.0,0.0,0.0,0.0,0.0,0.0,0.0,0.0,0.0,0.0,0.0,0.0,0.0,0.0,0.0,0.0,0.0,0.0,0.0,0.0,0.0,0.0,0.0,0.0,0.0,0.0,0.0,0.0,0.0,0.0,0.0,0.0,0.0,0.0,0.0,0.0,0.0,0.0,0.0,0.0,0.0,0.0,0.0,0.0,0.0,0.0,0.0,0.0,0.0,0.0,0.0,0.0,0.0,0.0,0.0,0.0,0.0,0.0,0.0,0.0,0.0,0.0,0.0,0.0,0.0,0.0,0.0,0.0,0.0,0.0,0.0,0.0,0.0,0.0,0.0,0.0,0.0,0.0,0.0,0.0,0.0,0.0,0.0,0.0,0.0,0.0,0.0,0.0,0.0,0.0,0.0,0.0,0.0,0.0,0.0,0.0,0.0,0.0,0.0,0.0,0.0,0.0,0.0,0.0,0.0,0.0,0.0,0.0,0.0,0.0,0.0,0.0,0.0,0.0,0.0,0.0,0.0,0.0,0.0,0.0,0.0,0.0,0.0,0.0,0.0,0.0,0.0,0.0,0.0,0.0,0.0,0.0,0.0,0.0,0.0,0.0,0.0,0.0,0.0,0.0,0.0,0.0,0.0,0.0,0.0,0.0,0.0,0.0,0.0,0.0,0.0,0.0,0.0,0.0,0.0,0.0,0.0,0.0,0.0,0.0,0.0,0.0,0.0,0.0,0.0,0.0,0.0,0.0,0.0,0.0,0.0,0.0,0.0,0.0,0.0,0.0,0.0,0.0,0.0,0.0,0.0,0.0,0.0,0.0,0.0,0.0,0.0,0.0,0.0,0.0,0.0,0.0,0.0,0.0,0.0,0.0,0.0,0.0,0.0,0.0,0.0,0.0,0.0,0.0,0.0,0.0,0.0,0.0,0.0,0.0,0.0,0.0,0.0,0.0,0.0,0.0,0.0,0.0,0.0,0.0,0.0,0.0,0.0,0.0,0.0,0.0,0.0,0.0,0.0,0.0,0.0,0.0,0.0,0.0,0.0,0.0,0.0,0.0,0.0,0.0,0.0,0.0,0.0,0.0,0.0,0.0,0.0,0.0,0.0,0.0,0.0,0.0,0.0,0.0,0.0,0.0,0.0,0.0,0.0,0.0,0.0,0.0,0.0,0.0,0.0,0.0,0.0,0.0,0.0,0.0,0.0,0.0,0.0,0.0,0.0,0.0,0.0,0.0,0.0,0.0,0.0,0.0,0.0,0.0,0.0,0.0,0.0,0.0,0.0,0.0,0.0,0.0,0.0,0.0,0.0,0.0,0.0,0.0,0.0,0.0,0.0,0.0,0.0,0.0,0.0,0.0,0.0,0.0,0.0,0.0,0.0,0.0,0.0,0.0,0.0,0.0,0.0,0.0,0.0,0.0,0.0,0.0,0.0,0.0,0.0,0.0,0.0,0.0,0.0,0.0,0.0,0.0,0.0,0.0,0.0,0.0,0.0,0.0,0.0,0.0,0.0,0.0,0.0,0.0,0.0,0.0,0.0,0.0,0.0,0.0,0.0,0.0,0.0,0.0,0.0,0.0,0.0,0.0,0.0,0.0,0.0,0.0,0.0,0.0,0.0,0.0,0.0,0.0,0.0,0.0,0.0,0.0,0.0,0.0,0.0,0.0,0.0,0.0,0.0,0.0,0.0,0.0,0.0,0.0,0.0,0.0,0.0,0.0,0.0,0.0,0.0,0.0,0.0,0.0,0.0,0.0,0.0,0.0,0.0,0.0,0.0,0.0,0.0,0.0,0.0,0.0,0.0,0.0,0.0,0.0,0.0,0.0,0.0,0.0,0.0,0.0,0.0,0.0,0.0,0.0,0.0,0.0,0.0,0.0,0.0,0.0,0.0,0.0,0.0,0.0,0.0,0.0,0.0,0.0,0.0,0.0,0.0,0.0,0.0,0.0,0.0,0.0,0.0,0.0,0.0,0.0,0.0,0.0,0.0,0.0,0.0,0.0,0.0,0.0,0.0,0.0,0.0,0.0,0.0,0.0,0.0,0.0,0.0,0.0,0.0,0.0,0.0,0.0,0.0,0.0,0.0,0.0,0.0,0.0,0.0,0.0,0.0,0.0,0.0,0.0,0.0,0.0,0.0,0.0,0.0,0.0,0.0,0.0,0.0,0.0,0.0,0.0,0.0,0.0,0.0,0.0,0.0,0.0,0.0,0.0,0.0,0.0,0.0,0.0,0.0,0.0,0.0,0.0,0.0,0.0,0.0,0.0,0.0,0.0,0.0,0.0,0.0,0.0,0.0,0.0,0.0,0.0,0.0,0.0,0.0,0.0,0.0,0.0,0.0,0.0,0.0,0.0,0.0,0.0,0.0,0.0,0.0,0.0,0.0,0.0,0.0,0.0,0.0,0.0,0.0,0.0,0.0,0.0,0.0,0.0,0.0,0.0,0.0,0.0,0.0,0.0,0.0,0.0,0.0,0.0,0.0,0.0,0.0,0.0,0.0,0.0,0.0,0.0,0.0,0.0,0.0,0.0,0.0,0.0,0.0,0.0,0.0,0.0,0.0,0.0,0.0,0.0,0.0,0.0,0.0,0.0,0.0,0.0,0.0,0.0,0.0,0.0,0.0,0.0,0.0,0.0,0.0,0.0,0.0,0.0,0.0,0.0,0.0,0.0,0.0,0.0,0.0,0.0,0.0,0.0,0.0,0.0,0.0,0.0,0.0,0.0,0.0,0.0,0.0,0.0,0.0,0.0,0.0,0.0,0.0,0.0,0.0,0.0,0.0,0.0,0.0,0.0,0.0,0.0,0.0,0.0,0.0,0.0,0.0,0.0,0.0,0.0,0.0,0.0,0.0,0.0,0.0,0.0,0.0,0.0,0.0,0.0,0.0,0.0,0.0,0.0,0.0,0.0,0.0,0.0,0.0,0.0,0.0,0.0,0.0,0.0,0.0,0.0,0.0,0.0,0.0,0.0,0.0,0.0,0.0,0.0,0.0,0.0,0.0,0.0,0.0,0.0,0.0,0.0,0.0,0.0,0.0,0.0,0.0,0.0,0.0,0.0,0.0,0.0,0.0,0.0,0.0,0.0,0.0,0.0,0.0,0.0,0.0,0.0,0.0,0.0,0.0,0.0,0.0,0.0,0.0,0.0,0.0,0.0,0.0,0.0,0.0,0.0,0.0,0.0,0.0,0.0,0.0,0.0,0.0,0.0,0.0,0.0,0.0,0.0,0.0,0.0,0.0,0.0,0.0,0.0,0.0,0.0,0.0,0.0,0.0,0.0,0.0,0.0,0.0,0.0,0.0,0.0,0.0,0.0,0.0,0.0,0.0,0.0,0.0,0.0,0.0,0.0,0.0,0.0,0.0,0.0,0.0,0.0,0.0,0.0,0.0,0.0,0.0,0.0,0.0,0.0,0.0,0.0,0.0,0.0,0.0,0.0,0.0,0.0,0.0,0.0,0.0,0.0,0.0,0.0,0.0,0.0,0.0,0.0,0.0,0.0,0.0,0.0,0.0,0.0,0.0,0.0,0.0,0.0,0.0,0.0,0.0,0.0,0.0,0.0,0.0,0.0,0.0,0.0,0.0,0.0,2.7552,0.0,0.0,0.0,0.0,0.0,0.0,0.0,0.0,0.0,0.0,0.0,0.0,0.0,0.0,0.0,0.0,0.0,0.0,0.0,0.0,0.0,0.0,0.0,0.0,0.0,0.0,0.0,0.0,0.0,0.0,0.0,0.0,0.0,0.0,0.0,0.0,0.0,0.0,0.0,0.0,0.0,0.0,0.0,0.0,0.0,0.0,0.0,0.0,0.0,0.0,0.0,0.0,0.0,0.0,0.0,0.0,0.0,0.0,0.0,0.0,0.0,0.0,0.0,0.0,0.0,0.0,0.0,0.0,0.0,0.0,0.0,0.0,0.0,0.0,0.0,0.0,0.0,0.0,0.0,0.0,0.0,0.0,0.0,0.0,0.0,0.0,0.0,0.0,0.0,0.0,0.0,0.0,0.0,0.0,0.0,0.0,0.0,0.0,0.0,0.0,0.0,0.0,0.0,0.0,0.0,0.0,0.0,0.0,0.0,0.0,2.8301,2.8281,2.7943,2.7559,2.7305,0.0,0.0,0.0,0.0,0.0,0.0,0.0,0.0,0.0,0.0,0.0,0.0,0.0,0.0,0.0,0.0,0.0,0.0,0.0,0.0,0.0,0.0,0.0,0.0,0.0,0.0,0.0,0.0,0.0,0.0,0.0,0.0,0.0,0.0,0.0,0.0,0.0,0.0,0.0,0.0,0.0,0.0,0.0,0.0,0.0,0.0,0.0,0.0,0.0,0.0,0.0,0.0,0.0,0.0,0.0,0.0,0.0,0.0,0.0,0.0,0.0,0.0,0.0,0.0,0.0,0.0,0.0,0.0,0.0,0.0,0.0,0.0,0.0,0.0,0.0,0.0,0.0,0.0,0.0,0.0,0.0,0.0,0.0,0.0,0.0,0.0,0.0,0.0,0.0,0.0,0.0,0.0,0.0,0.0,0.0,0.0,0.0,0.0,0.0,0.0,0.0,0.0,0.0,0.0,0.0,0.0,0.0,0.0,0.0,0.0,0.0,0.0,2.7832,2.7422,2.6875,0.0,0.0,0.0,0.0,0.0,0.0,0.0,0.0,0.0,0.0,0.0,0.0,0.0,0.0,0.0,0.0,0.0,0.0,0.0,0.0,0.0,0.0,0.0,0.0,0.0,0.0,0.0,0.0,0.0,0.0,0.0,0.0,0.0,0.0,0.0,0.0,0.0,0.0,0.0,0.0,0.0,0.0,0.0,0.0,0.0,0.0,0.0,0.0,0.0,0.0,0.0,0.0,0.0,0.0,0.0,0.0,0.0,0.0,0.0,0.0,0.0,0.0,0.0,0.0,0.0,0.0,0.0,0.0,0.0,0.0,0.0,0.0,0.0,0.0,0.0,0.0,0.0,0.0,0.0,0.0,0.0,0.0,0.0,0.0,0.0,0.0,0.0,0.0,0.0,0.0,0.0,0.0,0.0,0.0,0.0,0.0,0.0,0.0,0.0,0.0,0.0,0.0,0.0,0.0,0.0,0.0,0.0,0.0,0.0,0.0,2.8105,2.7734,2.7728,0.0,2.6484,0.0,0.0,0.0,0.0,0.0,0.0,0.0,0.0,0.0,0.0,0.0,0.0,0.0,0.0,0.0,0.0,0.0,0.0,0.0,0.0,0.0,0.0,0.0,0.0,0.0,0.0,0.0,0.0,0.0,0.0,0.0,0.0,0.0,0.0,0.0,0.0,0.0,0.0,0.0,0.0,0.0,0.0,0.0,0.0,0.0,0.0,0.0,0.0,0.0,0.0,0.0,0.0,0.0,0.0,0.0,0.0,0.0,0.0,0.0,0.0,0.0,0.0,0.0,0.0,0.0,0.0,0.0,0.0,0.0,0.0,0.0,0.0,0.0,0.0,0.0,0.0,0.0,0.0,0.0,0.0,0.0,0.0,0.0,0.0,0.0,0.0,0.0,0.0,0.0,0.0,0.0,0.0,0.0,0.0,0.0,0.0,0.0,0.0,0.0,0.0,0.0,0.0,0.0,0.0,0.0,0.0,0.0,0.0,0.0,0.0,2.7885,2.7728,2.7402,2.6992,0.0,0.0,0.0,0.0,0.0,0.0,0.0,0.0,0.0,0.0,0.0,0.0,0.0,0.0,0.0,0.0,0.0,0.0,0.0,0.0,0.0,0.0,0.0,0.0,0.0,0.0,0.0,0.0,0.0,0.0,0.0,0.0,0.0,0.0,0.0,0.0,0.0,0.0,0.0,0.0,0.0,0.0,0.0,0.0,0.0,0.0,0.0,0.0,0.0,0.0,0.0,0.0,0.0,0.0,0.0,0.0,0.0,0.0,0.0,0.0,0.0,0.0,0.0,0.0,0.0,0.0,0.0,0.0,0.0,0.0,0.0,0.0,0.0,0.0,0.0,0.0,0.0,0.0,0.0,0.0,0.0,0.0,0.0,0.0,0.0,0.0,0.0,0.0,0.0,0.0,0.0,0.0,0.0,0.0,0.0,0.0,0.0,0.0,0.0,0.0,0.0,0.0,0.0,0.0,0.0,0.0,0.0,0.0,0.0,0.0,2.7832,2.7832,2.7865,2.7305,2.6875,2.6562,0.0,0.0,0.0,0.0,0.0,0.0,0.0,0.0,0.0,0.0,0.0,0.0,0.0,0.0,0.0,0.0,0.0,0.0,0.0,0.0,0.0,0.0,0.0,0.0,0.0,0.0,0.0,0.0,0.0,0.0,0.0,0.0,0.0,0.0,0.0,0.0,0.0,0.0,0.0,0.0,0.0,0.0,0.0,0.0,0.0,0.0,0.0,0.0,0.0,0.0,0.0,0.0,0.0,0.0,0.0,0.0,0.0,0.0,0.0,0.0,0.0,0.0,0.0,0.0,0.0,0.0,0.0,0.0,0.0,0.0,0.0,0.0,0.0,0.0,0.0,0.0,0.0,0.0,0.0,0.0,0.0,0.0,0.0,0.0,0.0,0.0,0.0,0.0,0.0,0.0,0.0,0.0,0.0,0.0,0.0,0.0,0.0,0.0,0.0,0.0,0.0,0.0,0.0,0.0,0.0,0.0,0.0,0.0,2.8262,2.8262,2.8262,2.8242,2.7441,2.7012,0.0,0.0,0.0,0.0,0.0,0.0,0.0,0.0,0.0,0.0,0.0,0.0,0.0,0.0,0.0,0.0,0.0,0.0,0.0,0.0,0.0,0.0,0.0,0.0,0.0,0.0,0.0,0.0,0.0,0.0,0.0,0.0,0.0,0.0,0.0,0.0,0.0,0.0,0.0,0.0,0.0,0.0,0.0,0.0,0.0,0.0,0.0,0.0,0.0,0.0,0.0,0.0,0.0,0.0,0.0,0.0,0.0,0.0,0.0,0.0,0.0,0.0,0.0,0.0,0.0,0.0,0.0,0.0,0.0,0.0,0.0,0.0,0.0,0.0,0.0,0.0,0.0,0.0,0.0,0.0,0.0,0.0,0.0,0.0,0.0,0.0,0.0,0.0,0.0,0.0,0.0,0.0,0.0,0.0,0.0,0.0,0.0,0.0,0.0,0.0,0.0,0.0,0.0,0.0,0.0,0.0,0.0,0.0,0.0,2.7891,2.7891,2.8027,2.8262,2.7734,2.7474,0.0,0.0,0.0,0.0,0.0,0.0,0.0,0.0,0.0,0.0,0.0,0.0,0.0,0.0,0.0,0.0,0.0,0.0,0.0,0.0,0.0,0.0,0.0,0.0,0.0,0.0,0.0,0.0,0.0,0.0,0.0,0.0,0.0,0.0,0.0,0.0,0.0,0.0,0.0,0.0,0.0,0.0,0.0,0.0,0.0,0.0,0.0,0.0,0.0,0.0,0.0,0.0,0.0,0.0,0.0,0.0,0.0,0.0,0.0,0.0,0.0,0.0,0.0,0.0,0.0,0.0,0.0,0.0,0.0,0.0,0.0,0.0,0.0,0.0,0.0,0.0,0.0,0.0,0.0,0.0,0.0,0.0,0.0,0.0,0.0,0.0,0.0,0.0,0.0,0.0,0.0,0.0,0.0,0.0,0.0,0.0,0.0,0.0,0.0,0.0,0.0,0.0,0.0,0.0,0.0,0.0,0.0,0.0,0.0,2.7924,0.0,2.8008,2.8262,2.8027,2.7793,0.0,0.0,0.0,0.0,0.0,0.0,0.0,0.0,0.0,0.0,0.0,0.0,0.0,0.0,0.0,0.0,0.0,0.0,0.0,0.0,0.0,0.0,0.0,0.0,0.0,0.0,0.0,0.0,0.0,0.0,0.0,0.0,0.0,0.0,0.0,0.0,0.0,0.0,0.0,0.0,0.0,0.0,0.0,0.0,0.0,0.0,0.0,0.0,0.0,0.0,0.0,0.0,0.0,0.0,0.0,0.0,0.0,0.0,0.0,0.0,0.0,0.0,0.0,0.0,0.0,0.0,0.0,0.0,0.0,0.0,0.0,0.0,0.0,0.0,0.0,0.0,0.0,0.0,0.0,0.0,0.0,0.0,0.0,0.0,0.0,0.0,0.0,0.0,0.0,0.0,0.0,0.0,0.0,0.0,0.0,0.0,0.0,0.0,0.0,0.0,0.0,0.0,0.0,0.0,0.0,0.0,0.0,0.0,2.8281,2.8281,2.8281,2.8281,2.8301,2.8281,2.8105,0.0,0.0,0.0,0.0,0.0,0.0,0.0,0.0,0.0,0.0,0.0,0.0,0.0,0.0,0.0,0.0,0.0,0.0,0.0,0.0,0.0,0.0,0.0,0.0,0.0,0.0,0.0,0.0,0.0,0.0,0.0,0.0,0.0,0.0,0.0,0.0,0.0,0.0,0.0,0.0,0.0,0.0,0.0,0.0,0.0,0.0,0.0,0.0,0.0,0.0,0.0,0.0,0.0,0.0,0.0,0.0,0.0,0.0,0.0,0.0,0.0,0.0,0.0,0.0,0.0,0.0,0.0,0.0,0.0,0.0,0.0,0.0,0.0,0.0,0.0,0.0,0.0,0.0,0.0,0.0,0.0,0.0,0.0,0.0,0.0,0.0,0.0,0.0,0.0,0.0,0.0,0.0,0.0,0.0,0.0,0.0,0.0,0.0,0.0,0.0,0.0,0.0,0.0,0.0,0.0,0.0,0.0,0.0,0.0,2.8301,2.8301,2.8437,2.8711,2.8437,2.8359,0.0,0.0,0.0,0.0,0.0,0.0,0.0,0.0,0.0,0.0,0.0,0.0,0.0,0.0,0.0,0.0,0.0,0.0,0.0,0.0,0.0,0.0,0.0,0.0,0.0,0.0,0.0,0.0,0.0,0.0,0.0,0.0,0.0,0.0,0.0,0.0,0.0,0.0,0.0,0.0,0.0,0.0,0.0,0.0,0.0,0.0,0.0,0.0,0.0,0.0,0.0,0.0,0.0,0.0,0.0,0.0,0.0,0.0,0.0,0.0,0.0,0.0,0.0,0.0,0.0,0.0,0.0,0.0,0.0,0.0,0.0,0.0,0.0,0.0,0.0,0.0,0.0,0.0,0.0,0.0,0.0,0.0,0.0,0.0,0.0,0.0,0.0,0.0,0.0,0.0,0.0,0.0,0.0,0.0,0.0,0.0,0.0,0.0,0.0,0.0,0.0,0.0,0.0,0.0,0.0,0.0,0.0,0.0,0.0,2.9004,2.8848,2.8887,2.916,2.8906,2.873,2.8672,0.0,0.0,0.0,0.0,0.0,0.0,0.0,0.0,0.0,0.0,0.0,0.0,0.0,0.0,0.0,0.0,0.0,0.0,0.0,0.0,0.0,0.0,0.0,0.0,0.0,0.0,0.0,0.0,0.0,0.0,0.0,0.0,0.0,0.0,0.0,0.0,0.0,0.0,0.0,0.0,0.0,0.0,0.0,0.0,0.0,0.0,0.0,0.0,0.0,0.0,0.0,0.0,0.0,0.0,0.0,0.0,0.0,0.0,0.0,0.0,0.0,0.0,0.0,0.0,0.0,0.0,0.0,0.0,0.0,0.0,0.0,0.0,0.0,0.0,0.0,0.0,0.0,0.0,0.0,0.0,0.0,0.0,0.0,0.0,0.0,0.0,0.0,0.0,0.0,0.0,0.0,0.0,0.0,0.0,0.0,0.0,0.0,0.0,0.0,0.0,0.0,0.0,0.0,0.0,0.0,0.0,0.0,0.0,3.0255,2.9961,2.9841,2.9746,2.9648,2.9219,0.0,0.0,0.0,0.0,0.0,0.0,0.0,0.0,0.0,0.0,0.0,0.0,0.0,0.0,0.0,0.0,0.0,0.0,0.0,0.0,0.0,0.0,0.0,0.0,0.0,0.0,0.0,0.0,0.0,0.0,0.0,0.0,0.0,0.0,0.0,0.0,0.0,0.0,0.0,0.0,0.0,0.0,0.0,0.0,0.0,0.0,0.0,0.0,0.0,0.0,0.0,0.0,0.0,0.0,0.0,0.0,0.0,0.0,0.0,0.0,0.0,0.0,0.0,0.0,0.0,0.0,0.0,0.0,0.0,0.0,0.0,0.0,0.0,0.0,0.0,0.0,0.0,0.0,0.0,0.0,0.0,0.0,0.0,0.0,0.0,0.0,0.0,0.0,0.0,0.0,0.0,0.0,0.0,0.0,0.0,0.0,0.0,0.0,0.0,0.0,0.0,0.0,0.0,0.0,0.0,0.0,0.0,0.0,0.0,3.1172,3.1973,3.2129,3.1563,3.0547,2.9922,0.0,0.0,0.0,0.0,0.0,0.0,0.0,0.0,0.0,0.0,0.0,0.0,0.0,0.0,0.0,0.0,0.0,0.0,0.0,0.0,0.0,0.0,0.0,0.0,0.0,0.0,0.0,0.0,0.0,0.0,0.0,0.0,0.0,0.0,0.0,0.0,0.0,0.0,0.0,0.0,0.0,0.0,0.0,0.0,0.0,0.0,0.0,0.0,0.0,0.0,0.0,0.0,0.0,0.0,0.0,0.0,0.0,0.0,0.0,0.0,0.0,0.0,0.0,0.0,0.0,0.0,0.0,0.0,0.0,0.0,0.0,0.0,0.0,0.0,0.0,0.0,0.0,0.0,0.0,0.0,0.0,0.0,0.0,0.0,0.0,0.0,0.0,0.0,0.0,0.0,0.0,0.0,0.0,0.0,0.0,0.0,0.0,0.0,0.0,0.0,0.0,0.0,0.0,0.0,0.0,0.0,0.0,0.0,3.1269,3.1797,3.3398,3.4023,3.3535,3.1894,3.0762,0.0,0.0,0.0,0.0,0.0,0.0,0.0,0.0,0.0,0.0,0.0,0.0,0.0,0.0,0.0,0.0,0.0,0.0,0.0,0.0,0.0,0.0,0.0,0.0,0.0,0.0,0.0,0.0,0.0,0.0,0.0,0.0,0.0,0.0,0.0,0.0,0.0,0.0,0.0,0.0,0.0,0.0,0.0,0.0,0.0,0.0,0.0,0.0,0.0,0.0,0.0,0.0,0.0,0.0,0.0,0.0,0.0,0.0,0.0,0.0,0.0,0.0,0.0,0.0,0.0,0.0,0.0,0.0,0.0,0.0,0.0,0.0,0.0,0.0,0.0,0.0,0.0,0.0,0.0,0.0,0.0,0.0,0.0,0.0,0.0,0.0,0.0,0.0,0.0,0.0,0.0,0.0,0.0,0.0,0.0,0.0,0.0,0.0,0.0,0.0,0.0,0.0,0.0,0.0,0.0,0.0,0.0,0.0,3.2268,3.2324,3.4375,3.5449,3.5457,3.3383,3.1601,0.0,0.0,0.0,0.0,0.0,0.0,0.0,0.0,0.0,0.0,0.0,0.0,0.0,0.0,0.0,0.0,0.0,0.0,0.0,0.0,0.0,0.0,0.0,0.0,0.0,0.0,0.0,0.0,0.0,0.0,0.0,0.0,0.0,0.0,0.0,0.0,0.0,0.0,0.0,0.0,0.0,0.0,0.0,0.0,0.0,0.0,0.0,0.0,0.0,0.0,0.0,0.0,0.0,0.0,0.0,0.0,0.0,0.0,0.0,0.0,0.0,0.0,0.0,0.0,0.0,0.0,0.0,0.0,0.0,0.0,0.0,0.0,0.0,0.0,0.0,0.0,0.0,0.0,0.0,0.0,0.0,0.0,0.0,0.0,0.0,0.0,0.0,0.0,0.0,0.0,0.0,0.0,0.0,0.0,0.0,0.0,0.0,0.0,0.0,0.0,0.0,0.0,0.0,0.0,0.0,0.0,0.0,0.0,3.25,3.3164,3.4941,3.6014,3.6245,3.3646,3.1875,0.0,0.0,0.0,0.0,0.0,0.0,0.0,0.0,0.0,0.0,0.0,0.0,0.0,0.0,0.0,0.0,0.0,0.0,0.0,0.0,0.0,0.0,0.0,0.0,0.0,0.0,0.0,0.0,0.0,0.0,0.0,0.0,0.0,0.0,0.0,0.0,0.0,0.0,0.0,0.0,0.0,0.0,0.0,0.0,0.0,0.0,0.0,0.0,3.653,0.0,0.0,0.0,0.0,0.0,0.0,0.0,0.0,0.0,0.0,0.0,0.0,0.0,0.0,0.0,0.0,0.0,0.0,0.0,0.0,0.0,0.0,0.0,0.0,0.0,0.0,0.0,0.0,0.0,0.0,0.0,0.0,0.0,0.0,0.0,0.0,0.0,0.0,0.0,0.0,0.0,0.0,0.0,0.0,0.0,0.0,0.0,0.0,0.0,0.0,0.0,0.0,0.0,0.0,0.0,0.0,0.0,0.0,0.0,3.2824,3.369,3.5514,3.6606,3.6662,3.4545,3.295,0.0,0.0,0.0,0.0,0.0,0.0,0.0,0.0,0.0,0.0,0.0,0.0,0.0,0.0,0.0,0.0,0.0,0.0,0.0,0.0,0.0,0.0,0.0,0.0,0.0,0.0,0.0,0.0,0.0,0.0,0.0,0.0,0.0,0.0,0.0,0.0,0.0,0.0,0.0,0.0,0.0,0.0,0.0,0.0,0.0,0.0,0.0,0.0,0.0,0.0,0.0,0.0,0.0,0.0,0.0,0.0,0.0,0.0,0.0,0.0,0.0,0.0,0.0,0.0,0.0,0.0,0.0,0.0,0.0,0.0,0.0,0.0,0.0,0.0,0.0,0.0,0.0,0.0,0.0,0.0,0.0,0.0,0.0,0.0,0.0,0.0,0.0,0.0,0.0,0.0,0.0,0.0,0.0,0.0,0.0,0.0,0.0,0.0,0.0,0.0,0.0,0.0,0.0,0.0,0.0,0.0,0.0,3.186,3.3351,3.4386,3.6202,3.7206,3.7126,3.5699,3.4386,3.3357,0.0,0.0,0.0,0.0,0.0,0.0,0.0,0.0,0.0,0.0,0.0,0.0,0.0,0.0,0.0,0.0,0.0,0.0,0.0,0.0,0.0,0.0,0.0,0.0,0.0,0.0,0.0,0.0,0.0,0.0,0.0,0.0,0.0,0.0,0.0,0.0,0.0,0.0,2.924,2.9962,0.0,0.0,0.0,0.0,0.0,0.0,0.0,0.0,3.7191,0.0,0.0,0.0,0.0,0.0,0.0,0.0,0.0,0.0,0.0,0.0,0.0,0.0,0.0,0.0,0.0,0.0,0.0,0.0,0.0,0.0,0.0,0.0,0.0,0.0,0.0,0.0,0.0,0.0,0.0,0.0,0.0,0.0,0.0,0.0,0.0,0.0,0.0,0.0,0.0,0.0,0.0,0.0,0.0,0.0,0.0,0.0,0.0,0.0,0.0,0.0,0.0,0.0,0.0,0.0,0.0,3.1583,3.2914,3.4401,3.5987,3.7099,3.7597,3.7502,3.6831,3.5904,3.4491,0.0,0.0,0.0,0.0,0.0,0.0,0.0,0.0,0.0,0.0,0.0,0.0,0.0,0.0,0.0,0.0,0.0,0.0,0.0,0.0,0.0,0.0,0.0,0.0,0.0,0.0,0.0,0.0,0.0,0.0,0.0,0.0,0.0,0.0,0.0,0.0,0.0,0.0,0.0,3.3322,3.3796,0.0,0.0,0.0,0.0,0.0,0.0,0.0,0.0,3.8115,0.0,0.0,0.0,0.0,0.0,0.0,0.0,0.0,0.0,0.0,0.0,0.0,0.0,0.0,0.0,0.0,0.0,0.0,0.0,0.0,0.0,0.0,0.0,0.0,0.0,0.0,0.0,0.0,0.0,0.0,0.0,0.0,0.0,0.0,0.0,0.0,0.0,0.0,0.0,0.0,0.0,0.0,0.0,0.0,0.0,0.0,0.0,0.0,0.0,0.0,0.0,0.0,0.0,0.0,0.0,3.2336,3.374,3.5182,3.6638,3.7549,3.7995,3.7904,3.6999,3.5953,0.0,0.0,0.0,0.0,0.0,0.0,0.0,0.0,0.0,0.0,0.0,0.0,0.0,0.0,0.0,0.0,0.0,0.0,0.0,0.0,0.0,0.0,0.0,0.0,0.0,0.0,0.0,0.0,0.0,0.0,0.0,0.0,0.0,0.0,0.0,0.0,0.0,0.0,0.0,0.0,3.3947,3.4811,3.7497,0.0,0.0,0.0,0.0,0.0,0.0,3.8366,3.8191,0.0,0.0,0.0,0.0,0.0,0.0,0.0,0.0,0.0,0.0,0.0,0.0,0.0,0.0,0.0,0.0,0.0,0.0,0.0,0.0,0.0,0.0,0.0,0.0,0.0,0.0,0.0,0.0,0.0,0.0,0.0,0.0,0.0,0.0,0.0,0.0,0.0,0.0,0.0,0.0,0.0,0.0,0.0,0.0,0.0,0.0,0.0,0.0,0.0,0.0,0.0,0.0,0.0,0.0,0.0,3.2974,3.4512,3.5865,3.7176,3.7934,3.8274,3.8171,3.6929,3.5832,0.0,0.0,0.0,0.0,0.0,0.0,0.0,0.0,0.0,0.0,0.0,0.0,0.0,0.0,0.0,0.0,0.0,0.0,0.0,0.0,0.0,0.0,0.0,0.0,0.0,0.0,0.0,0.0,0.0,0.0,0.0,0.0,0.0,0.0,0.0,0.0,0.0,0.0,0.0,0.0,0.0,3.5999,3.8631,3.828,0.0,0.0,0.0,0.0,3.8492,3.8793,0.0,0.0,0.0,0.0,0.0,0.0,0.0,0.0,0.0,0.0,0.0,0.0,0.0,0.0,0.0,0.0,0.0,0.0,0.0,0.0,0.0,0.0,0.0,0.0,0.0,0.0,0.0,0.0,0.0,0.0,0.0,0.0,0.0,0.0,0.0,0.0,0.0,0.0,0.0,0.0,0.0,0.0,0.0,0.0,0.0,0.0,0.0,0.0,0.0,0.0,0.0,0.0,0.0,0.0,0.0,0.0,3.4106,3.5314,3.6637,3.798,3.8476,3.8585,3.8191,3.7239,3.6287,0.0,0.0,0.0,0.0,0.0,0.0,0.0,0.0,0.0,0.0,0.0,0.0,0.0,0.0,0.0,0.0,0.0,0.0,0.0,0.0,0.0,0.0,0.0,0.0,0.0,0.0,0.0,0.0,0.0,0.0,0.0,0.0,0.0,0.0,0.0,0.0,0.0,0.0,0.0,0.0,0.0,3.8736,3.9798,3.9457,3.9013,0.0,0.0,4.0458,4.0247,4.1455,0.0,0.0,0.0,0.0,0.0,0.0,0.0,0.0,0.0,0.0,0.0,0.0,0.0,0.0,0.0,0.0,0.0,0.0,0.0,0.0,0.0,0.0,0.0,0.0,0.0,0.0,0.0,0.0,0.0,0.0,0.0,0.0,0.0,0.0,0.0,0.0,0.0,0.0,0.0,0.0,0.0,0.0,0.0,0.0,0.0,0.0,0.0,0.0,0.0,0.0,0.0,0.0,0.0,0.0,0.0,3.3191,3.4697,3.585,3.7053,3.815,3.8378,3.8378,3.8191,3.6784,3.5832,0.0,0.0,0.0,0.0,0.0,0.0,0.0,0.0,0.0,0.0,0.0,0.0,0.0,0.0,0.0,0.0,0.0,0.0,0.0,0.0,0.0,0.0,0.0,0.0,0.0,0.0,0.0,0.0,0.0,0.0,0.0,0.0,0.0,0.0,0.0,0.0,0.0,0.0,0.0,0.0,0.0,0.0,4.0237,4.0142,0.0,0.0,0.0,4.0517,4.0124,0.0,0.0,0.0,0.0,0.0,0.0,0.0,0.0,0.0,0.0,0.0,0.0,0.0,0.0,0.0,0.0,0.0,0.0,0.0,0.0,0.0,0.0,0.0,0.0,0.0,0.0,0.0,0.0,0.0,0.0,0.0,0.0,0.0,0.0,0.0,0.0,0.0,0.0,0.0,0.0,0.0,0.0,0.0,0.0,0.0,0.0,0.0,0.0,0.0,0.0,0.0,0.0,0.0,0.0,0.0,0.0,0.0,3.4964,3.616,3.726,3.815,3.8191,3.8191,3.815,3.6494,0.0,0.0,0.0,0.0,0.0,0.0,0.0,0.0,0.0,0.0,0.0,0.0,0.0,0.0,0.0,0.0,0.0,0.0,0.0,0.0,0.0,0.0,0.0,0.0,0.0,0.0,0.0,3.022,0.0,0.0,0.0,0.0,0.0,0.0,0.0,0.0,0.0,0.0,0.0,0.0,0.0,0.0,4.0354,4.0871,4.1053,4.1178,0.0,0.0,4.0978,4.0576,4.1907,4.2333,0.0,0.0,0.0,0.0,0.0,0.0,0.0,0.0,0.0,0.0,0.0,0.0,0.0,0.0,0.0,0.0,0.0,0.0,0.0,0.0,0.0,0.0,0.0,0.0,0.0,0.0,0.0,0.0,0.0,0.0,0.0,0.0,0.0,0.0,0.0,0.0,0.0,0.0,0.0,0.0,0.0,0.0,0.0,0.0,0.0,0.0,0.0,0.0,0.0,0.0,0.0,0.0,0.0,0.0,3.3979,3.4817,3.6121,3.726,3.815,3.8191,3.8191,3.8171,3.6804,3.5873,0.0,0.0,0.0,0.0,0.0,0.0,0.0,0.0,0.0,0.0,0.0,0.0,0.0,0.0,0.0,0.0,0.0,0.0,0.0,0.0,0.0,0.0,0.0,0.0,0.0,0.0,0.0,0.0,0.0,0.0,0.0,0.0,0.0,0.0,0.0,0.0,0.0,0.0,0.0,0.0,0.0,4.1698,4.2057,4.2539,4.2986,0.0,4.3162,4.2785,4.2816,4.4141,4.4342,4.1601,0.0,0.0,0.0,0.0,0.0,0.0,0.0,0.0,0.0,0.0,0.0,0.0,0.0,0.0,0.0,0.0,0.0,0.0,0.0,0.0,0.0,0.0,0.0,0.0,0.0,0.0,0.0,0.0,0.0,0.0,0.0,0.0,0.0,0.0,0.0,0.0,0.0,0.0,0.0,0.0,0.0,0.0,0.0,0.0,0.0,0.0,0.0,0.0,0.0,0.0,0.0,0.0,0.0,3.3891,3.4816,3.6101,3.726,3.8129,3.8191,3.8191,3.8191,3.6846,3.5894,0.0,0.0,0.0,0.0,0.0,0.0,0.0,0.0,0.0,0.0,0.0,0.0,0.0,0.0,0.0,0.0,0.0,0.0,0.0,0.0,0.0,0.0,0.0,0.0,0.0,0.0,0.0,0.0,3.2633,3.2736,3.2851,0.0,0.0,0.0,0.0,0.0,0.0,0.0,0.0,0.0,0.0,4.2246,4.1604,4.2364,0.0,0.0,4.2891,4.2514,4.2539,4.3288,4.3338,4.1605,4.1229,0.0,0.0,0.0,0.0,0.0,0.0,0.0,0.0,0.0,0.0,0.0,0.0,0.0,0.0,0.0,0.0,0.0,0.0,0.0,0.0,0.0,0.0,0.0,0.0,0.0,0.0,0.0,0.0,0.0,0.0,0.0,0.0,0.0,0.0,0.0,0.0,0.0,0.0,0.0,0.0,0.0,0.0,0.0,0.0,0.0,0.0,0.0,0.0,0.0,0.0,0.0,0.0,3.406,3.5399,3.6708,3.7866,3.8793,3.8814,3.8814,3.8793,3.7528,3.6708,0.0,0.0,0.0,0.0,0.0,0.0,0.0,0.0,0.0,0.0,0.0,0.0,0.0,0.0,0.0,0.0,0.0,0.0,0.0,0.0,0.0,0.0,0.0,0.0,0.0,0.0,0.0,0.0,3.3306,3.3368,3.3368,0.0,0.0,0.0,0.0,0.0,0.0,0.0,0.0,0.0,0.0,4.2457,4.1565,4.2208,4.2841,4.3017,4.2384,4.1957,4.2187,4.2539,4.2409,4.1426,0.0,0.0,0.0,0.0,0.0,0.0,0.0,0.0,0.0,0.0,0.0,0.0,0.0,0.0,0.0,0.0,0.0,0.0,0.0,0.0,0.0,0.0,0.0,0.0,0.0,0.0,0.0,3.2305,0.0,0.0,3.1845,0.0,0.0,0.0,0.0,0.0,0.0,0.0,0.0,0.0,0.0,0.0,0.0,0.0,0.0,0.0,0.0,0.0,0.0,0.0,0.0,0.0,0.0,3.4487,3.6706,3.8008,3.9146,4.0105,4.0127,4.0149,4.0105,3.9189,3.8448,3.8069,0.0,0.0,0.0,0.0,0.0,0.0,0.0,0.0,0.0,0.0,0.0,0.0,0.0,0.0,0.0,0.0,0.0,0.0,0.0,0.0,0.0,0.0,0.0,0.0,0.0,0.0,3.2752,3.312,3.3368,0.0,0.0,0.0,0.0,0.0,0.0,0.0,0.0,0.0,3.704,4.0044,4.2213,4.2128,4.2183,4.2384,4.2911,4.2057,4.153,4.2112,4.2213,4.1982,0.0,0.0,0.0,0.0,0.0,0.0,0.0,0.0,0.0,0.0,0.0,0.0,0.0,0.0,0.0,0.0,0.0,0.0,0.0,0.0,0.0,0.0,0.0,0.0,0.0,0.0,0.0,3.2813,3.3025,0.0,0.0,0.0,0.0,0.0,0.0,0.0,0.0,0.0,0.0,0.0,3.3883,3.3903,0.0,0.0,0.0,0.0,0.0,0.0,0.0,0.0,0.0,0.0,0.0,0.0,3.3768,3.5498,3.766,3.9272,4.017,4.1075,4.1524,4.1501,4.0069,3.8575,3.7035,0.0,0.0,0.0,0.0,0.0,0.0,0.0,0.0,0.0,0.0,0.0,0.0,0.0,0.0,0.0,0.0,0.0,0.0,0.0,0.0,0.0,0.0,0.0,0.0,0.0,3.3327,0.0,0.0,0.0,0.0,0.0,0.0,0.0,0.0,0.0,0.0,3.6911,3.8082,3.8548,4.0354,4.1459,4.101,4.1638,4.2414,0.0,0.0,0.0,0.0,0.0,0.0,0.0,0.0,0.0,0.0,0.0,0.0,0.0,0.0,4.153,4.045,4.0526,4.0777,4.0724,0.0,0.0,0.0,0.0,0.0,0.0,0.0,0.0,0.0,0.0,0.0,0.0,0.0,0.0,3.3358,3.3389,3.3534,0.0,0.0,0.0,0.0,0.0,0.0,0.0,0.0,3.4113,3.432,3.438,3.4465,3.4465,3.4339,3.3903,3.3223,0.0,0.0,0.0,0.0,0.0,0.0,0.0,0.0,3.3768,3.5498,3.766,3.9272,4.0213,4.1075,4.1524,4.1501,4.0047,3.8675,3.7414,3.6589,3.5867,0.0,0.0,0.0,0.0,0.0,0.0,0.0,0.0,0.0,0.0,0.0,0.0,0.0,0.0,0.0,0.0,0.0,0.0,0.0,0.0,0.0,0.0,0.0,3.3489,0.0,0.0,0.0,0.0,0.0,0.0,0.0,0.0,0.0,3.5622,3.7326,3.8501,3.8777,4.0397,4.1334,4.0495,0.0,0.0,0.0,0.0,0.0,0.0,0.0,4.0475,4.03,4.0576,4.1128,4.2032,4.2635,4.2986,4.2986,0.0,0.0,4.1605,4.1656,4.1907,4.1907,4.1605,4.1605,4.2363,4.2158,4.2108,0.0,0.0,0.0,0.0,3.3389,0.0,0.0,0.0,3.4113,3.3886,0.0,3.3906,0.0,0.0,0.0,0.0,3.343,3.3844,0.0,0.0,3.5438,3.5645,3.4961,3.5252,3.5211,3.4797,3.4401,3.3886,3.3451,3.3037,0.0,0.0,0.0,0.0,0.0,0.0,3.4487,3.6691,3.8152,3.9336,4.0191,4.0387,4.0452,4.0343,3.9506,3.9031,3.9167,3.7643,3.6691,3.6588,3.5851,0.0,0.0,0.0,0.0,0.0,0.0,0.0,0.0,0.0,0.0,0.0,0.0,0.0,0.0,0.0,0.0,0.0,0.0,0.0,0.0,3.3368,0.0,0.0,0.0,0.0,0.0,0.0,0.0,0.0,0.0,3.4755,3.3701,3.5963,3.7678,3.7847,0.0,0.0,0.0,0.0,4.0953,3.9948,3.9772,3.9798,3.9848,4.0275,4.0777,4.125,0.0,0.0,4.3714,4.3413,4.3162,4.3112,4.3614,4.3714,4.3212,4.3062,4.3037,4.3037,4.3037,4.3062,4.3062,4.3187,4.3187,3.5376,0.0,0.0,0.0,0.0,3.4277,3.4631,3.5024,3.5024,3.4962,3.4817,3.4631,0.0,0.0,0.0,0.0,0.0,0.0,3.4424,3.5045,3.5438,3.5832,3.6204,3.6018,3.5852,3.5707,3.5252,3.4962,3.4838,3.4714,3.3762,3.1988,0.0,0.0,0.0,0.0,3.3834,3.5821,3.8736,4.0598,4.1171,4.3378,4.3897,4.2529,4.1935,4.1038,3.973,3.9755,3.8826,3.675,3.7224,0.0,0.0,0.0,0.0,0.0,0.0,0.0,0.0,0.0,0.0,0.0,0.0,0.0,0.0,0.0,0.0,0.0,0.0,0.0,3.3368,3.3368,3.3306,0.0,0.0,0.0,0.0,0.0,0.0,0.0,0.0,0.0,3.3983,3.5839,3.7839,0.0,0.0,3.9353,3.9844,4.04,4.0777,4.0852,4.0799,0.0,4.1932,4.1856,4.1882,4.2409,4.3438,4.4217,4.4367,4.492,4.5347,4.5347,4.5497,4.5522,4.5347,4.4694,4.4192,4.4166,4.4468,4.4744,4.4794,4.507,4.5347,3.6763,3.5769,3.4941,3.4714,3.49,3.5169,3.5542,3.5956,3.5976,3.5769,3.5418,3.5335,3.4734,3.3782,3.3841,0.0,0.0,0.0,3.5004,3.5707,3.608,3.6453,3.6784,3.6701,3.6556,3.639,3.6101,3.5873,3.5687,3.5335,3.4486,3.3141,0.0,3.225,3.2975,3.3348,3.4072,3.521,3.7873,3.9471,3.9895,4.1971,4.2592,4.1622,4.0831,3.9923,3.892,3.979,3.9488,3.7725,3.8167,3.7414,0.0,0.0,0.0,0.0,0.0,0.0,0.0,0.0,0.0,0.0,0.0,3.3265,3.3016,0.0,0.0,0.0,3.3492,3.3509,3.3637,3.3327,0.0,0.0,0.0,0.0,0.0,0.0,0.0,3.2871,3.3575,3.431,3.4741,3.5821,3.7389,3.9399,3.9189,3.9194,4.0217,0.0,4.1204,4.1275,4.1275,4.1501,4.2208,4.2233,4.2539,4.3489,4.4166,4.4819,4.5246,4.5874,4.6301,4.6326,4.6326,4.6326,4.6326,4.5748,4.5296,4.5296,4.5573,4.5799,4.5824,4.6075,4.6326,3.7922,3.7446,3.6183,3.5852,3.6163,3.6204,3.6453,3.6846,3.6846,3.637,3.5625,3.5997,3.5231,3.3658,3.3658,0.0,3.5002,3.5335,3.579,3.6246,3.7115,3.7301,3.6929,3.7301,3.7281,3.6867,3.6825,3.6577,3.608,3.5273,3.4899,3.4816,3.4816,3.436,3.3572,3.4297,3.4754,3.4878,3.6206,3.7249,3.7856,3.8385,3.8785,3.9147,3.7995,3.7545,3.7752,3.8921,3.9451,3.9334,3.8954,3.8597,3.8194,0.0,0.0,0.0,0.0,0.0,0.0,0.0,0.0,0.0,0.0,0.0,0.0,0.0,0.0,3.4021,3.3675,0.0,3.4132,3.3348,0.0,0.0,0.0,3.3592,3.4069,3.4072,3.4072,3.4072,0.0,0.0,3.5626,3.586,3.6479,3.8111,3.9433,4.0425,4.0972,4.1647,4.1927,4.1101,4.1293,4.1451,4.1534,4.2048,4.2961,4.4267,4.4618,4.497,4.5824,4.615,4.6225,4.62,4.6276,4.6326,4.6326,4.625,4.6301,4.625,4.6276,4.6301,4.6276,4.6301,4.6326,3.8129,3.7984,3.7653,3.7198,3.668,3.7011,3.7239,3.7322,3.7322,3.7198,3.6991,3.6742,3.639,3.5997,3.5997,3.6101,3.6308,3.6432,3.6722,3.7177,3.7405,3.7612,3.7839,3.7612,3.7446,3.7301,3.697,3.6556,3.6121,3.5894,3.5438,3.4857,3.4816,3.4526,3.3927,3.3841,3.4217,3.5252,3.6953,3.8919,4.1043,4.1788,4.197,4.1727,4.1983,4.2006,4.1639,4.1923,4.1615,4.0697,4.0554,3.9267,3.6689,3.5408,0.0,0.0,0.0,0.0,0.0,0.0,0.0,0.0,0.0,3.3759,3.3105,0.0,3.2985,0.0,3.3849,3.4152,3.4608,3.4152,0.0,0.0,3.3368,3.3203,3.4028,3.4072,3.4072,3.4072,3.4443,3.471,3.5011,3.505,3.5699,3.7345,3.8803,3.9491,3.8704,4.066,4.1422,3.9792,4.1069,4.2376,4.1964,4.3069,4.4116,4.4543,4.4618,4.4719,4.4937,4.5397,4.5673,4.5698,4.605,4.6276,4.6326,4.6326,4.6326,4.6326,4.6326,4.6326,4.6326,4.6326,4.6326,3.8357,3.8191,3.8191,3.7881,3.7446,3.7695,3.7798,3.7798,3.7798,3.7695,3.7467,3.7011,3.6804,3.6804,3.6804,3.6804,3.6825,3.7011,3.726,3.7488,3.7695,3.7943,3.8171,3.7922,3.7798,3.7798,3.7529,3.7177,3.6742,3.6515,3.6163,3.5666,3.5459,3.5231,3.4962,3.4173,3.4072,3.4817,3.6451,3.8562,4.1178,4.0986,4.0959,4.1338,4.0478,3.9873,3.9504,3.9513,3.9457,3.9288,3.9288,3.8916,3.8041,3.6304,3.4898,0.0,0.0,0.0,0.0,0.0,0.0,0.0,0.0,0.0,0.0,0.0,3.2934,3.3452,3.3843,3.4235,3.4484,3.4031,3.3927,3.4401,3.3927,3.3906,3.459,3.4672,3.4672,3.4672,3.49,3.5066,3.5045,3.5573,3.6022,3.6438,3.8209,3.9192,3.8643,3.985,4.0554,3.981,4.1022,4.2248,4.234,4.3208,4.3991,4.4192,4.4242,4.4342,4.4568,4.4869,4.5171,4.5447,4.5748,4.605,4.625,4.6326,4.6326,4.6326,4.6326,4.6326,4.6326,4.6326,4.6326,3.8543,3.8191,3.8191,3.8191,3.8191,3.8191,3.8191,3.8191,3.8191,3.7964,3.757,3.7156,3.697,3.697,3.6991,3.697,3.7011,3.7405,3.7591,3.7612,3.8005,3.8191,3.8191,3.8191,3.8191,3.8191,3.8191,3.7943,3.7488,3.7094,3.6825,3.6701,3.6328,3.608,3.5976,3.4838,3.4238,3.4258,3.5542,3.7339,3.965,3.8185,3.8058,3.9273,3.6989,3.5589,3.5575,3.5587,3.605,3.7072,3.7174,3.8036,3.9755,3.7186,3.5474,0.0,3.3406,0.0,0.0,0.0,0.0,0.0,0.0,0.0,0.0,3.3941,3.3314,3.3701,3.3942,3.4113,3.4238,3.3865,3.3969,3.4795,3.4899,3.5004,3.5376,3.5418,3.5418,3.5418,3.5418,3.5418,3.5397,3.642,3.6603,3.5828,3.7166,3.8416,3.8662,3.917,3.9873,4.0616,4.0928,4.1639,4.2675,4.3011,4.3187,4.3589,4.3689,4.3865,4.4267,4.4543,4.4794,4.5246,4.5522,4.5799,4.6225,4.6326,4.6326,4.6326,4.6326,4.6326,4.6326,4.6326,4.6326,3.8253,3.8191,3.8191,3.8191,3.8191,3.8191,3.8191,3.8191,3.8191,3.815,3.8046,3.7964,3.7922,3.7922,3.7922,3.7922,3.7922,3.8005,3.8046,3.8067,3.815,3.8191,3.8191,3.8191,3.8191,3.8191,3.8191,3.7943,3.7488,3.7405,3.6991,3.6266,3.6163,3.5914,3.5562,0.0,0.0,0.0,3.6163,3.6933,3.7377,3.7034,3.691,3.7229,3.7026,0.0,3.8013,3.7275,3.7168,3.7822,3.8287,0.0,0.0,0.0,0.0,0.0,0.0,0.0,0.0,0.0,0.0,0.0,3.542,3.5244,3.5931,3.5708,3.5525,3.5519,3.4661,3.4362,3.5086,3.5107,3.5107,3.5273,3.5293,3.5335,3.5418,3.5418,3.5418,3.5418,3.5418,3.5418,3.5418,3.5665,3.5705,3.5479,3.5828,3.6074,3.6218,3.8684,3.9919,3.8602,3.9884,4.1525,4.2793,4.3037,4.3112,4.3112,4.3137,4.3237,4.3413,4.4116,4.4618,4.4844,4.5522,4.615,4.6301,4.6326,4.6326,4.6326,4.6326,4.6326,4.6326,4.6326,4.6426,3.8191,3.8191,3.8191,3.8191,0.0,3.8191,3.8191,3.8191,3.8191,3.8191,3.8191,3.8191,3.8191,3.8191,3.8191,3.8191,3.8191,3.8191,3.8191,3.8191,3.8191,3.8191,3.8191,3.8191,3.8191,3.8191,3.8191,3.8067,3.7839,3.7612,3.7363,3.7136,3.6908,3.6784,3.6784,3.6784,3.6556,3.6101,3.6556,3.7011,3.7491,3.7192,3.7074,3.721,3.661,0.0,0.0,0.0,0.0,0.0,0.0,0.0,0.0,3.6634,0.0,3.6016,3.6016,3.6106,3.6329,3.6655,3.6614,3.6099,3.6158,3.5852,3.5212,3.5525,3.5771,3.5695,3.5098,3.4921,3.5355,3.5418,3.5418,3.5418,3.5418,3.5418,3.5418,3.5418,3.5418,3.5418,3.5418,3.5418,3.5418,3.5418,3.5418,3.5418,3.5418,3.5521,3.5811,3.7158,3.8096,3.8582,4.0176,4.2011,4.343,4.379,4.3765,4.379,4.379,4.379,4.379,4.4242,4.4719,4.4995,4.5547,4.5974,4.625,4.6326,4.6326,4.6326,4.6326,4.6326,4.6326,4.6326,4.6376,3.8191,3.8191,3.8191,3.8191,3.8191,3.8191,3.8191,3.8191,3.8191,0.0,0.0,3.8191,3.8191,3.8171,3.8109,3.8109,3.8171,3.8109,3.8109,3.8191,3.8191,3.8191,3.8191,3.8191,3.8191,3.8191,3.8191,3.8191,3.8171,3.7798,3.7798,3.8129,3.7798,3.7798,3.8171,3.8191,3.7819,3.7074,3.6887,3.7177,3.7902,3.7405,3.7212,3.7342,3.5951,3.5131,3.5062,3.3986,3.3907,3.4888,3.5011,3.5439,3.6162,3.641,3.6039,3.4937,3.4836,3.4805,3.4655,3.4658,3.4852,3.5376,3.6359,3.6381,3.5058,3.5449,3.5705,3.5705,3.5541,3.5418,3.5418,3.5418,3.5418,3.5418,3.5418,3.5418,3.5418,3.5418,3.5418,3.5418,3.5418,3.5418,3.5418,3.5521,3.5542,3.5562,3.5687,3.5769,3.608,3.6373,3.7422,3.9538,4.1129,4.2535,4.3804,4.4427,4.456,4.4518,4.4543,4.4618,4.4618,4.4719,4.497,4.5372,4.5547,4.5849,4.62,4.6326,4.6326,4.6326,4.6326,4.6326,4.6326,4.6326,4.6351,3.8191,3.8191,3.8191,3.8191,3.8191,3.8191,3.8191,3.8191,3.8191,3.8191,3.8191,3.8191,3.8191,3.8171,3.7777,3.7798,3.815,3.7777,3.7798,3.8171,3.8191,3.8191,3.8191,3.8191,3.8191,3.8191,3.8191,3.8191,3.8171,3.8129,3.8129,3.8171,3.8109,3.8129,3.8191,3.8191,3.8129,3.7984,3.7198,3.6867,3.697,3.6163,3.5521,3.5206,3.4648,3.4501,3.4983,3.397,3.3702,3.4376,3.478,3.487,3.4517,3.5358,3.6129,3.6828,3.6894,3.6839,3.685,3.6872,3.6453,3.552,3.5541,3.6438,3.8267,3.7582,3.7006,3.7006,3.6013,3.5418,3.5418,3.5418,3.5418,3.5418,3.5418,3.5418,3.5438,3.5459,3.5459,3.55,3.5418,3.5459,3.5542,3.5811,3.6018,3.608,3.6308,3.6618,3.6787,3.7635,3.8762,4.025,4.167,4.2556,4.3141,4.3919,4.4544,4.4618,4.4636,4.4744,4.4769,4.5095,4.5397,4.5497,4.5849,4.615,4.6326,4.6326,4.6326,4.6326,4.6326,4.6326,4.6326,4.6326,4.6451,3.8191,3.8191,3.8191,3.8191,3.8191,3.8191,3.8191,3.8191,3.8191,3.8191,3.8191,3.8191,3.8191,3.8171,3.7964,3.7984,3.8171,3.7715,3.7736,3.815,3.7922,3.7943,3.8171,3.8191,3.8191,3.8191,3.8191,3.8191,3.8191,3.8191,3.8191,3.8191,3.8191,3.8191,3.8191,3.8191,3.8191,3.8171,3.7757,3.755,3.755,3.7136,3.6722,3.6246,3.579,3.5581,3.5586,3.4912,3.4622,3.4867,3.5058,3.511,3.4857,3.5281,3.5752,3.6215,3.6298,3.6237,3.6298,3.6237,3.6013,3.5479,3.5418,3.5828,3.7028,3.6603,3.6258,3.6237,3.5705,3.5418,3.5418,3.5418,3.5418,3.5418,3.5418,3.5521,3.5749,3.579,3.5894,3.6121,3.6163,3.6183,3.6183,3.637,3.6494,3.6515,3.6887,3.7156,3.7198,3.7905,3.883,3.9841,4.0587,4.1692,4.3129,4.3978,4.4724,4.5345,4.5547,4.5522,4.5547,4.5799,4.5899,4.5924,4.615,4.6276,4.6326,4.6326,4.6326,4.6326,4.6326,4.6326,4.6326,4.6326,4.6502,3.8191,3.8191,3.8191,3.8191,3.8191,3.8191,3.8191,3.8191,3.8191,3.8191,3.8191,3.8191,3.8191,3.8171,3.8088,3.8088,3.8109,3.7715,3.7736,3.8109,3.7819,3.7839,3.815,3.8191,3.8191,3.8191,3.8191,3.8191,3.8191,3.8191,3.8191,3.8191,3.8274,3.8336,3.8316,3.8336,3.8336,3.8336,3.8233,3.8191,3.8191,3.8191,3.7964,3.7508,3.7136,3.6701,3.6142,3.5769,3.5521,3.5438,3.5418,3.5418,3.5418,3.5418,3.5418,3.5418,3.5418,3.5418,3.5418,3.5418,3.5418,3.5418,3.5418,3.5418,3.5418,3.5521,3.5521,3.5438,3.5418,3.5418,3.5438,3.5542,3.5583,3.5583,3.5687,3.5914,3.6204,3.6266,3.639,3.6742,3.6804,3.6784,3.6825,3.6908,3.7011,3.7177,3.7425,3.7632,3.7695,3.7984,3.8492,3.9023,3.9453,4.0755,4.3349,4.4141,4.4841,4.6059,4.6276,4.62,4.6225,4.6276,4.6301,4.6276,4.6276,4.6326,4.6326,4.6326,4.6326,4.6326,4.6426,4.6577,4.6753,4.6753,4.6728,3.8191,3.8191,3.8191,3.8191,3.8191,3.8191,3.8191,3.8191,3.8191,3.8191,3.8191,3.8191,3.8191,3.8129,3.7757,3.7819,3.8129,3.7715,3.7736,3.815,3.815,3.815,3.8191,3.8191,3.8191,3.8191,3.8191,3.8212,3.8191,3.8212,3.8191,3.8233,3.8585,3.8703,3.8703,3.8724,3.8724,3.8703,3.8398,3.8191,3.8191,3.8191,3.7964,3.7508,3.7467,3.7011,3.6225,3.608,3.5852,3.548,3.5459,3.5438,3.5438,3.5438,3.5438,3.5438,3.5438,3.5418,3.5438,3.5418,3.5459,3.5418,3.548,3.548,3.548,3.5832,3.5873,3.5583,3.5459,3.55,3.5459,3.5811,3.6039,3.6059,3.637,3.6701,3.6722,3.6742,3.6763,3.6784,3.6908,3.6804,3.6949,3.7218,3.7591,3.7881,3.7964,3.8046,3.8046,3.8109,3.8237,3.8552,3.9235,4.0557,4.2161,4.3544,4.4583,4.5853,4.6326,4.6326,4.6326,4.6326,4.6326,4.6451,4.6376,4.6401,4.6426,4.6326,4.6376,4.6577,4.6828,4.7179,4.7581,4.7657,4.7556,3.7569,3.7569,3.777,3.7971,3.8191,3.8191,3.8191,3.8191,3.8191,3.8191,3.8191,3.7971,3.7971,3.8171,3.7984,3.8005,3.815,3.7695,3.7757,3.8129,3.7922,3.7922,3.8191,3.846,3.844,3.8233,3.844,3.844,3.8274,3.844,3.8585,3.8626,3.8972,3.9055,3.8827,3.9055,3.9055,3.8786,3.8937,3.8978,3.8957,3.8709,3.8357,3.7964,3.7902,3.7612,3.6991,3.668,3.6432,3.6246,3.6246,3.6246,3.6225,3.6246,3.6246,3.6246,3.6246,3.6246,3.6246,3.6246,3.6246,3.6246,3.6246,3.6246,3.6246,3.6411,3.6432,3.6287,3.6225,3.6225,3.6246,3.6411,3.6515,3.6535,3.6701,3.6908,3.7198,3.7218,3.7301,3.755,3.7612,3.7612,3.7632,3.7777,3.7984,3.8171,3.8191,3.8191,3.8191,3.8191,3.8191,3.8258,3.8681,3.9517,4.0839,4.2161,4.3568,4.4829,4.5793,4.6266,4.6291,4.6326,4.6401,4.6728,4.6778,4.6928,4.728,4.723,4.7255,4.728,4.7305,4.7657,4.7883,4.7908,4.7782,3.7079,3.7146,3.7348,3.7697,3.8022,3.8089,3.8089,3.8089,3.8089,3.8027,3.7837,3.7549,3.7636,3.7904,3.7904,3.7971,3.7996,3.7707,3.7773,3.8129,3.7839,3.786,3.8212,3.8502,3.8502,3.8274,3.8502,3.8481,3.8274,3.8626,3.8724,3.8792,3.9302,3.9426,3.9055,3.9426,3.9488,3.922,3.9385,3.9468,3.9426,3.9261,3.8957,3.8419,3.8253,3.7964,3.7508,3.7177,3.6929,3.6804,3.6804,3.6804,3.6804,3.6804,3.6804,3.6804,3.6804,3.6804,3.6804,3.6804,3.6804,3.6804,3.6804,3.6804,3.6825,3.6929,3.6991,3.6991,3.7115,3.7115,3.6825,3.6908,3.6991,3.6991,3.7074,3.7322,3.7632,3.7674,3.7798,3.8129,3.8088,3.8191,3.8171,3.8171,3.8171,3.8191,3.8191,3.8191,3.8212,3.8295,3.8378,3.8378,3.846,3.9021,4.0018,4.0946,4.2247,4.3695,4.4973,4.5932,4.6251,4.6387,4.6778,4.7305,4.733,4.738,4.7606,4.7782,4.8008,4.8109,4.8134,4.8209,4.8485,4.8385,4.841,3.7079,3.7099,3.7146,3.7428,3.7771,3.7771,3.7751,3.773,3.7751,3.7529,3.7254,3.7166,3.7166,3.7186,3.7227,3.7368,3.7616,3.7575,3.7775,3.8104,3.8083,3.8171,3.8191,3.8212,3.8233,3.8249,3.8352,3.8357,3.8295,3.86,3.8626,3.8357,3.9578,3.9902,3.955,3.9902,4.0179,3.9984,3.9716,3.9509,3.955,3.9951,3.9633,3.8848,3.8419,3.8026,3.7591,3.7488,3.7281,3.6846,3.6867,3.6846,3.6825,3.6846,3.6867,3.6846,3.6846,3.6846,3.6867,3.6887,3.6887,3.6846,3.6929,3.6846,3.6949,3.726,3.7446,3.7467,3.7798,3.7715,3.7074,3.726,3.7446,3.7488,3.7839,3.8046,3.8129,3.8088,3.815,3.8191,3.8191,3.8212,3.8212,3.8191,3.8253,3.8274,3.8233,3.8274,3.8378,3.8605,3.8792,3.8895,3.9129,3.9621,4.0082,4.0693,4.139,4.2582,4.4071,4.5329,4.6095,4.6743,4.7308,4.7857,4.7883,4.7908,4.7908,4.8058,4.8335,4.851,4.8686,4.8837,4.9038,4.9364,4.9339,3.7371,3.751,3.753,3.7748,3.8096,3.8185,3.7935,3.7674,3.7654,3.7481,3.7179,3.7109,3.718,3.72,3.7203,3.7211,3.7321,3.728,3.7348,3.7522,3.7787,3.7841,3.797,3.8478,3.8621,3.8438,3.8848,3.9055,3.9123,3.9447,3.9661,3.964,4.0241,4.0427,4.0137,4.0427,4.051,4.0282,4.0303,4.0406,4.0344,4.0303,3.9984,3.9674,3.922,3.8833,3.8378,3.8088,3.786,3.7695,3.7674,3.7695,3.7695,3.7695,3.7695,3.7695,3.7695,3.7695,3.7674,3.7695,3.7695,3.7695,3.7695,3.7653,3.7695,3.7839,3.7943,3.7964,3.8067,3.7964,3.7839,3.786,3.7922,3.7964,3.8088,3.8191,3.8191,3.8191,3.8191,3.8191,3.8191,3.8295,3.8476,3.8605,3.873,3.8999,3.904,3.9019,3.9061,3.9137,3.922,3.9309,3.9413,3.9571,3.971,4.0619,4.1463,4.2059,4.316,4.4484,4.5517,4.6022,4.6533,4.7918,4.8183,4.8434,4.8509,4.8786,4.8987,4.9038,4.9213,4.9238,4.954,4.959,4.959,3.7426,3.7637,3.7637,3.7876,3.8186,3.8067,3.7978,3.7709,3.7519,3.73,3.7132,3.6946,3.6868,3.7006,3.6886,3.6789,3.6821,3.7089,3.7305,3.734,3.7743,3.7964,3.8044,3.8588,3.8728,3.8507,3.9059,3.9409,3.9412,3.9943,4.0137,4.0013,4.0572,4.0675,4.0365,4.0675,4.0717,4.0551,4.0737,4.0862,4.0841,4.0593,4.0427,4.0365,3.9922,3.9406,3.8807,3.8543,3.8316,3.8212,3.8191,3.8191,3.8191,3.8191,3.8191,3.8191,3.8171,3.8191,3.8191,3.8191,3.8171,3.8191,3.8191,3.8191,3.8191,3.8191,3.8191,3.8191,3.8191,3.8212,3.8378,3.8398,3.8336,3.8233,3.8191,3.8253,3.8378,3.8419,3.8414,3.8444,3.835,3.8473,3.8794,3.8856,3.9069,3.9447,3.9468,3.9468,3.9468,3.9612,3.9695,3.9695,3.993,4.0034,4.016,4.0763,4.0895,4.1442,4.2347,4.3684,4.4701,4.5207,4.6172,4.7725,4.8551,4.8853,4.9196,4.9475,4.959,4.959,4.954,4.9464,4.959,4.959,4.959,3.7344,3.7363,3.7324,3.7598,3.7923,3.7649,3.7578,3.7708,3.7121,3.7053,3.7112,3.6465,3.6573,3.669,3.6601,3.6191,3.6485,3.7391,3.7709,3.7605,3.8066,3.8287,3.8307,3.8447,3.8507,3.8497,3.8856,3.9065,3.9196,3.9865,4.0096,3.9847,4.051,4.0675,4.0261,4.0675,4.0862,4.0841,4.0862,4.0882,4.0882,4.0841,4.082,4.08,4.0427,3.9827,3.8889,3.8807,3.8688,3.8316,3.8233,3.8191,3.8191,3.8191,3.8191,3.8191,3.8191,3.8191,3.8191,3.8191,3.8191,3.8191,3.8191,3.8191,3.8191,3.8233,3.8253,3.8274,3.8316,3.8419,3.8724,3.8786,3.8662,3.8316,3.829,3.8455,3.8635,3.8786,3.8794,3.8848,3.8653,3.8615,3.8914,3.9122,3.9322,3.9612,3.9702,3.9723,3.9785,4.0034,4.0199,4.0282,4.0406,4.053,4.0696,4.0891,4.0622,4.0625,4.1636,4.2762,4.3622,4.4301,4.5665,4.7119,4.8386,4.8729,4.9336,4.959,4.959,4.959,4.959,4.959,4.959,4.959,4.959,3.8184,3.8184,3.8184,3.8242,3.8359,3.8223,3.7949,3.7539,3.748,3.7285,3.6992,3.7187,3.7422,3.7559,3.7676,3.7598,3.7383,3.8014,3.785,3.7282,3.7755,3.809,3.813,3.8386,3.8687,3.8974,3.9332,3.9597,3.9902,4.038,4.0572,4.0572,4.0717,4.08,4.0675,4.08,4.0882,4.0882,4.0882,4.0882,4.0882,4.0882,4.0882,4.0862,4.0737,4.0386,3.9827,3.9426,3.9268,3.9102,3.8812,3.8502,3.8253,3.8191,3.8191,3.8191,3.8191,3.8191,3.8191,3.8191,3.8212,3.8191,3.8191,3.8191,3.8233,3.8481,3.8626,3.8688,3.8916,3.9206,3.922,3.9055,3.8904,3.8801,3.8781,3.8644,3.8669,3.8592,3.8702,3.8942,3.8914,3.9106,3.9651,3.9803,3.9906,4.0274,4.0336,4.0336,4.0468,4.0418,4.0675,4.0717,4.0862,4.0882,4.0882,4.0882,4.0758,4.0613,4.1257,4.1845,4.2618,4.3284,4.4778,4.6536,4.7821,4.8787,4.9396,4.959,4.959,4.959,4.959,4.959,4.959,4.959,4.959,3.8574,3.8574,3.8574,3.8574,3.8555,3.8418,3.8144,3.7773,3.7695,3.7559,3.748,3.7559,3.7793,3.793,3.8066,3.7949,3.7754,3.8144,3.791,3.7324,3.7812,3.8144,3.8184,3.8418,3.872,3.903,3.9373,3.9662,3.9899,4.0238,4.0433,4.0433,4.0576,4.0668,4.0668,4.0811,4.0882,4.0882,4.0882,4.0882,4.0882,4.0882,4.0882,4.0882,4.0882,4.0737,4.0468,4.0179,3.9889,3.9537,3.9034,3.8647,3.8233,3.8191,3.8191,3.8191,3.8191,3.8125,3.8058,3.8135,3.815,3.8104,3.818,3.837,3.8479,3.8774,3.8897,3.9096,3.9192,3.9391,3.9466,3.9228,3.9079,3.9051,3.9007,3.9016,3.8978,3.8849,3.9,3.9323,3.9232,3.9495,3.9962,4.0044,4.0217,4.0535,4.0525,4.0453,4.0504,4.0576,4.0668,4.074,4.0811,4.0811,4.0882,4.0882,4.0882,4.0841,4.0942,4.1326,4.1905,4.2046,4.3006,4.5797,4.7557,4.8918,4.959,4.959,4.959,4.959,4.959,4.959,4.959,4.959,4.959,3.8574,3.8574,3.8574,3.8574,3.8535,3.8203,3.8184,3.832,3.7793,3.7832,3.8164,3.7793,3.7676,3.7832,3.7773,3.7617,3.748,3.7871,3.8066,3.8027,3.832,3.8516,3.8516,3.8555,3.8647,3.872,3.903,3.9248,3.9321,3.9662,3.9714,3.9858,4.0166,4.0238,4.031,4.0668,4.074,4.0719,4.0811,4.0811,4.0873,4.0882,4.0924,4.0944,4.0903,4.0862,4.08,4.0737,4.0406,3.9661,3.9179,3.8786,3.8398,3.8274,3.8357,3.8311,3.8295,3.8068,3.7908,3.8078,3.8194,3.794,3.8243,3.8586,3.8792,3.8922,3.9093,3.9302,3.9245,3.9289,3.9454,3.9323,3.9129,3.9174,3.9121,3.9321,3.9939,3.9544,3.941,3.9849,3.9642,3.9445,4.0105,3.9941,3.9962,4.0074,4.0002,3.993,3.993,4.0094,4.0238,4.0382,4.0596,4.0596,4.0596,4.0433,4.0433,4.0525,4.0596,4.0954,4.1622,4.1905,4.2446,4.5164,4.7335,4.8722,4.959,4.959,4.959,4.959,4.959,4.959,4.959,4.959,4.9615,3.8574,3.8574,3.8574,3.8574,3.8574,3.8437,3.8262,3.8144,3.8223,3.8164,3.8144,3.8223,3.8242,3.8379,3.8281,3.8242,3.8223,3.832,3.8398,3.8418,3.8496,3.8574,3.8574,3.8574,3.8574,3.8647,3.8958,3.9176,3.9248,3.9518,3.9642,3.9714,3.9786,3.9878,3.9858,4.0043,4.0002,4.0074,4.033,4.0658,4.0956,4.0925,4.1048,4.1338,4.1089,4.0924,4.0882,4.0882,4.0634,4.0116,3.9951,3.9661,3.9117,3.9055,3.8966,3.876,3.8733,3.8616,3.8292,3.8324,3.8315,3.8246,3.8357,3.8447,3.8516,3.8869,3.9081,3.9232,3.9364,3.9535,3.9585,3.9318,3.9273,3.9458,3.9309,3.9301,3.9656,3.951,3.9373,3.9734,3.9465,3.9538,3.9734,3.9786,3.9714,3.9786,3.9714,3.9642,3.957,3.9734,3.9878,4.0094,4.0238,4.031,4.0238,4.0074,4.0002,4.0002,4.0238,4.0596,4.1693,4.2726,4.3747,4.5435,4.7069,4.8502,4.9177,4.9525,4.959,4.9396,4.969,4.9715,4.964,4.9615,4.9615,3.8574,3.8574,3.8574,3.8574,3.8574,3.8574,3.8418,3.8281,3.8437,3.8437,3.8301,3.8437,3.8574,3.8574,3.8574,3.8574,3.8574,3.8574,3.8574,3.8574,3.8574,3.8574,3.8574,3.8574,3.8574,3.8647,3.8793,3.8958,3.8958,3.9156,3.9228,3.9208,3.9445,3.9525,3.9798,3.9923,4.0096,4.0257,4.0517,4.0732,4.1008,4.0951,4.1024,4.1261,4.1056,4.0893,4.0688,4.0484,4.0248,4.0041,3.9918,3.9733,3.9391,3.926,3.9191,3.8983,3.8983,3.8755,3.8327,3.8307,3.8356,3.8255,3.8354,3.8544,3.8766,3.9017,3.9138,3.9372,3.945,3.9478,3.9445,3.9156,3.9176,3.9373,3.9321,3.9393,3.9878,3.9373,3.9228,3.9445,3.9445,3.9301,3.9642,3.957,3.9518,3.9445,3.9301,3.9228,3.9208,3.9373,3.9518,3.9734,3.9878,3.995,3.995,3.9858,3.9919,3.9919,4.0196,4.0535,4.1536,4.2953,4.3678,4.4778,4.6603,4.8043,4.8641,4.9057,4.9047,4.9097,4.9481,4.9816,4.9766,4.9941,4.9891,3.8574,3.8574,3.8574,3.8574,3.8574,3.8574,3.8555,3.8555,3.8574,3.8574,3.8555,3.8574,3.8574,3.8574,3.8574,3.8574,3.8574,3.8574,3.8574,3.8574,3.8594,3.8613,3.8711,3.8613,3.8594,3.8574,3.8574,3.8647,3.8686,3.8686,3.8745,3.895,3.9188,3.9459,3.981,4.0091,4.0532,4.0678,4.0678,4.0833,4.1008,4.1002,4.1056,4.1157,4.1056,4.0774,4.0431,4.0089,3.9757,3.9597,3.9576,3.9484,3.9138,3.9077,3.9027,3.8998,3.8989,3.8738,3.8136,3.8351,3.8366,3.819,3.8393,3.872,3.8932,3.9076,3.9169,3.9346,3.9301,3.9176,3.9103,3.8793,3.8865,3.9176,3.9176,3.9465,3.9827,3.9301,3.8938,3.9498,3.9301,3.9301,3.9373,3.9373,3.9176,3.9083,3.8938,3.8938,3.8938,3.9011,3.9156,3.9321,3.9445,3.957,3.959,3.9662,3.9815,4.0,4.0318,4.0699,4.1429,4.2415,4.2905,4.3999,4.5756,4.7041,4.7931,4.8238,4.846,4.9404,5.0303,5.0218,5.0042,5.0368,5.0494,3.8574,3.8574,3.8574,3.8574,3.8574,3.8574,3.8574,3.8574,3.8574,3.8574,3.8574,3.8574,3.8574,3.8574,3.8574,3.8574,3.8613,3.8633,3.8574,3.8574,3.8574,3.8789,3.8926,3.8789,3.8613,3.8633,3.8594,3.8594,3.8672,3.8945,3.9062,3.9175,3.943,3.9798,3.9876,4.0046,4.0066,4.0184,4.0429,4.0777,4.1032,4.1003,4.1153,4.1374,4.1133,4.0787,4.0479,4.0277,3.9963,3.9498,3.9481,3.9524,3.9444,3.9515,3.9352,3.9209,3.9126,3.893,3.8518,3.8465,3.8583,3.849,3.8476,3.8647,3.872,3.872,3.8793,3.8865,3.8793,3.8793,3.8793,3.8647,3.8812,3.903,3.8958,3.8958,3.9321,3.9176,3.9176,3.9176,3.903,3.872,3.8865,3.8865,3.872,3.872,3.8667,3.8667,3.8686,3.8818,3.9062,3.9327,3.9307,3.9473,3.9639,3.9732,4.0084,4.0343,4.0602,4.1006,4.1741,4.2141,4.2756,4.3657,4.4819,4.5988,4.7082,4.8112,4.8527,4.9798,5.0921,5.082,5.0795,5.0996,5.0971,3.8574,3.8574,3.8574,3.8574,3.8574,3.8574,3.8574,3.8574,3.8574,3.8574,3.8574,3.8574,3.8574,3.8574,3.8594,3.8672,3.8906,3.9101,3.9199,3.9219,3.9219,3.9336,3.9434,3.9336,3.9199,3.9199,3.9219,3.9199,3.9277,3.9375,3.9531,3.9531,3.9805,3.998,4.0176,4.0195,4.0312,4.0565,4.0621,4.0912,4.1107,4.1085,4.1158,4.1317,4.1019,4.0563,4.0167,3.9889,3.9499,3.9129,3.9083,3.9301,3.9445,3.9445,3.9373,3.9248,3.9176,3.903,3.872,3.8574,3.8574,3.8574,3.8574,3.8574,3.8574,3.8574,3.8574,3.8574,3.8647,3.8574,3.8574,3.8574,3.8739,3.8812,3.872,3.872,3.8865,3.8938,3.8938,3.8865,3.872,3.8647,3.8574,3.8633,3.8706,3.8725,3.8999,3.8945,3.9062,3.9195,3.9351,3.9578,3.9371,3.9426,3.9667,3.9929,4.0378,4.0734,4.1142,4.1477,4.2053,4.2396,4.2669,4.3385,4.3998,4.5287,4.6426,4.7493,4.881,5.0284,5.118,5.1373,5.1473,5.1431,5.1373,3.8574,3.8574,3.8574,3.8574,3.8574,3.8574,3.8574,3.8574,3.8574,3.8633,3.8652,3.8613,3.8613,3.8672,3.8594,3.8809,3.9199,3.9609,3.9746,3.9746,3.9746,3.9844,3.9922,3.9941,4.0,4.0059,3.9863,3.9824,3.9824,3.9961,3.998,4.0,4.0098,4.0351,4.0566,4.0625,4.0742,4.1073,4.1093,4.1132,4.1191,4.1152,4.1249,4.119,4.0897,4.0486,4.0171,3.9743,3.9332,3.8828,3.8769,3.895,3.9109,3.9103,3.9103,3.9103,3.903,3.8885,3.8647,3.8574,3.8574,3.8574,3.8574,3.8574,3.8574,3.8574,3.8574,3.8574,3.8574,3.8574,3.8574,3.8574,3.8574,3.8647,3.8647,3.8574,3.8574,3.8574,3.8647,3.8647,3.8667,3.8686,3.8711,3.8789,3.875,3.8789,3.9101,3.9336,3.9434,3.9551,3.9743,3.9762,3.9609,3.97,3.9924,4.0077,4.0529,4.1048,4.1481,4.1841,4.2274,4.2518,4.2689,4.246,4.3118,4.451,4.5627,4.6544,4.8146,5.0332,5.1252,5.116,5.1414,5.1772,5.169,3.8574,3.8574,3.8574,3.8574,3.8574,3.8574,3.8574,3.8574,3.8574,3.8769,3.9004,3.873,3.8769,3.8906,3.8691,3.8828,3.9277,3.9726,3.998,3.998,4.0019,4.0137,4.0391,4.043,4.0586,4.0684,4.0371,4.0019,4.0078,4.0234,4.041,4.0488,4.0723,4.0957,4.0976,4.1055,4.1035,4.1133,4.1172,4.1172,4.1172,4.1172,4.1172,4.1172,4.1035,4.0781,4.0488,4.0312,4.0098,3.9726,3.9687,3.9528,3.9288,3.8955,3.8779,3.872,3.872,3.872,3.8647,3.8574,3.8574,3.8574,3.8574,3.8574,3.8574,3.8574,3.8574,3.8574,3.8574,3.8574,3.8574,3.8574,3.8574,3.8574,3.8574,3.8574,3.8574,3.8574,3.8613,3.8652,3.8652,3.8711,3.8867,3.9062,3.9199,3.9336,3.959,3.9746,3.9824,3.9883,3.9961,3.9922,3.9844,4.005,4.0255,4.0409,4.0658,4.1298,4.1741,4.1938,4.2363,4.2739,4.2753,4.2624,4.2907,4.3933,4.4945,4.5808,4.7182,4.9062,4.998,5.0734,5.0753,5.084,5.1886,3.8574,3.8574,3.8574,3.8574,3.8574,3.8574,3.8574,3.8574,3.8574,3.8672,3.8769,3.8672,3.8672,3.8789,3.8691,3.8926,3.9551,4.0019,4.0332,4.0488,4.0586,4.0644,4.084,4.084,4.0957,4.1035,4.0742,4.0527,4.0586,4.0762,4.084,4.0898,4.1094,4.1172,4.1172,4.1152,4.1172,4.1172,4.1172,4.1172,4.1172,4.1172,4.1172,4.1172,4.1152,4.0937,4.0605,4.0527,4.0312,3.9961,3.9883,3.9766,3.9512,3.916,3.8789,3.8633,3.8574,3.8574,3.8574,3.8574,3.8574,3.8574,3.8574,3.8574,3.8574,3.8574,3.8574,3.8574,3.8574,3.8574,3.8574,3.8574,3.8574,3.8574,3.8574,3.8574,3.8574,3.8574,3.8672,3.8809,3.8945,3.9043,3.9121,3.9355,3.9629,3.9863,4.0098,4.0176,4.0215,4.0312,4.0371,4.041,4.0391,4.0447,4.0636,4.0788,4.0884,4.137,4.1799,4.1995,4.2229,4.256,4.2826,4.2788,4.3276,4.3631,4.4816,4.5918,4.6933,4.7754,4.8578,4.9249,4.9534,4.9985,5.0952,3.8613,3.8691,3.8613,3.8574,3.8574,3.8574,3.8574,3.8574,3.8574,3.8652,3.8691,3.8633,3.8691,3.8848,3.9043,3.9394,4.0059,4.0469,4.082,4.1016,4.1094,4.1152,4.1152,4.1172,4.1152,4.1133,4.1113,4.1172,4.1074,4.1094,4.1152,4.1133,4.1152,4.1172,4.1172,4.1172,4.1172,4.1172,4.1172,4.1172,4.1172,4.1172,4.1172,4.1172,4.1172,4.0996,4.0742,4.0703,4.0566,4.0332,4.0195,4.0098,3.9883,3.9551,3.9121,3.8691,3.8594,3.8574,3.8574,3.8574,3.8574,3.8574,3.8574,3.8574,3.8574,3.8574,3.8574,3.8574,3.8574,3.8574,3.8574,3.8574,3.8574,3.8574,3.8574,3.8574,3.8574,3.8633,3.8789,3.8965,3.9199,3.9453,3.9648,3.9785,4.0098,4.0371,4.0605,4.0625,4.0684,4.084,4.0918,4.0996,4.1016,4.0996,4.1112,4.1207,4.1187,4.1381,4.1634,4.1771,4.2042,4.239,4.2519,4.2612,4.2861,4.3373,4.472,4.5415,4.5565,4.6085,4.7169,4.7754,4.79,4.8624,4.9724,3.8789,3.9082,3.873,3.8574,3.8574,3.8574,3.8574,3.8574,3.8594,3.8809,3.9062,3.8809,3.9043,3.957,4.0019,4.0273,4.0508,4.0762,4.1016,4.1152,4.1172,4.1172,4.1172,4.1172,4.1172,4.1172,4.1172,4.1172,4.1172,4.1172,4.1172,4.1172,4.1172,4.1172,4.1172,4.1172,4.1172,4.1172,4.1172,4.1172,4.1172,4.1172,4.1172,4.1172,4.1172,4.1133,4.1016,4.1016,4.0957,4.0957,4.0957,4.0625,4.0059,3.9863,3.9336,3.8848,3.8574,3.8574,3.8594,3.8574,3.8574,3.8574,3.8574,3.8574,3.8574,3.8574,3.8574,3.8574,3.8574,3.8574,3.8574,3.8574,3.8574,3.8574,3.8574,3.8574,3.8594,3.8769,3.8926,3.9297,3.959,3.998,4.0293,4.041,4.0566,4.084,4.1055,4.1035,4.1055,4.1133,4.1172,4.1172,4.1172,4.1172,4.1172,4.1327,4.1405,4.1405,4.1483,4.156,4.1695,4.1927,4.2005,4.2119,4.2447,4.283,4.3649,4.4029,4.3898,4.4407,4.5415,4.5862,4.6137,4.7169,4.819,3.9277,3.916,3.875,3.8574,3.8574,3.8574,3.8574,3.8633,3.8828,3.9023,3.9219,3.9336,3.9551,3.9922,4.0098,4.0293,4.0508,4.0742,4.0957,4.1152,4.1172,4.1172,4.1172,4.1172,4.1172,4.1172,4.1172,4.1172,4.1172,4.1172,4.1172,4.1172,4.1172,4.1172,4.1172,4.1172,4.1172,4.1172,4.1172,4.1172,4.1172,4.1172,4.1172,4.1172,4.1172,4.1172,4.1172,4.1172,4.1172,4.1172,4.1172,4.1035,4.0644,4.0371,3.9941,3.9434,3.9062,3.8848,3.8633,3.8594,3.8574,3.8574,3.8574,3.8574,3.8574,3.8574,3.8574,3.8574,3.8574,3.8574,3.8574,3.8574,3.8574,3.8574,3.8613,3.8633,3.8691,3.8906,3.9141,3.9551,3.9961,4.0351,4.0684,4.0801,4.084,4.0976,4.1113,4.1113,4.1113,4.1152,4.1172,4.1172,4.1172,4.1172,4.1172,4.125,4.125,4.125,4.125,4.1327,4.1405,4.1463,4.1618,4.185,4.2216,4.26,4.2907,4.2984,4.3136,4.3365,4.367,4.4256,4.4838,4.4913,4.6233,3.9201,3.8874,3.8934,3.8906,3.8906,3.8906,3.8926,3.8945,3.9101,3.9258,3.9473,3.9824,4.0039,4.0098,4.0234,4.0508,4.0703,4.0684,4.0879,4.1074,4.1172,4.1172,4.1172,4.1172,4.1172,4.1172,4.1172,4.1172,4.1172,4.1172,4.1172,4.1172,4.1172,4.1172,4.1172,4.1172,4.1172,4.1172,4.1172,4.1172,4.1172,4.1172,4.1172,4.1172,4.1172,4.1172,4.1172,4.1172,4.1172,4.1172,4.1172,4.1074,4.084,4.0586,4.0254,3.9785,3.9394,3.9062,3.8809,3.8691,3.8594,3.8574,3.8574,3.8574,3.8574,3.8574,3.8574,3.8574,3.8574,3.8574,3.8574,3.8574,3.8574,3.8633,3.8691,3.8711,3.8809,3.916,3.9531,3.9941,4.0312,4.0605,4.0898,4.1074,4.1133,4.1152,4.1172,4.1172,4.1172,4.1172,4.1172,4.1172,4.1172,4.1172,4.1172,4.1172,4.1172,4.1172,4.1172,4.125,4.125,4.1327,4.1483,4.1773,4.1985,4.2139,4.2313,4.239,4.2524,4.2984,4.3386,4.3386,4.3594,4.367,4.4558,3.8062,3.8065,3.9336,3.9785,3.9746,3.9805,3.9766,3.9648,3.9355,3.9512,3.9941,4.0273,4.0488,4.0547,4.0781,4.0976,4.1094,4.1133,4.1133,4.1152,4.1172,4.1172,4.1172,4.1172,4.1172,4.1172,4.1172,4.1172,4.1172,4.1172,4.1172,4.1172,4.1172,4.1172,4.1172,4.1172,4.1172,4.1172,4.1172,4.1172,4.1172,4.1172,4.1172,4.1172,4.1172,4.1172,4.1172,4.1172,4.1172,4.1172,4.1172,4.1055,4.084,4.0703,4.043,4.0019,3.9668,3.9375,3.918,3.8809,3.8594,3.8574,3.8574,3.8574,3.8574,3.8574,3.8574,3.8574,3.8574,3.8574,3.8574,3.8574,3.8594,3.875,3.8906,3.9062,3.9238,3.9609,3.998,4.0332,4.0625,4.0879,4.0976,4.1133,4.1172,4.1172,4.1172,4.1172,4.1172,4.1172,4.1172,4.1172,4.1172,4.1172,4.1172,4.1172,4.1172,4.1172,4.1172,4.1172,4.125,4.1327,4.1405,4.1483,4.1618,4.1695,4.185,4.2313,4.2621,4.2851,4.3081,4.3233,4.3594,4.405,4.4687,3.8328,3.8467,4.0009,4.0371,3.9883,3.959,3.9629,3.9844,3.9707,4.0039,4.0664,4.084,4.0918,4.0976,4.1035,4.1172,4.1172,4.1172,4.1172,4.1172,4.1172,4.1172,4.1172,4.1172,4.1172,4.1172,4.1172,4.1172,4.1172,4.1172,4.1172,4.1172,4.1172,4.1172,4.1172,4.1172,4.1172,4.1172,4.1172,4.1172,4.1172,4.1172,4.1172,4.1172,4.1172,4.1172,4.1172,4.1172,4.1172,4.1172,4.1172,4.1035,4.0918,4.0879,4.0684,4.0332,4.0039,3.9844,3.9512,3.9043,3.8594,3.8574,3.8574,3.8574,3.8594,3.8574,3.8574,3.8574,3.8574,3.8574,3.8594,3.8594,3.8652,3.8906,3.916,3.9394,3.9668,4.0039,4.0273,4.0586,4.082,4.1055,4.1113,4.1152,4.1172,4.1172,4.1172,4.1172,4.1172,4.1172,4.1172,4.1172,4.1172,4.1172,4.1172,4.1172,4.1172,4.1172,4.1172,4.1172,4.1172,4.125,4.125,4.125,4.1405,4.1695,4.2005,4.2467,4.2697,4.2927,4.3081,4.3157,4.367,4.418,4.4762,3.7834,3.8091,4.0275,4.084,4.0254,3.9785,3.9766,4.0019,3.9941,4.0273,4.0996,4.1094,4.1172,4.1172,4.1172,4.1172,4.1172,4.1172,4.1172,4.1172,4.1172,4.1172,4.1172,4.1172,4.1172,4.1172,4.1172,4.1172,4.1172,4.1172,4.1172,4.1172,4.1172,4.1172,4.1172,4.1172,4.1172,4.1172,4.1172,4.1172,4.1172,4.1172,4.1172,4.1172,4.1172,4.1172,4.1172,4.1172,4.1172,4.1172,4.1172,4.1172,4.1152,4.1133,4.0996,4.0801,4.0566,4.0371,3.998,3.9473,3.8926,3.8848,3.8809,3.873,3.8613,3.8594,3.8574,3.8574,3.8574,3.8633,3.8711,3.8828,3.9043,3.9336,3.9668,3.9922,4.0137,4.0449,4.0605,4.0801,4.0996,4.1133,4.1152,4.1172,4.1172,4.1172,4.1172,4.1172,4.1172,4.1172,4.1172,4.1172,4.1172,4.1172,4.1172,4.1172,4.1172,4.1172,4.1172,4.1172,4.1172,4.1172,4.1172,4.125,4.1405,4.1773,4.2082,4.2467,4.2697,4.2948,4.3081,4.3233,4.3462,4.3974,4.4201,3.6155,3.6477,3.9805,4.1152,4.0996,4.0664,4.0469,4.0469,4.0176,4.0254,4.0703,4.1016,4.1172,4.1172,4.1172,4.1172,4.1172,4.1172,4.1172,4.1172,4.1172,4.1172,4.1172,4.1172,4.1172,4.1172,4.1172,4.1172,4.1172,4.1172,4.1172,4.1172,4.1172,4.1172,4.1172,4.1172,4.1172,4.1172,4.1172,4.1172,4.1172,4.1172,4.1172,4.1172,4.1172,4.1172,4.1172,4.1172,4.1172,4.1172,4.1172,4.1172,4.1172,4.1172,4.1133,4.1094,4.0742,4.0566,4.0469,4.0078,3.9687,3.9277,3.9199,3.9101,3.8769,3.8652,3.875,3.8906,3.8789,3.8906,3.9043,3.9219,3.9473,3.9785,4.0117,4.0351,4.0566,4.0742,4.0898,4.0957,4.1055,4.1172,4.1172,4.1172,4.1172,4.1172,4.1172,4.1172,4.1172,4.1172,4.1172,4.1172,4.1172,4.1172,4.1172,4.1172,4.1172,4.1172,4.1172,4.1172,4.1172,4.1172,4.125,4.125,4.1463,4.1773,4.2082,4.237,4.2621,4.2774,4.3157,4.3386,4.3539,4.3615,4.3822,3.6717,3.7914,4.0197,4.1172,4.1113,4.0703,4.0684,4.0898,4.082,4.082,4.0957,4.1133,4.1172,4.1172,4.1172,4.1172,4.1172,4.1172,4.1172,4.1172,4.1172,4.1172,4.1172,4.1172,4.1172,4.1172,4.1172,4.1172,4.1172,4.1172,4.1172,4.1172,4.1172,4.1172,4.1172,4.1172,4.1172,4.1172,4.1172,4.1172,4.1172,4.1172,4.1172,4.1172,4.1172,4.1172,4.1172,4.1172,4.1172,4.1172,4.1172,4.1172,4.1172,4.1172,4.1172,4.1172,4.0957,4.0957,4.0937,4.0723,4.0391,3.9961,3.9648,3.959,3.9453,3.9453,3.9453,3.9394,3.9336,3.9473,3.9629,3.9668,3.9863,4.0195,4.0488,4.0664,4.0859,4.0996,4.1113,4.1113,4.1172,4.1172,4.1172,4.1172,4.1172,4.1172,4.1172,4.1172,4.1172,4.1172,4.1172,4.1172,4.1172,4.1172,4.1172,4.1172,4.1172,4.1172,4.1172,4.1172,4.1172,4.1172,4.1172,4.125,4.156,4.185,4.2005,4.2216,4.237,4.26,4.2815,4.3162,4.3336,4.3371,4.3386,3.6075,3.7755,3.8901,3.9393,3.9396,3.9487,3.9797,4.0104,4.0628,4.1016,4.1152,4.1172,4.1172,4.1172,4.1172,4.1172,4.1172,4.1172,4.1172,4.1172,4.1172,4.1172,4.1172,4.1172,4.1172,4.1172,4.1172,4.1172,4.1172,4.1172,4.1172,4.1172,4.1172,4.1172,4.1172,4.1172,4.1172,4.1172,4.1172,4.1172,4.1172,4.1172,4.1172,4.1172,4.1172,4.1172,4.1172,4.1172,4.1172,4.1172,4.1172,4.1172,4.1172,4.1172,4.1172,4.1172,4.1172,4.1152,4.1133,4.1133,4.0781,4.0469,4.0234,4.0039,3.9941,3.9785,3.9805,3.9824,3.9922,4.0019,4.0078,4.0098,4.0273,4.0605,4.0781,4.0976,4.1016,4.1152,4.1172,4.1172,4.1172,4.1172,4.1172,4.1172,4.1172,4.1172,4.1172,4.1172,4.1172,4.1172,4.1172,4.1172,4.1172,4.1172,4.1172,4.1172,4.1172,4.1172,4.1172,4.1172,4.1172,4.1172,4.1172,4.125,4.154,4.1773,4.185,4.2005,4.2122,4.2124,4.2126,4.2534,4.3074,4.3188,4.3224,3.4474,3.5914,3.5994,3.6155,3.6327,3.7614,3.8172,3.8328,3.9855,4.082,4.1172,4.1172,4.1172,4.1172,4.1172,4.1172,4.1172,4.1172,4.1172,4.1172,4.1172,4.1172,4.1172,4.1172,4.1172,4.1172,4.1172,4.1172,4.1172,4.1172,4.1172,4.1172,4.1172,4.1172,4.1172,4.1172,4.1172,4.1172,4.1172,4.1172,4.1172,4.1172,4.1172,4.1172,4.1172,4.1172,4.1191,4.123,4.123,4.1211,4.1211,4.1191,4.1191,4.1269,4.1191,4.125,4.1289,4.1328,4.1269,4.1289,4.1172,4.0918,4.0703,4.0371,4.0195,4.0176,4.0215,4.0195,4.0234,4.0351,4.0469,4.0566,4.0684,4.0898,4.1055,4.1133,4.1133,4.1172,4.1172,4.1172,4.1172,4.1172,4.1172,4.1172,4.1172,4.1172,4.1172,4.1172,4.1172,4.1172,4.1172,4.1172,4.1172,4.1172,4.1172,4.1172,4.1172,4.1172,4.1172,4.1172,4.1172,4.1172,4.1172,4.1327,4.154,4.1735,4.1776,4.1796,4.1776,4.1797,4.2073,4.2327,4.2971,4.3298,4.3433,3.4392,3.5994,3.5994,3.5994,3.6218,3.7708,3.903,4.0259,4.0822,4.1074,4.1172,4.1172,4.1172,4.1172,4.1172,4.1172,4.1172,4.1172,4.1172,4.1172,4.1172,4.1172,4.1172,4.1172,4.1172,4.1172,4.1172,4.1172,4.1172,4.1172,4.1172,4.1172,4.1172,4.1172,4.1172,4.1172,4.1172,4.1172,4.1172,4.1172,4.1172,4.1172,4.1191,4.1211,4.123,4.125,4.1308,4.1523,4.1504,4.1289,4.1504,4.1523,4.1191,4.1445,4.168,4.2031,4.2051,4.1973,4.1699,4.1621,4.1523,4.1289,4.1055,4.1016,4.084,4.0723,4.0703,4.0644,4.0605,4.0742,4.082,4.0898,4.0957,4.1055,4.1172,4.1172,4.1172,4.1172,4.1172,4.1172,4.1172,4.1172,4.1172,4.1172,4.1172,4.1172,4.1172,4.1172,4.1172,4.1172,4.1172,4.1172,4.1172,4.1172,4.1172,4.1172,4.1172,4.1172,4.1172,4.1172,4.1172,4.1172,4.1172,4.1269,4.1464,4.1641,4.1759,4.1778,4.1876,4.227,4.2506,4.2665,4.2841,4.3213,4.3508,3.3085,3.4717,3.3805,3.4278,3.5736,3.6877,3.8724,4.0841,4.1172,4.1172,4.1172,4.1172,4.1172,4.1172,4.1172,4.1172,4.1172,4.1172,4.1172,4.1172,4.1172,4.1172,4.1172,4.1172,4.1172,4.1172,4.1172,4.1172,4.1172,4.1172,4.1172,4.1172,4.1172,4.1172,4.1172,4.1172,4.1172,4.1172,4.1172,4.1172,4.1191,4.1211,4.125,4.1406,4.1426,4.1484,4.1641,4.1953,4.1855,4.1699,4.1992,4.1953,4.1699,4.1953,4.209,4.2344,4.2344,4.2246,4.209,4.2051,4.1797,4.1562,4.1406,4.1289,4.1191,4.1035,4.1055,4.1055,4.1094,4.1152,4.1152,4.1172,4.1152,4.1172,4.1172,4.1172,4.1172,4.1172,4.1172,4.1172,4.1172,4.1172,4.1172,4.1172,4.1172,4.1172,4.1172,4.1172,4.1172,4.1172,4.1172,4.1172,4.1172,4.1172,4.1172,4.1172,4.1172,4.1172,4.1172,4.1172,4.1172,4.1191,4.1211,4.1269,4.1348,4.1582,4.1934,4.2012,4.2189,4.2562,4.2798,4.2899,4.3001,4.324,4.3598,3.0886,3.2854,3.0553,3.1933,3.5009,3.5413,3.7596,4.0919,4.1094,4.1172,4.1172,4.1172,4.1172,4.1172,4.1172,4.1172,4.1172,4.1172,4.1172,4.1191,4.1172,4.1172,4.1172,4.1172,4.1172,4.1172,4.1172,4.1172,4.1172,4.1191,4.1191,4.1211,4.1269,4.1348,4.1484,4.1465,4.1504,4.1523,4.1465,4.1445,4.1328,4.1328,4.1445,4.1777,4.1894,4.1992,4.2285,4.2441,4.2461,4.2422,4.2461,4.2461,4.2461,4.2441,4.25,4.2617,4.2715,4.2617,4.2539,4.248,4.2226,4.2012,4.1836,4.1641,4.1484,4.123,4.1172,4.1172,4.1172,4.1172,4.1172,4.1172,4.1172,4.1172,4.1172,4.1172,4.1172,4.1172,4.1172,4.1172,4.1172,4.1172,4.1172,4.1172,4.1172,4.1172,4.1172,4.1172,4.125,4.125,4.1211,4.1191,4.1191,4.1191,4.1172,4.1172,4.1172,4.1172,4.1211,4.1172,4.1172,4.1211,4.125,4.1504,4.1777,4.1875,4.209,4.2305,4.2558,4.2754,4.305,4.3086,4.3251,4.3438,4.3598,2.99,3.0386,2.9732,3.1602,3.4684,3.4847,3.7117,4.0588,4.0666,4.0841,4.1172,4.1172,4.1172,4.1172,4.1211,4.123,4.1211,4.1328,4.1191,4.125,4.1269,4.1367,4.123,4.1328,4.125,4.1172,4.1172,4.1269,4.1308,4.1308,4.1367,4.1621,4.166,4.1738,4.1992,4.1992,4.1992,4.1953,4.2031,4.1914,4.1758,4.1973,4.2207,4.2285,4.2324,4.2344,4.2578,4.2773,4.2656,4.2539,4.2793,4.2891,4.293,4.293,4.3086,4.332,4.3301,4.3144,4.2988,4.2891,4.2695,4.2441,4.2226,4.1992,4.1719,4.1367,4.1191,4.1191,4.1172,4.1172,4.1172,4.1172,4.1191,4.1191,4.1211,4.1211,4.1211,4.1211,4.1211,4.1191,4.1191,4.1211,4.1211,4.123,4.1172,4.1172,4.1172,4.1211,4.1406,4.1445,4.1308,4.1269,4.1211,4.1211,4.125,4.1348,4.1445,4.1387,4.1387,4.1308,4.123,4.1445,4.1699,4.2012,4.2266,4.2363,4.2519,4.2793,4.3008,4.3164,4.3262,4.3379,4.3457,4.3566,4.3664,2.9146,2.9565,3.0136,3.1933,3.4213,3.5187,3.7357,3.9883,4.0431,4.0666,4.0919,4.1094,4.1172,4.123,4.1348,4.1426,4.1465,4.168,4.1777,4.1758,4.166,4.1777,4.1719,4.166,4.1777,4.1738,4.1738,4.1758,4.166,4.1758,4.1933,4.2051,4.2109,4.2207,4.2441,4.2441,4.2461,4.2402,4.2617,4.2558,4.2305,4.2441,4.2598,4.2617,4.2734,4.2773,4.3027,4.3242,4.3164,4.3086,4.3262,4.334,4.3359,4.3359,4.3457,4.3594,4.3633,4.3613,4.3418,4.3281,4.3125,4.2871,4.2695,4.25,4.1855,4.1523,4.1328,4.1308,4.1191,4.1172,4.1172,4.1172,4.1367,4.1445,4.1504,4.1523,4.1523,4.1523,4.1523,4.1523,4.1523,4.1523,4.1601,4.1816,4.1738,4.1523,4.1465,4.1484,4.1641,4.1758,4.1582,4.1523,4.1562,4.166,4.1855,4.1894,4.1875,4.1777,4.1641,4.1777,4.1875,4.1973,4.2168,4.2422,4.2637,4.2773,4.2969,4.3183,4.3359,4.3476,4.3574,4.3652,4.3691,4.3691,4.3754,2.8642,2.9481,3.0705,3.233,3.4034,3.5736,3.7773,3.9647,4.0216,4.0431,4.0588,4.0997,4.1172,4.1308,4.1582,4.1719,4.1875,4.2051,4.2266,4.2324,4.2324,4.2207,4.2226,4.2324,4.2266,4.2266,4.2266,4.2285,4.2266,4.2266,4.2285,4.2461,4.2519,4.2539,4.2558,4.2598,4.2715,4.2832,4.2988,4.3125,4.2988,4.2812,4.293,4.3066,4.3183,4.3359,4.3594,4.3691,4.3691,4.3652,4.3594,4.3613,4.3613,4.3594,4.3633,4.3691,4.3691,4.3672,4.3633,4.3613,4.3437,4.3262,4.3164,4.2793,4.2129,4.1836,4.166,4.1504,4.1367,4.125,4.125,4.1328,4.1543,4.1777,4.1836,4.1875,4.1875,4.1875,4.1875,4.1875,4.1875,4.1875,4.2031,4.2266,4.2187,4.1973,4.1894,4.1933,4.1992,4.209,4.207,4.2129,4.2246,4.2363,4.2383,4.2344,4.2246,4.2168,4.209,4.2305,4.248,4.25,4.2578,4.2754,4.2949,4.3125,4.3262,4.3437,4.3613,4.3691,4.3691,4.3691,4.3691,4.3691,4.3691,2.8305,2.8558,3.0205,3.1933,3.3642,3.543,3.7392,3.9254,3.9823,4.0197,4.0509,4.0919,4.1172,4.1191,4.1621,4.1797,4.1875,4.2285,4.2422,4.2402,4.2578,4.25,4.2519,4.2676,4.248,4.25,4.2558,4.2461,4.2656,4.2598,4.2637,4.293,4.2949,4.3105,4.3398,4.3379,4.332,4.3359,4.3379,4.3496,4.3535,4.3457,4.3516,4.3574,4.3594,4.3633,4.3691,4.3691,4.3691,4.3691,4.3691,4.3691,4.3691,4.3691,4.3691,4.3691,4.3691,4.3691,4.3691,4.3691,4.3535,4.3516,4.3359,4.3086,4.2617,4.2402,4.2207,4.2012,4.1836,4.1582,4.1562,4.166,4.1855,4.2168,4.2344,4.2324,4.2324,4.2324,4.2305,4.2305,4.2305,4.2305,4.2344,4.248,4.25,4.2344,4.2324,4.2363,4.2558,4.2558,4.2539,4.2656,4.2812,4.2656,4.25,4.2578,4.2539,4.248,4.2519,4.2734,4.2891,4.293,4.3027,4.3144,4.332,4.3496,4.3633,4.3613,4.3633,4.3691,4.3691,4.3691,4.3691,4.3691,4.3691]}]]